GFSGL_sfc_30mbdewp_000.txt.gz
Dewpoint
68 67 66 64 61 59 58 60 59 57 57 59 58 58 58 59 59 59 59 59 60 60 60 60 60 61 61 59 58 57 55 55 53 54 54 55 56 57 57 57 57 57 56
68 65 63 61 59 59 59 60 60 58 58 59 59 59 59 60 60 59 58 60 59 59 59 60 60 60 60 60 58 57 57 57 55 55 56 55 56 57 57 57 56 55 56
67 64 62 60 60 60 60 60 60 59 58 58 59 60 59 59 57 57 58 58 59 59 59 59 59 59 58 58 58 58 57 57 57 56 56 56 56 56 56 56 56 55 55
65 63 62 61 60 61 61 61 60 59 58 58 59 58 57 56 56 57 58 58 58 59 59 60 59 58 58 58 58 58 58 57 57 56 56 55 56 56 55 54 52 52 53
65 63 63 62 61 62 62 61 61 60 60 59 59 58 58 57 57 57 58 58 58 59 60 59 58 58 59 59 58 57 57 56 56 56 55 55 55 54 54 53 52 52 52
65 64 64 63 63 63 65 64 62 60 60 60 58 58 57 58 58 58 59 59 59 59 57 56 56 55 55 56 58 59 60 57 56 56 55 54 55 55 54 53 52 51 50
66 65 65 63 63 63 64 63 62 61 60 59 59 58 58 58 58 58 58 60 58 56 55 55 53 55 56 55 54 56 58 59 59 59 56 56 55 55 54 53 52 52 52
67 66 64 63 62 62 61 61 62 60 59 59 58 58 58 59 58 58 58 60 58 57 56 55 55 54 54 55 55 56 55 54 54 54 55 55 55 56 56 55 54 54 53
67 66 64 63 62 63 61 61 61 59 59 59 59 59 58 58 58 59 59 59 58 58 56 55 53 54 54 54 54 53 52 52 53 53 53 54 54 54 55 55 53 52 50
66 65 65 64 62 60 61 61 60 60 60 60 60 60 60 61 60 59 59 58 56 55 54 54 53 51 52 52 52 51 50 50 50 51 51 52 52 53 54 55 54 52 50
65 65 65 65 63 63 62 61 60 61 61 61 59 57 56 59 62 59 57 56 55 54 53 53 51 51 51 50 50 50 49 51 50 50 50 49 50 51 52 53 54 53 51
64 64 64 63 63 61 59 59 59 58 56 55 56 53 54 59 58 57 56 56 54 54 53 50 50 47 49 50 50 49 49 48 49 49 48 47 49 50 50 52 53 53 54
62 62 62 62 61 60 59 58 57 56 55 54 55 55 58 57 54 54 54 53 51 49 48 47 46 45 46 49 48 47 46 47 46 45 44 45 47 49 51 51 52 53 54
61 61 61 60 59 58 59 58 57 56 55 55 57 59 57 55 52 51 49 48 48 47 45 45 48 48 48 46 45 44 45 45 44 42 42 44 46 47 46 49 50 51 51
59 59 59 59 60 59 58 57 58 58 57 58 58 57 55 54 51 49 48 47 47 45 43 48 49 47 45 42 41 40 40 40 39 40 40 41 43 43 43 47 48 49 49
59 58 58 58 58 57 54 52 48 48 49 52 51 54 50 50 46 42 42 41 41 42 45 47 45 42 40 38 37 35 35 35 36 36 36 38 38 39 40 44 46 48 48
57 55 54 53 55 56 54 52 51 47 44 45 48 47 45 43 42 42 42 42 41 43 44 42 40 37 35 34 32 31 31 33 35 34 35 34 34 36 39 41 43 46 47
54 53 53 55 56 55 55 53 51 49 48 45 43 43 42 42 42 41 40 41 41 39 39 38 34 30 29 30 30 29 30 32 32 32 32 32 33 34 36 38 41 42 45
53 53 55 56 56 55 54 53 51 49 47 46 45 44 43 42 41 41 42 42 40 37 34 31 30 31 32 33 30 25 27 31 31 31 30 31 32 33 34 36 38 39 44
57 55 55 55 55 54 53 52 51 49 48 47 46 46 46 45 44 42 41 39 38 35 34 35 35 35 35 29 23 23 28 30 29 29 30 30 31 32 32 33 35 37 40
55 55 55 55 54 53 52 52 51 50 49 48 48 47 46 46 44 42 40 39 39 38 38 37 36 34 25 22 26 28 28 28 28 29 29 30 31 30 32 32 32 34 36
52 52 54 54 54 54 53 54 54 53 51 49 48 46 43 43 43 42 41 40 39 40 36 31 27 22 21 22 27 27 27 27 28 28 28 29 29 30 30 29 30 32 33
51 51 51 51 52 52 52 52 52 51 50 49 47 44 42 42 42 42 41 40 40 39 33 29 25 22 21 23 25 25 24 26 27 28 28 28 28 29 29 29 29 30 31
51 51 51 51 51 51 51 51 51 50 49 48 47 44 42 42 42 42 42 42 41 37 30 27 24 21 20 20 21 20 20 23 27 28 29 27 27 28 28 28 28 30 29
47 47 48 49 49 48 48 48 48 49 49 48 47 45 44 42 41 41 42 41 40 35 31 27 24 20 16 15 14 16 17 20 28 29 29 27 27 28 28 27 28 27 28
45 45 45 45 46 46 45 44 44 43 43 47 46 46 45 43 42 40 40 38 36 33 30 27 24 19 16 16 17 16 16 23 28 28 28 26 25 26 26 26 26 25 26

GFSGL_sfc_30mbdewp_003.txt.gz
Dewpoint
69 70 70 71 71 72 70 69 65 64 64 63 63 61 61 61 61 62 62 59 59 59 62 62 62 63 60 60 61 60 58 58 55 52 52 56 58 59 58 59 58 57 54
68 70 70 70 70 69 69 64 64 63 64 63 62 62 62 61 61 62 61 57 59 59 59 61 61 60 62 61 60 60 58 59 57 55 55 55 56 58 58 59 58 56 55
67 68 69 69 68 69 63 63 63 62 62 61 62 62 62 61 62 63 62 59 60 60 60 60 60 61 60 58 59 57 56 59 58 57 54 53 54 56 56 56 56 56 56
66 67 68 67 67 65 63 62 63 63 62 62 62 63 62 62 61 60 59 60 61 60 61 61 61 61 59 59 58 59 58 58 56 56 54 53 52 54 55 54 52 51 51
67 67 67 67 66 65 63 63 61 60 62 62 61 62 63 61 59 60 60 61 61 61 61 63 60 62 61 59 56 55 57 56 54 53 52 51 50 50 51 52 52 52 51
67 67 67 66 65 65 64 62 61 60 62 63 62 61 61 61 59 58 60 60 61 62 61 59 60 60 59 58 58 59 59 57 56 54 51 52 54 53 53 54 52 51 48
67 67 66 66 65 65 64 63 63 62 62 61 62 62 62 62 61 59 59 60 61 61 62 62 60 57 58 57 56 56 57 58 59 58 57 57 55 55 56 54 52 52 52
67 67 67 66 65 65 65 64 63 61 61 63 63 63 62 62 61 59 60 62 62 62 62 61 60 59 58 56 56 55 55 56 57 56 55 55 55 55 54 53 54 55 54
67 67 67 65 65 65 64 64 63 62 62 63 62 62 62 62 60 60 61 62 61 61 61 61 60 58 57 54 53 54 54 54 54 53 53 53 53 53 54 53 52 52 51
67 67 67 66 65 64 64 65 64 63 62 62 62 63 62 62 61 59 57 59 60 61 60 59 54 55 52 52 53 54 53 53 53 51 51 51 52 52 52 53 53 52 52
68 68 67 66 65 65 65 64 63 62 62 62 62 63 62 63 61 56 58 60 61 60 57 56 56 50 50 51 51 54 52 50 50 49 48 48 49 50 50 51 52 52 52
68 67 67 66 65 64 64 63 63 63 63 62 62 62 60 60 58 59 59 59 60 59 57 55 53 47 45 49 50 50 49 47 48 47 46 46 46 46 47 48 50 51 53
67 66 66 66 64 64 62 62 61 62 61 60 58 57 58 61 60 56 55 55 55 56 52 47 44 45 46 48 49 47 45 47 46 45 43 43 43 44 47 44 44 49 52
65 65 66 65 64 63 62 61 60 59 59 58 58 57 60 59 57 55 53 51 48 50 47 48 48 48 49 49 47 46 45 44 42 41 40 40 40 40 39 38 42 47 51
65 65 65 64 62 62 60 58 59 60 58 59 57 57 58 57 56 54 52 51 51 47 46 48 48 48 47 47 46 45 43 41 40 39 37 37 36 35 34 35 42 47 50
64 64 63 61 60 58 58 55 47 49 51 54 55 58 54 52 49 46 43 41 41 42 45 45 46 46 46 45 43 40 38 37 37 36 35 35 34 33 32 34 42 46 50
62 61 60 60 60 59 57 56 55 47 45 46 49 49 49 44 42 41 41 41 41 42 44 44 44 44 42 40 36 34 34 33 35 32 33 33 32 32 32 34 41 44 46
60 58 57 55 56 57 57 56 55 54 53 49 43 43 42 42 41 40 41 42 43 43 43 43 41 39 36 35 35 33 31 28 28 31 31 31 31 31 31 32 39 41 44
55 54 55 56 56 56 57 57 55 55 52 49 46 44 42 40 41 41 41 45 44 42 40 39 36 35 36 36 35 31 28 23 29 31 30 30 30 30 30 31 35 39 42
60 58 57 57 57 57 57 55 55 54 51 49 48 48 46 45 45 45 44 43 41 39 37 37 37 37 37 35 29 25 24 28 30 29 29 29 29 29 28 29 32 38 41
58 56 56 56 56 56 55 54 54 52 50 49 49 49 48 47 47 45 43 42 40 39 40 39 38 37 32 28 26 26 28 29 29 29 29 28 29 28 28 27 28 34 37
54 55 55 55 55 55 55 54 54 53 51 50 50 49 47 47 46 44 42 41 41 41 40 37 31 28 25 23 24 27 28 28 29 28 28 27 27 27 27 26 26 28 33
54 53 53 54 54 54 54 54 55 53 52 52 51 49 47 46 45 44 42 42 42 41 39 34 30 25 22 20 25 28 27 28 28 28 27 26 25 26 26 25 25 27 28
51 51 51 52 52 52 52 52 52 52 51 51 50 49 46 44 44 44 43 42 42 41 38 32 29 24 22 17 22 25 26 27 30 28 30 26 25 26 25 24 24 26 26
50 50 50 50 51 51 51 50 49 48 48 49 49 49 48 47 45 43 42 42 42 41 37 32 29 25 20 19 16 19 22 17 28 29 28 26 26 28 26 23 25 24 26
44 45 44 45 45 44 44 43 43 43 42 43 43 44 47 48 47 44 42 41 40 39 36 32 28 25 20 20 22 19 14 19 28 27 27 25 24 24 24 23 24 22 24

GFSGL_sfc_30mbdewp_006.txt.gz
Dewpoint
68 69 69 69 70 71 71 72 71 70 67 65 64 60 60 60 60 60 59 56 55 55 54 57 58 60 57 53 52 51 51 51 51 50 49 51 53 56 56 57 57 56 55
67 70 69 69 69 70 72 72 72 71 67 66 64 63 62 59 59 60 59 55 55 55 56 57 58 57 58 58 56 55 53 54 53 52 53 53 54 53 54 57 57 54 54
66 67 68 68 69 69 71 71 71 68 66 65 64 64 63 63 60 60 61 59 57 56 57 57 58 57 57 56 56 53 51 51 52 51 52 52 51 51 52 56 55 54 53
63 66 67 68 68 70 70 69 67 65 64 64 62 63 61 62 62 61 60 60 57 56 58 58 59 58 57 57 56 56 56 55 53 52 51 50 52 52 52 52 49 48 47
63 64 66 69 69 70 70 68 65 63 63 59 60 60 61 63 62 61 59 57 57 58 58 59 59 60 58 58 55 54 54 53 51 51 49 48 48 51 52 50 48 48 50
65 66 67 69 70 69 69 67 65 63 60 59 59 58 59 61 57 57 58 58 58 59 59 60 62 60 61 61 60 58 57 55 53 51 51 49 52 55 52 50 51 50 49
67 67 68 70 69 69 68 67 64 62 60 59 60 60 60 62 59 59 59 57 58 59 61 61 60 60 59 59 59 58 57 57 57 56 56 55 55 54 54 55 53 52 50
68 68 69 69 69 68 68 66 65 61 60 61 63 62 61 60 62 60 60 61 60 62 62 62 61 61 61 59 59 56 56 56 56 56 56 55 54 55 54 53 52 52 53
67 68 68 68 68 67 67 66 66 63 61 62 63 62 62 62 62 60 60 59 60 62 63 61 61 62 60 56 56 55 55 54 54 54 53 52 52 52 52 52 50 50 50
67 68 68 68 67 67 67 67 66 65 63 62 62 63 62 64 61 59 60 59 60 59 61 62 60 59 55 52 54 54 52 52 53 52 52 52 52 51 53 54 53 53 52
66 68 68 68 68 68 68 67 66 65 64 64 63 62 63 63 63 59 59 61 56 59 57 61 59 53 50 51 51 52 52 53 50 50 48 44 42 45 46 50 52 50 46
68 68 68 68 67 67 67 67 65 65 64 63 64 63 63 63 63 59 58 58 59 58 61 55 55 48 46 49 50 50 49 47 47 47 45 40 42 43 43 45 48 49 46
68 67 68 68 67 66 66 65 64 64 62 62 63 61 63 62 60 57 57 57 59 60 56 50 46 45 44 45 49 49 47 48 47 44 40 41 42 43 45 45 43 45 47
68 68 68 67 67 65 65 65 64 62 62 62 61 60 59 61 59 58 57 56 53 53 49 49 49 48 48 49 49 48 48 47 44 42 42 42 42 41 40 38 34 34 41
67 67 65 65 65 65 62 58 60 59 58 57 59 58 57 59 57 56 54 53 53 50 52 50 49 48 47 48 48 47 46 44 42 41 41 40 38 36 34 33 31 35 44
64 64 63 63 63 63 61 58 48 51 53 55 55 58 57 55 52 50 47 45 44 43 46 46 45 45 45 45 45 43 41 40 40 39 37 36 35 33 31 30 31 37 45
62 62 61 60 58 58 59 56 54 49 46 47 48 49 51 49 47 44 41 41 42 42 44 43 44 44 44 43 41 38 37 37 40 37 35 34 32 30 30 30 31 36 42
62 60 58 58 57 56 56 56 55 54 52 51 44 45 42 42 41 41 42 43 44 43 43 43 43 42 41 40 39 38 36 35 33 31 31 30 29 29 28 28 30 35 40
56 56 56 54 53 53 54 53 53 53 51 52 46 43 41 40 41 41 42 45 43 42 41 40 39 38 38 39 39 38 36 31 26 30 30 28 28 27 27 27 28 33 39
55 54 53 52 55 55 55 54 53 52 52 52 49 48 46 45 46 46 45 45 43 41 39 38 37 38 39 40 36 33 29 26 28 28 27 28 27 27 26 25 25 27 37
53 56 55 55 54 53 52 50 50 50 50 48 48 49 48 48 45 45 45 44 42 40 41 40 39 39 38 35 31 27 24 25 26 27 27 26 27 25 25 24 23 24 26
53 53 51 49 50 51 50 50 50 49 48 47 47 49 48 48 46 47 46 44 43 42 41 41 38 34 31 29 25 23 24 25 27 27 26 25 24 24 23 23 22 23 24
51 51 51 52 51 53 52 50 50 49 48 48 49 50 49 48 46 47 46 45 43 42 41 39 36 32 29 23 20 23 23 25 26 27 26 26 24 24 24 23 22 22 23
51 50 50 49 49 48 47 48 49 51 50 51 51 50 48 47 47 47 46 44 43 42 41 38 35 31 28 21 18 22 24 26 28 27 29 27 25 26 25 23 22 23 23
48 48 48 48 48 47 47 47 46 46 47 47 45 46 46 47 48 47 46 44 43 42 40 37 34 31 27 22 16 18 24 19 27 28 28 28 26 28 25 23 24 22 24
43 43 42 43 43 43 43 42 42 42 41 41 42 42 42 43 45 47 45 43 42 41 39 36 34 30 25 22 21 20 14 13 23 27 27 26 25 25 22 23 23 21 22

GFSGL_sfc_30mbdewp_009.txt.gz
Dewpoint
70 70 71 71 72 73 72 71 71 68 69 65 68 66 62 62 63 63 61 58 59 60 60 56 56 59 56 53 51 51 49 49 49 50 51 52 59 57 57 58 57 58 56
69 71 71 72 72 72 73 72 72 70 70 68 68 66 63 62 61 62 61 59 57 57 56 58 58 57 60 62 56 58 55 54 53 54 54 53 55 56 58 58 57 54 54
67 68 70 70 71 71 73 72 73 73 71 68 68 67 63 63 63 63 62 62 59 58 57 59 58 60 60 57 59 57 54 55 54 50 50 52 53 54 54 56 58 58 58
62 63 68 70 71 71 72 73 73 73 72 69 67 67 65 64 64 63 62 62 62 61 60 59 59 60 60 60 60 60 59 57 54 53 51 52 53 53 55 50 53 54 53
62 63 66 71 71 71 71 73 73 73 72 69 67 66 65 61 61 63 60 59 62 61 58 59 60 60 60 61 60 59 60 56 53 52 51 50 49 50 52 53 54 53 53
65 65 67 71 72 72 72 73 73 72 71 68 65 63 60 58 56 60 61 58 61 60 59 61 62 62 59 59 60 60 60 59 57 54 53 52 54 55 53 54 55 52 49
66 68 69 72 72 73 73 73 72 70 69 66 64 60 59 60 60 60 60 58 59 60 61 61 61 59 58 58 61 61 60 59 58 57 57 58 57 58 57 56 54 53 52
69 69 70 72 73 73 73 72 71 70 68 66 63 60 61 62 61 59 59 59 59 59 60 62 62 62 61 62 61 60 61 60 60 59 59 59 57 56 56 54 54 54 52
68 69 70 71 71 71 71 70 69 69 68 65 63 62 64 64 61 60 61 60 61 62 62 62 62 63 62 61 60 59 58 58 57 55 54 54 52 52 52 51 49 46 45
68 68 70 71 70 69 70 70 69 69 67 65 62 64 65 64 62 61 62 63 61 61 62 64 63 61 59 58 58 56 56 56 54 53 55 53 53 55 54 54 51 49 47
66 67 69 69 70 69 69 70 69 68 67 66 64 65 65 65 64 60 60 63 59 58 61 60 60 58 55 52 52 55 54 54 55 51 49 48 48 46 42 48 55 51 47
68 68 69 69 68 69 69 69 68 67 66 65 65 65 64 65 64 60 58 58 60 60 59 59 61 55 51 50 50 49 50 50 48 46 46 46 44 39 41 45 50 51 49
69 69 69 69 69 69 69 68 67 66 65 64 63 63 64 66 65 60 59 58 58 59 61 54 54 49 46 45 45 49 50 48 47 47 46 41 39 41 47 46 48 48 49
69 69 69 68 68 67 67 66 65 64 63 63 63 64 64 63 62 60 58 58 57 57 52 52 51 50 49 50 50 49 50 49 48 45 42 42 40 40 39 37 35 33 32
68 68 68 67 66 65 63 62 63 61 60 61 60 62 59 57 60 59 58 58 57 54 54 52 51 50 48 50 51 52 51 48 45 43 41 39 37 37 36 34 32 31 31
66 66 65 65 65 64 61 56 51 53 53 55 56 57 57 54 50 48 48 48 48 48 50 48 45 44 44 44 45 46 45 43 42 41 40 38 36 35 33 31 31 31 33
63 62 61 61 60 62 59 59 58 52 49 50 50 52 54 50 47 47 46 45 43 44 45 42 43 44 44 44 43 42 40 40 43 39 36 35 33 31 30 29 29 30 33
62 60 59 56 55 56 56 55 53 54 53 52 46 49 47 47 47 44 43 44 44 43 44 42 43 43 43 42 40 39 39 37 35 33 31 30 30 29 28 28 28 29 30
61 57 57 55 54 54 53 52 52 51 51 52 48 46 43 41 41 41 42 47 43 43 42 41 41 40 39 39 39 39 39 36 31 29 32 30 29 28 27 27 26 26 28
56 55 54 53 53 51 51 50 49 49 48 53 50 48 46 44 45 46 46 46 45 43 41 41 40 40 40 40 40 38 34 29 28 29 27 28 28 28 26 25 24 24 25
52 53 52 52 51 50 50 49 48 47 46 47 50 50 47 47 46 47 46 46 46 43 42 42 41 41 41 41 38 33 28 25 26 27 27 27 27 26 25 24 23 22 23
51 52 51 50 49 50 48 47 46 45 45 46 50 48 47 48 46 45 46 48 45 45 44 44 43 40 37 34 32 29 23 24 26 27 26 26 25 25 25 24 23 22 22
51 49 48 48 50 51 49 49 47 48 47 49 51 50 49 48 47 47 49 47 47 45 44 43 41 38 34 32 27 23 22 24 27 27 27 27 26 26 26 26 24 23 23
51 49 50 51 51 49 47 48 49 48 48 48 48 49 50 49 49 49 49 47 46 45 44 43 40 36 33 31 22 20 22 26 28 27 31 28 28 28 29 26 24 24 23
49 49 49 48 47 47 45 45 46 47 46 47 49 49 50 51 49 47 47 47 46 45 44 42 39 36 35 31 23 24 22 19 23 25 25 28 29 29 26 24 24 23 23
45 45 44 44 44 43 43 43 42 44 46 47 46 49 47 46 46 46 47 47 46 45 42 40 38 37 33 28 25 21 16 13 20 25 27 25 28 27 26 23 24 22 22

GFSGL_sfc_30mbdewp_012.txt.gz
Dewpoint
74 74 74 74 74 73 73 71 72 69 68 70 70 69 68 66 66 66 63 62 63 62 61 61 60 61 60 59 61 58 55 53 54 53 54 55 55 56 58 59 61 60 60
73 73 74 74 74 74 73 73 72 73 71 69 70 69 68 65 67 64 63 60 64 63 63 62 59 60 61 61 62 60 59 60 57 55 57 57 59 60 60 57 60 58 57
72 72 73 73 74 73 74 73 74 72 71 69 70 69 68 65 66 65 64 64 63 61 61 60 60 61 62 61 62 60 60 60 60 57 56 56 56 56 56 58 57 60 60
70 70 71 72 73 73 73 74 73 73 72 71 70 69 69 65 65 64 65 65 64 62 63 62 61 62 62 61 61 62 62 61 60 58 59 57 57 57 58 57 55 57 58
67 69 70 72 72 73 73 74 74 74 74 73 71 70 69 66 64 65 65 65 65 63 65 62 61 63 63 63 63 62 62 61 58 55 53 54 55 54 55 56 56 57 57
63 66 68 71 72 72 73 73 74 74 74 73 72 69 69 66 61 62 65 64 65 64 64 63 61 61 60 61 62 61 62 59 57 56 56 54 56 57 58 57 57 55 54
64 66 67 70 72 73 73 73 73 74 74 73 73 69 68 66 59 59 63 64 61 63 64 63 62 61 63 63 61 60 60 60 59 57 56 57 58 59 58 58 57 57 55
66 67 68 70 72 73 73 73 73 74 74 73 71 68 66 64 61 60 60 61 60 63 63 63 62 62 63 62 61 62 62 61 62 61 60 59 60 60 59 57 54 54 54
65 71 69 74 74 74 74 74 74 74 72 71 69 66 64 64 62 61 60 61 60 62 62 63 63 64 64 62 62 61 59 61 62 59 60 60 58 53 53 53 52 51 50
69 70 73 74 74 74 74 74 72 71 70 69 67 65 64 65 65 62 60 62 60 62 63 62 62 63 63 62 61 60 59 59 59 59 58 55 54 54 53 54 53 52 51
71 72 73 74 74 74 74 72 70 70 70 68 66 65 65 65 66 61 60 63 62 62 63 63 63 63 61 59 58 60 58 54 55 55 54 52 51 53 54 56 57 55 53
72 72 73 73 72 72 71 70 70 70 68 67 65 65 66 66 64 61 59 60 63 63 62 63 62 59 57 56 52 52 50 49 51 51 50 49 50 47 47 48 49 50 50
71 72 72 72 72 71 70 70 69 69 67 66 66 65 66 65 66 61 60 59 59 60 62 59 57 55 54 51 49 48 48 49 50 50 50 48 45 47 47 47 50 52 53
72 72 71 70 70 70 70 69 67 66 65 64 64 64 64 66 65 63 61 59 58 56 54 54 53 52 50 51 51 48 49 52 51 51 48 47 48 44 43 44 42 40 37
70 69 69 68 68 66 61 62 65 59 60 65 64 64 62 62 63 61 59 59 59 58 56 55 52 52 52 52 52 53 53 53 52 51 46 46 42 42 41 41 38 36 37
68 68 67 67 66 63 60 57 51 52 52 53 55 61 55 56 56 55 55 53 52 53 55 55 53 53 51 50 53 53 53 52 51 46 45 43 42 40 39 37 37 38 37
67 67 66 65 65 64 62 60 56 51 49 51 53 55 55 52 50 48 47 47 47 48 51 49 48 48 47 47 46 45 44 45 45 43 42 41 37 37 36 36 36 36 37
66 65 64 63 63 63 63 61 60 57 54 53 48 50 46 45 44 45 46 47 46 45 46 46 46 46 45 45 44 43 43 43 41 39 35 33 35 36 34 34 34 33 32
63 61 60 59 61 62 59 58 57 57 55 52 49 47 43 43 42 42 43 49 48 47 48 46 44 43 43 43 43 44 43 40 36 33 34 37 36 33 33 33 31 30 30
62 58 58 57 55 55 55 53 53 54 54 52 51 50 47 45 46 47 47 48 49 47 45 44 43 44 44 44 44 43 39 37 34 36 36 33 34 33 31 31 29 30 30
55 56 54 55 54 52 52 51 50 50 53 53 52 50 48 49 49 49 49 50 49 47 46 45 45 45 44 44 43 39 35 31 30 31 31 31 32 31 32 30 29 29 28
52 53 52 52 53 52 51 51 48 47 51 54 52 49 47 49 49 50 50 49 49 48 47 47 45 45 43 39 37 35 31 28 28 31 30 30 30 30 31 30 31 29 28
51 50 49 53 52 51 50 49 51 49 52 50 50 48 47 49 50 48 49 50 48 48 47 45 45 43 40 37 33 29 26 27 31 31 31 32 31 31 31 32 30 28 28
51 52 52 54 53 53 51 53 52 49 52 50 50 50 50 50 50 50 51 50 49 48 47 46 44 41 39 35 33 27 30 34 30 31 31 29 31 32 32 32 29 27 29
51 53 55 53 51 50 48 49 52 47 47 47 50 50 51 51 50 50 50 49 48 47 47 46 44 41 39 37 33 25 19 20 26 20 25 29 30 33 33 26 28 27 27
49 49 48 46 45 46 45 44 45 47 47 46 46 47 49 49 49 49 49 49 48 47 47 46 45 41 37 35 30 21 17 18 24 20 24 26 28 33 30 27 28 27 26

GFSGL_sfc_30mbdewp_015.txt.gz
Dewpoint
73 72 74 73 73 72 72 71 69 69 69 69 69 69 67 66 66 66 64 62 63 61 62 60 62 61 59 58 61 58 55 56 54 53 55 57 58 56 56 59 59 60 59
73 73 73 74 74 73 71 71 72 69 70 70 69 69 68 66 65 66 64 62 61 63 61 61 59 60 60 58 61 60 61 60 57 54 57 56 56 57 59 59 58 58 60
73 73 73 73 74 73 72 72 72 71 70 70 70 68 68 67 66 66 64 62 63 62 63 61 60 59 58 60 60 60 61 60 60 58 57 58 57 58 56 56 58 58 60
73 73 73 73 73 73 73 72 72 73 72 69 69 69 68 67 65 66 64 63 62 64 63 63 62 60 59 62 61 61 60 60 60 58 58 58 58 57 58 57 55 57 56
72 73 72 73 73 73 73 74 72 72 72 72 69 69 69 68 65 65 65 64 63 63 63 63 62 62 61 62 62 60 61 61 60 59 57 55 54 54 55 56 57 57 57
70 71 71 72 72 73 73 73 74 73 73 72 71 70 69 68 66 65 65 65 65 64 63 64 63 62 63 63 63 62 62 60 60 58 56 55 54 56 57 57 57 56 54
68 70 70 70 72 72 73 73 74 74 73 74 72 71 69 69 66 64 65 65 64 64 64 64 64 62 61 61 61 61 61 61 61 58 56 56 55 56 58 57 56 56 56
65 68 69 70 71 72 72 73 72 74 73 74 73 72 70 68 64 63 62 64 64 64 64 64 63 62 62 63 63 62 61 61 61 61 59 58 59 59 60 58 57 56 54
64 66 68 69 70 72 72 72 73 74 74 74 72 70 67 67 64 61 60 60 61 61 63 64 64 63 63 62 61 61 61 61 61 61 62 62 60 60 60 57 53 52 50
62 65 67 68 70 72 72 73 74 74 72 72 69 68 66 64 62 61 60 60 60 61 61 63 62 63 63 62 61 60 58 58 59 58 57 57 56 54 54 54 52 51 51
62 72 69 71 73 73 74 73 72 71 71 69 68 66 64 64 64 61 60 61 61 61 61 62 62 62 62 62 61 60 60 56 54 51 50 51 51 51 52 53 55 54 52
72 73 75 75 75 74 73 71 70 70 69 67 66 65 65 65 65 63 62 60 63 62 62 62 62 62 60 60 59 58 54 51 49 49 50 50 50 48 48 48 50 54 56
73 74 73 73 72 71 70 70 69 69 68 67 65 65 65 66 64 63 60 58 60 62 62 62 59 59 59 58 56 53 51 49 48 49 49 50 47 47 46 44 44 43 41
72 72 71 71 70 70 70 69 68 67 67 66 65 65 65 65 64 62 60 58 58 58 58 57 57 56 55 54 51 50 49 48 49 50 50 49 49 42 41 44 40 38 35
70 69 69 69 67 62 58 61 64 59 63 64 65 65 64 64 65 63 61 60 59 56 55 54 53 52 51 50 51 51 50 49 50 53 52 47 41 40 41 40 39 35 35
68 68 67 64 62 60 59 56 50 52 52 57 63 63 57 63 62 59 59 59 58 56 56 54 52 52 52 53 53 52 53 53 53 51 44 42 41 41 37 37 38 36 36
67 67 66 64 63 61 60 58 56 51 50 52 54 55 56 57 55 55 54 52 51 56 55 55 52 50 50 51 53 52 51 53 50 44 37 33 33 33 35 37 34 35 35
67 66 65 64 63 62 61 59 56 55 54 53 48 50 51 51 49 49 47 48 49 48 50 49 47 46 46 44 43 43 43 41 39 34 32 32 32 36 35 33 32 34 31
66 66 65 65 64 63 62 60 57 56 54 52 49 47 43 44 45 45 46 51 49 48 46 45 48 44 44 45 45 44 41 38 35 33 31 34 38 35 32 30 32 31 30
63 64 64 63 65 64 63 61 60 58 54 51 51 50 45 45 47 47 46 47 47 48 49 46 44 44 43 44 44 41 39 37 35 35 38 37 35 32 29 31 32 29 30
60 58 56 58 62 60 56 55 58 57 53 52 52 51 48 49 48 48 46 47 47 49 47 46 45 44 44 44 43 40 37 34 31 35 32 30 31 30 33 31 30 31 32
57 56 54 56 55 55 53 52 55 56 54 53 52 50 47 49 50 49 49 49 49 51 49 46 46 45 45 44 40 34 30 28 32 33 31 31 30 32 33 31 32 33 30
55 54 54 54 52 52 53 53 53 55 54 54 54 49 47 48 51 52 52 52 51 49 48 47 46 44 41 37 33 28 25 31 34 34 32 31 30 31 34 32 32 31 28
55 55 55 53 54 54 53 53 52 52 52 52 51 49 48 48 52 51 50 49 48 48 48 47 45 40 36 34 32 32 34 32 31 26 24 26 28 30 32 33 28 28 28
54 54 55 54 53 52 52 53 52 52 52 52 51 50 49 50 51 51 51 51 50 49 48 46 44 41 36 28 23 22 24 22 19 22 27 27 26 27 30 31 27 30 29
51 52 53 52 50 50 49 48 45 52 52 53 52 52 51 52 51 50 50 49 48 48 47 46 45 41 37 30 24 20 19 20 19 18 19 21 24 29 33 29 27 29 29

GFSGL_sfc_30mbdewp_018.txt.gz
Dewpoint
71 71 70 70 69 71 71 71 70 70 69 69 68 67 66 64 63 65 64 64 61 61 63 61 61 60 59 59 60 58 56 57 54 53 55 55 58 58 56 57 60 59 58
71 71 71 71 71 70 70 71 71 70 69 69 69 67 66 65 65 63 64 63 63 61 61 62 60 60 61 60 58 59 57 58 56 54 55 56 56 56 58 59 59 59 59
71 71 72 72 72 71 70 70 71 70 69 69 68 68 67 66 65 65 64 63 62 62 62 60 60 60 58 60 59 59 60 59 59 57 56 58 57 57 57 57 57 58 58
71 71 71 72 72 72 72 71 70 71 69 69 68 68 68 67 66 65 65 63 62 62 62 63 61 60 59 58 59 59 60 60 60 59 58 57 58 58 57 56 56 56 56
71 71 71 72 73 73 73 72 71 71 71 70 69 69 68 68 67 65 65 63 62 62 63 63 63 62 61 60 59 60 61 60 60 59 58 57 55 55 54 55 56 57 57
71 71 72 72 72 72 73 73 72 71 72 71 69 69 68 67 67 65 65 64 63 63 62 62 63 63 63 62 60 61 61 60 60 59 58 56 56 55 56 56 56 56 54
70 72 72 72 72 72 72 73 73 72 71 72 70 69 68 68 67 65 65 65 64 64 62 62 63 64 63 63 63 62 63 63 61 58 60 58 56 56 56 56 56 56 55
70 71 72 72 72 72 73 73 73 73 72 72 71 70 69 69 68 64 65 66 65 65 64 64 64 64 64 63 62 61 61 61 60 62 61 60 59 58 58 58 58 57 55
68 70 71 72 71 72 72 72 73 73 73 73 73 72 70 70 67 64 65 65 65 64 64 65 65 64 63 63 62 61 60 61 63 62 62 61 60 60 60 59 57 55 52
66 68 70 71 71 71 72 72 72 73 73 74 73 72 71 67 63 64 65 63 62 62 62 62 63 63 62 62 62 61 59 57 59 59 56 56 56 56 55 56 54 52 51
65 66 69 70 70 71 72 72 73 73 73 72 70 68 67 67 64 63 61 60 60 60 60 61 62 61 62 61 61 61 59 60 58 54 51 50 51 51 50 52 54 53 51
64 65 67 68 69 71 72 73 73 72 71 68 67 67 67 66 65 63 60 60 61 61 61 62 62 61 60 60 61 61 60 57 52 49 48 48 49 50 45 48 46 50 54
63 66 67 68 70 73 72 72 71 70 68 67 66 66 65 64 63 63 61 60 60 63 62 62 61 59 59 59 59 59 55 52 49 47 47 49 50 47 46 43 44 43 42
67 72 73 73 72 72 71 70 70 68 67 66 65 65 65 65 63 61 60 58 58 61 61 59 58 57 57 56 56 54 52 50 48 48 49 50 50 43 40 43 38 38 36
72 72 71 70 69 64 59 64 67 65 67 66 65 64 64 64 63 62 61 60 59 58 57 56 56 55 55 53 52 51 49 49 49 50 51 51 45 41 40 40 38 37 35
70 69 66 63 62 60 60 58 51 55 62 64 64 64 62 64 63 61 60 59 58 55 55 53 53 52 51 50 50 50 51 51 50 51 50 45 41 40 36 36 38 35 34
68 65 64 63 63 62 61 59 56 52 52 59 62 62 62 62 61 58 57 56 56 55 55 54 53 53 53 52 53 52 51 52 52 47 39 33 33 33 34 36 34 33 32
66 65 64 64 63 62 60 58 56 56 57 55 49 53 57 59 57 54 51 51 55 54 54 54 52 49 49 49 48 46 45 40 36 34 33 32 33 36 35 32 31 32 32
65 64 64 63 62 61 59 57 56 55 55 53 50 49 45 48 49 48 49 51 51 50 49 48 48 46 45 44 44 43 41 39 36 34 32 32 35 34 32 30 31 32 31
65 64 64 63 63 62 60 58 57 55 53 51 52 51 46 48 50 50 49 51 50 49 48 48 46 45 44 43 42 40 39 37 34 33 33 36 34 33 30 31 31 30 32
63 63 64 64 64 63 62 60 58 56 54 53 52 50 48 52 51 51 50 49 48 47 48 45 43 43 44 44 42 40 37 35 32 32 34 31 31 29 33 32 31 32 32
59 58 59 64 64 63 63 61 60 57 55 52 52 50 48 50 50 50 49 48 47 48 47 45 44 44 44 44 43 40 35 31 31 33 31 31 31 31 33 33 32 32 29
56 56 56 56 58 58 58 59 60 57 55 54 53 50 48 50 50 49 49 49 48 49 50 47 46 45 45 45 40 34 29 30 33 33 32 30 29 30 32 31 32 28 28
56 55 54 54 54 54 54 55 56 55 55 55 53 51 49 49 50 51 50 51 51 51 49 48 46 42 39 36 31 28 30 34 34 32 29 25 22 27 29 31 31 27 29
55 54 55 55 54 53 53 53 54 54 54 54 52 50 49 49 50 51 51 52 51 50 48 48 44 41 35 30 29 31 32 30 24 22 24 25 23 23 29 33 30 29 28
55 55 54 53 53 52 51 52 52 52 52 52 51 50 50 49 50 51 51 50 48 48 48 46 39 35 30 28 27 28 25 22 21 21 19 19 18 25 30 33 30 27 24

GFSGL_sfc_30mbdewp_021.txt.gz
Dewpoint
68 69 68 69 69 69 68 68 69 70 70 69 70 69 67 65 64 64 64 63 62 62 62 61 59 59 58 59 59 58 56 54 51 53 56 55 55 56 57 56 57 58 59
67 68 68 69 69 70 69 69 69 69 70 69 69 68 67 65 63 64 64 64 62 61 61 62 61 61 60 59 58 58 56 56 55 52 54 56 56 56 57 58 58 59 58
67 68 68 68 69 69 70 69 70 70 69 69 69 68 67 66 65 63 64 63 63 62 61 60 61 61 60 60 60 59 59 59 59 57 55 57 57 58 57 57 56 57 58
67 68 69 69 69 69 69 69 70 71 69 69 69 68 68 67 66 65 63 63 63 63 63 61 60 61 60 59 59 59 59 59 59 58 58 58 58 58 57 56 55 56 56
67 68 69 69 70 70 70 69 69 70 70 69 68 68 68 67 66 65 65 64 63 63 62 63 62 62 61 60 59 59 59 59 60 59 58 58 57 55 56 56 55 55 57
67 68 69 70 70 71 71 71 70 70 70 69 69 68 68 68 67 66 65 65 64 64 63 63 63 63 63 62 61 60 60 59 59 59 58 56 55 57 57 57 56 55 54
68 68 69 69 70 71 71 71 71 70 70 70 69 69 68 68 67 66 65 66 65 64 63 63 63 63 63 63 63 62 61 61 61 60 55 55 57 59 58 56 56 56 55
68 69 70 70 70 71 72 72 72 71 71 71 70 69 69 69 67 65 65 66 65 65 64 64 63 62 63 63 63 62 62 62 62 62 59 59 60 60 59 58 57 57 56
68 69 70 71 71 71 71 72 72 72 71 71 71 70 70 70 68 66 64 66 66 65 65 65 64 63 63 63 63 61 61 61 63 62 61 62 62 61 60 59 56 55 53
68 69 70 71 71 71 71 71 72 72 72 72 71 71 71 70 68 66 65 66 65 65 65 65 64 64 64 63 63 61 60 60 60 59 59 57 55 53 54 56 54 52 51
67 69 70 71 71 71 72 72 72 72 73 72 72 72 71 69 66 63 65 66 65 65 63 62 62 61 61 61 62 61 60 60 59 57 54 51 50 50 50 51 53 52 50
65 67 69 70 71 71 72 72 72 72 72 72 71 70 69 67 63 62 65 65 62 61 60 61 62 61 60 59 60 61 60 59 55 52 49 47 48 49 46 47 45 49 53
64 65 67 70 71 71 72 72 72 72 72 69 69 68 66 66 64 63 64 60 60 61 62 62 61 59 58 58 58 59 59 56 52 49 46 47 49 50 47 42 43 41 40
63 64 66 69 70 71 72 72 72 72 70 69 68 66 65 65 63 61 61 58 58 61 60 58 58 58 58 58 56 56 54 51 50 47 47 49 50 47 41 42 40 37 36
62 64 65 68 69 71 65 69 71 68 69 68 67 66 65 63 62 62 61 60 60 61 59 57 57 56 55 54 53 53 51 50 49 48 49 50 50 44 41 41 38 37 35
63 68 69 70 64 62 61 59 55 60 66 66 66 65 64 64 61 60 59 59 57 57 58 57 56 54 54 53 51 50 50 50 49 49 50 50 46 41 39 35 37 35 32
70 68 65 64 64 65 65 63 61 61 55 59 64 63 63 61 60 58 57 57 56 57 57 55 54 52 51 51 51 51 51 51 51 51 48 43 37 33 33 35 34 32 30
64 64 65 65 64 63 62 60 59 58 59 58 53 59 59 58 58 55 54 54 55 55 54 53 52 52 52 51 51 51 49 48 48 42 34 32 32 34 35 32 31 30 31
65 64 63 62 62 60 60 60 60 60 59 55 54 53 51 53 54 54 55 55 55 54 53 53 53 50 49 49 47 45 42 39 37 35 34 31 33 36 32 30 30 32 32
56 63 63 62 60 60 58 58 58 58 57 56 57 56 49 52 53 52 52 54 54 53 50 49 48 47 45 44 43 41 40 38 36 35 34 34 35 34 29 31 31 30 31
61 63 62 62 61 59 58 57 56 56 55 55 55 52 52 55 53 51 51 51 51 50 49 48 46 45 44 43 42 41 39 37 34 32 32 36 32 29 32 32 32 32 31
63 64 63 63 62 61 60 58 56 55 54 54 52 48 49 53 53 52 51 51 50 48 48 47 45 44 44 43 42 41 39 35 32 31 33 31 31 31 33 32 32 31 28
59 61 62 63 62 61 61 60 58 56 54 53 51 49 49 51 52 51 51 50 49 47 48 46 45 45 45 45 44 42 38 34 32 34 32 31 30 30 31 31 31 28 27
56 57 58 59 60 60 60 60 59 57 55 54 52 51 50 50 50 50 50 50 49 49 50 47 46 45 45 45 43 38 33 32 33 33 32 31 28 27 29 30 31 27 28
55 55 55 55 56 56 56 56 56 56 56 55 53 52 51 50 51 51 51 50 51 50 49 49 47 45 43 41 37 31 29 32 33 32 29 24 23 22 24 31 31 28 27
55 55 54 54 53 53 54 54 54 55 55 54 53 52 50 50 50 51 51 51 51 51 49 48 46 42 39 34 31 30 31 30 28 24 23 23 21 20 28 33 33 28 25

GFSGL_sfc_30mbdewp_024.txt.gz
Dewpoint
68 68 68 68 68 68 68 67 67 68 69 70 70 70 69 68 66 65 63 63 62 62 62 60 60 60 59 59 59 58 56 54 52 54 56 57 56 57 58 59 59 60 60
67 68 68 68 68 68 68 68 69 68 69 69 70 70 69 68 66 66 64 63 62 62 62 62 61 60 59 59 59 59 58 58 56 54 55 56 57 58 58 59 59 59 59
65 68 68 68 68 68 68 68 69 69 69 69 69 69 69 68 66 66 65 64 63 63 62 62 62 61 60 60 60 59 59 58 58 56 56 58 59 59 59 59 58 58 59
64 66 67 68 68 68 69 69 69 69 69 69 69 69 69 68 67 65 65 65 64 64 64 62 62 61 61 61 61 60 60 60 60 59 59 59 59 59 59 57 56 58 57
64 65 66 67 68 68 69 69 69 69 69 69 69 69 69 68 67 66 65 65 64 64 64 64 63 62 62 62 61 60 60 60 60 60 59 59 58 57 56 57 56 56 57
65 65 66 67 68 68 69 69 70 70 70 69 69 69 69 68 67 66 66 65 65 64 63 64 64 64 63 62 61 60 61 60 59 59 59 59 58 57 58 57 57 56 55
65 66 67 68 68 68 69 69 69 69 70 70 69 69 69 69 67 66 66 66 66 65 64 64 63 64 64 64 63 62 61 61 60 60 59 58 57 57 59 57 57 57 57
65 66 67 68 69 69 70 69 69 69 69 69 69 69 68 69 67 65 65 67 66 66 65 65 64 64 64 64 63 63 63 63 62 61 62 59 58 61 59 59 59 58 58
66 66 67 69 69 69 70 70 70 70 70 70 70 69 69 69 67 65 65 66 66 66 65 65 65 64 64 63 63 62 62 62 63 63 62 61 61 61 62 60 58 56 55
66 67 68 69 69 69 70 70 71 71 70 71 70 70 69 69 67 65 65 67 66 66 66 66 64 65 63 62 63 63 62 61 61 62 61 59 58 56 57 59 56 52 52
65 68 69 69 70 69 70 71 71 72 71 71 71 71 70 70 69 66 64 67 67 66 65 65 65 64 63 62 63 63 62 61 61 60 58 55 52 51 52 53 55 53 51
66 67 69 69 70 70 70 71 71 72 71 71 70 70 71 71 70 63 63 67 67 66 65 65 64 62 61 60 60 62 60 59 58 56 54 50 49 51 49 50 51 53 54
64 67 69 70 71 71 71 71 71 72 71 71 70 70 69 69 63 63 64 66 65 65 64 63 61 58 57 57 59 59 59 58 55 53 51 49 50 52 50 47 47 47 45
62 65 67 69 70 71 72 71 71 71 71 70 70 70 69 65 64 62 63 62 62 61 60 59 59 58 59 59 58 56 59 56 54 52 49 49 51 50 47 44 43 41 38
63 63 65 68 69 71 67 69 71 72 71 71 70 69 66 65 65 63 61 60 61 60 59 58 58 58 57 57 57 57 55 53 51 50 50 50 51 49 46 44 41 40 38
68 63 64 67 69 64 62 60 60 64 66 64 64 63 61 61 59 61 61 59 59 58 60 59 58 57 56 55 54 54 53 51 51 50 51 51 50 48 44 40 39 39 36
68 67 66 68 65 63 65 64 61 58 60 59 59 59 60 61 62 62 60 58 57 59 60 59 58 57 55 54 53 52 51 52 52 51 51 50 47 42 37 36 38 36 34
69 67 67 66 65 67 65 64 62 60 58 58 57 57 56 57 59 58 54 54 57 58 59 58 57 55 53 52 52 52 52 52 52 51 49 44 38 36 37 37 35 34 34
62 65 65 66 66 62 61 60 60 60 59 57 52 51 53 53 52 52 55 60 59 58 57 56 55 53 52 52 52 52 50 49 48 45 39 36 37 38 37 35 33 33 34
62 60 61 62 62 61 60 60 60 60 58 56 58 53 48 52 54 55 57 57 57 56 54 54 53 53 51 51 50 48 44 41 40 39 38 36 36 37 35 33 34 33 34
60 62 62 61 60 60 60 59 60 59 58 58 60 55 57 59 56 56 54 55 55 54 53 53 52 50 49 49 46 44 42 41 41 39 38 37 38 36 34 35 34 34 34
61 62 62 60 60 60 59 60 60 59 59 58 56 52 54 55 54 54 53 54 54 54 53 51 48 48 47 46 45 43 42 41 40 37 36 36 36 34 35 35 34 33 31
62 63 62 61 61 59 58 58 58 58 57 55 54 54 54 55 54 53 53 52 52 52 51 50 49 47 47 46 45 44 42 41 39 37 35 35 34 34 34 34 33 32 30
59 60 61 61 60 61 60 58 57 56 55 54 53 54 54 54 54 53 53 52 51 50 50 49 48 46 47 46 45 43 43 41 38 37 37 34 33 32 32 32 32 32 30
56 57 59 60 60 59 59 59 58 57 56 56 54 53 52 52 51 52 52 52 51 50 50 49 47 47 47 46 44 43 39 35 35 35 36 35 32 30 27 27 32 31 31
56 56 55 55 56 58 58 57 57 57 57 56 55 54 53 53 52 53 52 51 51 50 50 50 49 47 47 46 44 41 32 30 33 33 33 30 28 26 26 29 34 33 30

GFSGL_sfc_30mbdewp_027.txt.gz
Dewpoint
69 69 69 69 69 70 69 70 70 70 70 70 71 71 71 71 71 70 69 67 66 66 64 64 64 64 61 61 60 59 58 57 53 54 56 60 61 59 58 60 60 60 59
68 69 69 69 69 69 69 69 70 70 70 71 71 71 71 71 71 70 69 68 67 66 65 64 64 63 63 62 61 61 59 59 56 57 57 58 60 61 62 62 60 57 59
67 68 69 69 69 69 70 70 70 70 70 70 71 71 71 70 71 70 70 69 67 67 66 65 64 63 63 59 60 59 58 60 60 57 56 59 59 60 60 62 62 60 60
65 67 68 69 69 69 70 70 70 71 70 71 71 71 71 70 70 70 70 69 69 68 67 66 65 64 63 64 62 62 61 60 60 59 58 57 59 60 60 58 57 59 57
65 66 68 69 69 70 70 70 70 71 71 71 71 71 71 70 69 70 69 69 69 68 68 67 66 65 64 64 61 62 62 62 59 59 59 59 58 59 58 58 56 56 58
65 66 67 69 70 70 70 70 71 71 71 71 71 71 71 70 69 68 70 69 69 69 68 68 67 66 64 62 62 63 64 63 61 59 58 58 60 61 60 57 56 56 53
66 66 67 69 70 70 70 71 70 71 71 71 71 71 71 71 67 67 67 69 69 69 69 68 67 66 65 64 63 61 61 62 62 63 61 61 62 61 60 60 59 57 57
65 66 67 68 69 70 70 70 71 71 71 71 71 71 71 71 67 66 66 68 69 69 69 69 68 67 67 65 65 64 63 63 62 62 63 63 63 62 60 60 61 61 60
65 67 68 68 69 70 70 70 70 71 71 71 71 71 71 71 67 65 65 68 69 69 69 69 68 68 67 65 65 65 64 64 64 63 64 63 61 61 61 61 59 57 53
65 67 68 69 69 69 70 70 71 70 70 70 71 71 71 71 68 65 65 67 68 68 69 69 66 67 66 63 65 65 64 64 64 63 63 62 61 62 61 62 56 51 47
65 66 68 70 70 70 70 71 71 71 70 70 70 71 71 71 71 65 64 69 67 68 68 68 68 64 64 62 63 66 65 65 64 63 62 62 60 59 56 56 55 51 47
65 67 70 70 70 70 71 71 72 71 71 71 71 70 71 71 70 65 63 66 69 68 67 67 68 63 62 61 61 65 64 63 62 60 59 57 56 51 50 53 54 53 50
66 68 70 71 71 71 71 71 71 71 70 70 70 70 70 71 71 67 63 63 68 68 68 68 67 62 61 59 61 61 60 61 60 57 56 55 52 50 52 53 52 52 52
67 68 69 71 71 72 71 71 70 70 69 67 70 70 70 70 70 62 62 63 66 67 65 62 60 61 61 61 58 59 62 61 59 57 56 53 51 52 50 49 47 46 44
67 66 68 69 70 71 71 71 71 71 71 70 70 70 70 67 63 62 63 63 63 61 59 60 60 60 60 60 61 61 61 59 58 56 54 51 50 50 50 49 48 46 41
65 66 65 65 66 69 71 69 62 64 69 69 71 71 69 62 58 59 60 60 60 61 61 61 61 60 60 59 59 59 58 58 57 55 52 50 50 50 50 48 45 41 39
64 65 66 66 65 69 67 68 66 59 59 66 66 64 61 57 58 59 58 58 58 61 61 62 61 60 59 58 58 57 56 56 56 53 51 51 51 51 48 44 41 39 35
64 62 64 67 68 67 67 66 62 63 61 57 56 58 56 55 55 56 56 58 58 61 62 62 61 60 59 57 56 56 55 55 53 52 52 52 51 48 43 40 38 35 33
63 62 63 62 62 63 65 65 64 61 59 59 54 54 53 54 53 53 56 59 59 60 61 61 61 59 58 56 54 53 53 53 53 52 51 48 45 42 40 38 34 32 33
62 61 61 60 59 57 59 60 60 61 59 56 57 56 51 54 55 56 61 61 61 61 61 61 60 59 56 54 54 54 52 51 51 49 45 43 41 39 36 34 32 31 31
60 62 62 62 61 61 58 59 59 59 59 60 58 55 55 58 56 58 60 61 61 61 61 60 59 56 55 54 53 51 48 45 45 43 42 41 39 35 35 33 31 30 29
62 62 62 60 60 61 60 61 61 60 59 58 55 53 55 60 60 60 60 60 59 59 59 57 55 54 53 52 51 47 44 43 43 42 41 39 37 35 34 32 31 31 29
63 62 61 61 60 59 60 60 59 58 57 56 56 57 59 60 59 58 56 55 56 55 55 55 54 52 51 50 48 46 44 43 43 42 40 38 36 34 33 32 31 29 27
62 62 61 61 61 60 60 59 58 57 57 58 58 58 57 56 54 54 54 54 54 54 54 53 51 48 49 48 47 45 45 44 43 42 40 38 36 34 32 31 28 25 25
56 57 59 61 61 60 60 59 58 57 57 57 56 56 56 57 55 54 54 54 54 54 53 51 50 49 49 48 46 45 44 43 42 40 40 37 34 34 31 28 25 25 26
52 52 53 55 57 58 58 59 59 58 57 56 55 55 55 55 55 55 55 54 53 52 51 49 49 49 49 49 47 45 40 38 38 35 36 34 33 32 28 27 25 25 26

GFSGL_sfc_30mbdewp_030.txt.gz
Dewpoint
69 70 70 70 71 72 71 72 72 71 71 71 70 70 69 71 72 72 71 68 70 68 66 63 64 62 56 55 57 56 55 55 52 51 54 57 61 61 57 58 58 57 56
68 71 71 71 71 70 72 72 73 72 72 72 72 71 70 70 71 72 71 68 69 69 68 67 64 63 64 60 57 59 56 55 53 54 54 57 61 61 60 61 59 56 55
68 68 69 70 70 71 72 72 72 73 73 70 72 72 71 70 71 71 71 71 69 70 69 68 66 63 63 59 60 56 57 58 58 55 53 57 56 59 61 62 60 60 58
64 66 68 70 70 71 72 72 72 73 73 72 72 73 72 71 70 70 70 70 70 69 70 69 67 66 64 64 61 61 58 56 57 57 54 53 57 57 58 55 57 60 57
64 64 67 70 71 71 72 72 72 73 73 73 73 73 73 70 69 71 71 70 70 70 70 70 69 68 66 65 63 62 61 61 54 55 56 54 55 55 57 56 56 58 56
64 65 67 70 71 72 72 72 73 73 73 73 72 73 72 70 68 68 71 69 71 71 70 70 70 68 67 64 64 63 63 62 61 55 55 55 57 58 58 58 56 54 52
65 67 68 70 71 72 72 73 73 73 73 73 73 72 73 72 67 66 68 69 70 71 71 70 69 69 68 67 64 63 62 64 63 62 60 59 58 61 62 60 59 58 57
67 67 69 70 71 72 73 73 73 73 73 73 73 73 73 73 70 66 67 69 70 70 70 71 71 70 69 68 67 65 63 63 63 62 62 62 63 63 64 62 61 60 60
67 68 69 70 70 71 72 72 73 72 72 72 72 73 73 73 70 67 66 69 69 71 71 71 71 71 70 67 68 67 66 65 64 63 63 64 64 63 62 60 58 59 56
66 67 68 70 70 70 72 72 72 72 71 70 71 72 72 73 71 66 66 68 68 68 71 72 69 71 69 66 67 67 67 67 66 64 64 63 62 62 60 61 58 55 52
64 65 68 70 71 71 72 73 73 72 70 72 71 71 73 73 73 66 65 69 67 67 65 68 69 68 66 65 66 68 68 68 66 65 64 63 63 62 61 61 59 52 47
65 65 68 70 69 69 72 73 72 72 72 71 71 71 71 73 71 67 65 66 69 67 67 66 68 66 64 63 63 67 67 66 67 64 62 61 60 59 58 56 54 52 49
65 67 68 70 70 71 72 73 71 72 69 70 68 70 68 71 72 69 64 63 65 68 66 68 68 64 62 61 63 63 64 65 63 61 60 60 58 57 53 54 56 56 55
66 67 68 69 70 70 69 70 69 68 70 68 68 68 68 70 71 71 67 63 64 65 66 66 64 62 62 62 61 62 66 63 61 60 59 59 57 53 52 51 49 49 47
67 68 68 68 69 70 71 68 68 69 68 69 68 68 67 68 70 71 67 65 66 66 62 62 61 62 62 61 63 64 64 62 61 61 59 57 54 53 50 49 48 48 47
65 65 63 63 65 67 67 69 65 66 66 67 68 67 64 67 66 65 63 63 61 61 63 62 62 62 61 62 63 62 63 62 61 59 57 55 53 50 49 50 49 48 44
64 64 62 63 60 60 63 65 65 68 63 64 65 67 69 64 63 61 60 58 60 63 64 63 62 62 61 62 63 63 62 61 60 57 56 54 50 50 50 50 48 45 42
64 62 63 63 63 64 67 68 68 70 69 69 66 60 62 60 60 59 58 58 58 63 64 62 62 62 62 62 63 62 60 58 58 56 54 51 50 50 50 47 44 41 39
58 61 60 60 62 64 63 62 63 63 62 60 56 55 52 56 55 55 56 60 59 62 64 63 63 63 63 62 61 59 58 57 56 54 51 51 50 49 46 43 41 36 34
60 60 60 59 57 59 61 61 60 59 58 58 58 56 53 52 53 55 60 62 62 64 64 63 63 63 62 60 59 57 57 55 53 53 51 49 47 45 42 40 37 33 33
59 60 60 58 59 59 58 57 59 59 60 60 56 55 56 57 58 60 62 62 62 63 64 63 63 62 62 60 57 55 53 52 52 50 47 46 44 41 39 36 33 32 30
61 60 59 57 58 58 59 59 58 58 59 59 58 55 56 59 59 60 62 62 62 62 62 63 62 61 59 57 56 53 51 49 48 46 44 43 42 40 36 33 31 30 29
60 61 61 61 60 59 58 59 60 59 59 58 58 57 59 60 59 61 62 63 63 63 64 63 61 58 57 55 53 50 47 45 45 45 43 42 40 38 36 33 31 29 29
59 60 59 60 60 60 60 60 59 58 59 59 59 60 61 61 60 61 61 61 61 60 59 57 55 53 54 52 50 47 45 45 45 44 43 41 39 37 36 34 30 29 28
54 56 59 59 60 59 59 59 58 59 58 57 57 58 58 56 57 55 54 54 54 55 53 52 51 50 51 48 46 45 44 44 44 43 44 41 40 38 36 32 30 28 26
48 49 51 53 56 57 57 58 58 58 57 57 57 57 56 57 56 55 54 53 53 51 51 49 48 48 49 48 46 44 41 42 43 42 43 41 38 35 34 32 29 27 25

GFSGL_sfc_30mbdewp_033.txt.gz
Dewpoint
71 72 72 73 73 74 72 73 73 72 72 71 72 71 72 72 72 73 72 70 71 71 68 66 66 66 56 54 56 55 54 54 51 50 53 59 59 60 59 59 59 59 58
71 71 72 72 73 73 74 72 74 73 73 73 73 73 72 72 72 73 73 67 71 71 70 68 66 64 66 64 57 59 56 57 54 58 55 58 62 63 63 63 60 56 56
68 70 71 72 72 72 73 74 73 74 74 73 73 73 73 72 72 74 73 72 71 71 71 71 69 67 66 61 61 57 57 58 58 57 54 56 57 61 62 64 63 62 60
64 66 69 71 72 72 72 74 74 74 74 74 73 74 74 74 73 73 73 73 72 71 72 72 71 69 67 67 65 63 61 58 58 57 55 53 54 58 59 58 58 61 60
64 65 68 71 72 72 72 73 74 74 74 74 74 74 74 74 72 72 72 72 73 72 72 72 72 71 69 68 65 64 63 61 54 54 56 56 54 55 58 58 58 56 58
65 65 68 70 72 73 73 74 74 74 74 74 74 74 73 73 70 69 72 72 72 73 72 72 72 71 69 67 66 66 66 65 63 60 57 56 61 59 57 57 57 56 56
65 67 67 70 72 73 74 74 74 74 74 74 74 74 74 74 70 67 68 72 72 72 73 73 72 69 71 69 65 65 64 65 65 66 64 63 62 62 62 62 62 60 59
65 66 68 69 71 73 74 74 74 75 74 74 74 74 74 74 72 67 66 70 71 72 72 73 73 70 71 71 70 67 66 65 65 64 66 66 65 65 65 65 63 63 63
67 67 68 70 71 73 73 74 74 74 74 74 74 75 75 74 72 70 66 69 70 71 71 73 73 73 72 69 71 70 68 67 65 65 65 64 64 64 64 63 60 61 60
66 68 69 71 72 72 73 74 75 75 74 73 74 74 74 75 73 70 68 70 69 70 71 72 71 72 72 68 70 71 69 68 67 65 64 63 64 63 62 64 60 59 59
65 68 70 71 72 73 73 74 75 75 73 74 73 73 74 74 75 70 67 71 69 69 69 70 71 69 70 67 68 71 70 70 69 67 66 66 65 64 63 62 63 60 57
64 67 69 72 71 71 73 74 75 75 74 73 74 73 73 74 73 71 67 68 71 69 68 68 69 68 67 66 65 70 69 69 69 68 67 65 63 62 62 62 63 62 58
68 69 70 72 73 71 73 74 73 74 72 72 71 72 72 72 73 71 67 65 67 70 69 68 67 65 64 64 66 66 67 69 68 67 66 64 63 62 63 63 62 60 58
69 70 71 72 72 72 70 71 71 69 70 70 68 69 69 70 69 72 70 65 63 66 68 69 65 63 65 66 64 66 67 68 67 67 66 65 63 61 60 57 55 57 54
67 67 68 68 69 71 71 67 68 69 67 67 68 67 67 67 67 69 70 71 69 68 69 67 65 65 64 64 65 64 66 68 67 66 66 65 62 59 56 56 54 53 50
68 68 66 65 66 68 68 70 69 68 67 66 64 65 69 66 65 66 67 68 68 66 68 66 65 65 64 63 64 64 65 66 67 66 65 65 61 57 55 55 52 51 49
65 66 62 61 60 60 63 64 64 67 64 65 63 63 60 62 66 65 65 66 65 66 68 66 65 65 64 64 64 64 64 66 66 65 64 62 60 56 54 52 52 51 48
63 62 61 61 61 62 63 64 65 64 65 67 62 58 57 58 58 62 63 63 60 65 67 66 65 64 65 64 64 65 65 65 65 64 63 61 58 55 53 51 52 49 47
60 60 59 60 62 62 63 63 64 64 64 62 61 60 56 53 52 52 53 67 62 63 67 66 66 65 65 65 65 64 65 64 62 62 60 58 55 53 52 51 49 45 43
60 59 60 58 57 57 58 60 60 60 60 60 59 59 58 56 57 57 54 57 61 64 66 66 66 65 64 64 64 64 63 61 60 60 58 55 54 52 51 49 45 42 40
58 59 58 57 58 58 58 57 57 57 58 57 57 57 54 57 57 58 58 58 62 63 63 66 64 64 64 63 63 62 60 59 58 57 55 54 53 50 48 44 41 39 36
58 57 57 57 56 56 57 57 57 58 59 58 57 58 58 60 60 61 62 62 64 65 65 65 65 65 64 62 61 60 58 57 56 55 53 51 50 47 44 41 38 36 33
57 58 60 60 59 58 58 59 59 59 58 58 59 58 61 60 60 61 62 62 63 63 65 65 64 64 63 61 59 58 55 54 54 53 50 48 45 43 41 38 36 33 31
60 60 58 57 57 57 57 58 59 59 59 60 60 60 61 61 61 61 62 63 63 63 63 64 63 62 60 60 57 55 54 52 51 49 47 45 42 41 39 37 34 32 30
52 54 57 58 58 58 58 58 58 58 58 58 58 58 58 59 59 60 60 62 62 63 63 63 62 60 58 55 54 51 48 47 47 46 45 44 41 42 39 37 35 32 31
48 49 51 52 53 54 55 54 53 53 53 53 54 55 56 57 57 57 54 54 55 57 55 54 54 55 54 53 51 44 42 43 44 44 45 42 41 40 39 37 34 32 30

GFSGL_sfc_30mbdewp_036.txt.gz
Dewpoint
73 73 73 73 73 73 72 72 73 71 73 70 74 73 73 73 73 74 73 72 73 72 70 69 69 66 65 62 60 59 60 58 55 56 61 64 62 61 61 62 63 64 63
73 73 72 73 74 73 72 72 73 74 72 74 73 72 73 73 73 73 73 71 72 73 71 68 70 68 66 66 67 60 59 61 59 58 60 63 64 63 65 65 62 59 62
72 72 72 72 73 73 74 73 73 73 74 73 74 74 72 73 73 74 73 73 70 73 73 71 70 68 67 65 64 63 62 62 63 59 60 62 65 67 64 65 66 65 64
69 71 71 72 72 73 73 74 73 73 73 73 73 73 74 73 73 73 73 74 73 71 73 73 72 70 68 68 66 63 63 63 61 61 61 60 61 65 66 64 64 65 64
66 69 70 71 72 72 73 73 74 74 73 74 74 73 74 74 73 73 73 73 74 72 72 73 73 73 71 69 68 68 64 63 63 61 59 60 59 60 62 62 60 61 64
65 66 69 71 72 73 73 73 74 74 74 74 74 74 73 73 73 72 73 73 73 73 73 72 73 72 72 69 68 66 67 64 61 59 60 60 61 61 64 62 61 60 58
65 67 68 70 71 72 73 73 73 74 74 74 74 74 74 74 72 71 70 72 72 73 73 73 73 72 72 71 67 66 65 66 65 63 63 63 64 64 64 63 62 63 61
67 67 69 70 71 72 73 73 74 74 74 74 74 75 74 74 73 70 69 71 72 72 73 73 73 72 72 72 70 67 66 66 66 66 67 66 68 66 66 66 64 64 65
66 68 69 71 71 72 73 74 74 74 74 75 75 75 75 74 73 71 68 70 70 71 72 73 73 73 72 70 71 69 67 67 67 65 65 68 67 66 68 66 65 63 62
67 67 69 70 71 71 73 74 75 75 75 74 75 75 75 75 74 71 69 71 70 70 71 72 71 72 72 69 71 71 69 68 67 66 64 64 64 64 64 66 64 62 61
67 68 69 70 70 72 72 74 75 75 75 75 74 75 75 75 75 72 69 72 71 70 69 70 71 70 70 68 69 71 70 70 68 67 66 65 65 65 65 65 66 63 61
64 69 70 72 71 71 73 74 75 75 75 74 74 74 74 75 74 73 69 68 72 72 70 69 70 70 67 67 67 70 70 70 70 68 66 65 65 65 67 66 66 65 64
68 70 71 72 73 72 74 74 74 75 74 74 74 73 73 74 74 73 71 68 68 70 72 71 67 67 67 65 67 68 68 70 70 69 67 66 66 66 66 66 65 64 62
70 71 72 72 73 73 72 74 73 73 74 74 73 73 72 72 73 73 72 67 66 68 70 70 71 68 65 66 66 66 69 71 70 69 68 67 68 67 65 65 64 63 59
70 72 73 72 73 73 73 71 73 73 72 72 73 72 70 71 70 66 68 72 70 69 70 71 71 70 70 66 66 67 70 71 70 69 68 67 66 65 65 64 62 60 57
70 70 69 69 70 71 72 73 71 70 67 63 63 67 70 66 64 66 68 68 67 68 68 70 70 70 68 68 66 67 69 69 69 69 67 66 65 64 63 62 61 58 55
68 69 68 68 67 70 70 71 71 62 59 60 60 58 57 58 58 60 63 65 66 66 69 69 70 70 68 68 67 67 67 68 68 67 66 65 64 64 61 60 58 55 54
63 62 64 65 65 67 68 67 67 68 68 67 61 59 54 53 53 54 55 58 65 63 68 68 69 69 68 67 66 67 67 67 67 66 64 64 64 61 60 58 56 54 52
63 62 63 63 63 63 63 62 62 63 62 61 61 60 59 57 56 55 54 55 58 64 65 67 69 69 68 67 67 67 66 66 66 65 65 64 63 61 59 57 55 53 53
61 60 60 60 61 59 59 60 61 61 60 60 59 58 57 58 58 59 60 58 57 59 61 63 63 63 67 67 67 66 65 65 65 65 64 63 62 60 58 55 53 51 51
58 59 59 58 59 59 59 58 58 59 59 59 58 57 55 58 59 61 61 60 60 63 65 65 65 65 65 66 66 66 65 64 64 64 63 61 61 58 54 53 52 49 45
59 58 58 56 57 58 59 59 59 58 58 58 57 59 59 60 59 60 61 62 63 64 66 65 64 64 64 64 65 64 64 63 63 61 60 58 56 54 53 52 51 47 44
58 58 59 59 59 59 59 59 58 58 59 59 60 60 60 60 60 60 61 62 63 64 64 65 65 65 66 66 65 64 63 62 62 61 58 55 54 53 51 48 44 43 41
59 59 59 59 58 58 58 58 58 58 58 58 57 58 59 60 61 61 62 63 64 64 65 64 64 64 63 63 63 63 62 61 60 57 54 53 51 49 47 45 43 40 38
55 55 57 56 56 56 55 54 54 53 53 54 54 55 56 57 57 58 58 61 63 64 64 64 63 63 61 61 61 60 56 54 54 53 51 50 48 46 45 42 40 38 37
48 50 50 53 54 54 53 52 52 53 52 52 52 53 53 53 54 56 57 57 57 59 60 61 62 62 60 60 58 51 49 49 48 48 49 47 46 45 42 41 41 38 37

GFSGL_sfc_30mbdewp_039.txt.gz
Dewpoint
71 71 72 71 70 71 72 69 71 70 70 69 72 73 72 73 74 73 73 73 73 73 71 70 69 68 63 63 63 60 58 57 53 55 59 62 62 62 63 63 63 65 61
72 71 71 72 72 70 72 73 69 72 70 73 73 73 73 72 72 74 72 72 71 72 72 70 69 68 65 64 65 60 58 60 56 53 61 62 60 61 60 62 62 63 63
71 72 72 72 72 71 71 71 73 70 73 70 74 73 73 73 73 73 73 72 71 73 72 70 68 69 66 64 64 64 63 59 62 59 59 64 63 64 64 63 62 61 62
70 71 72 72 72 73 72 71 70 73 72 74 71 74 73 73 73 73 73 73 72 71 73 72 70 69 68 66 65 63 63 63 61 61 59 58 61 65 62 62 62 65 62
70 71 71 72 72 72 72 73 73 71 73 72 73 72 74 73 73 72 73 73 72 72 71 73 72 71 70 67 66 65 63 62 62 59 59 60 58 62 63 63 61 62 63
67 69 71 71 72 71 72 72 73 73 72 72 73 72 73 73 72 72 72 72 72 72 72 71 73 72 71 69 67 66 66 61 60 63 58 58 59 60 63 63 62 61 60
65 68 70 71 71 72 72 72 72 73 73 72 72 73 72 73 72 71 71 72 72 72 72 72 71 72 72 72 68 67 66 66 61 59 61 59 58 59 61 62 62 60 59
65 66 68 70 71 71 72 72 72 73 73 73 73 73 73 73 72 71 70 72 72 72 73 73 72 72 71 72 72 69 67 66 66 63 60 59 62 64 63 63 63 62 63
65 67 68 70 70 71 71 72 72 72 73 73 74 74 73 74 72 71 69 71 72 71 72 73 73 72 72 70 72 71 69 67 66 65 64 63 66 67 67 66 63 62 61
67 69 70 70 71 70 71 71 72 73 72 73 73 74 74 74 73 71 70 71 71 71 71 71 71 72 72 70 71 71 69 68 67 66 65 65 67 66 67 65 65 62 62
66 69 71 72 71 72 71 72 73 73 73 73 73 74 74 74 74 72 70 72 72 71 71 70 70 70 69 69 69 71 71 70 68 67 66 65 65 65 66 66 66 64 63
69 69 69 70 71 73 73 73 74 74 74 73 74 74 74 74 74 73 70 70 73 72 72 71 70 69 68 68 67 70 69 69 70 68 67 66 65 64 65 65 67 66 65
67 68 69 71 71 70 73 73 74 74 74 74 74 74 74 74 74 73 71 70 70 72 73 73 72 70 67 65 66 68 68 69 70 69 68 67 66 65 65 65 66 66 66
67 72 72 72 73 72 73 74 73 74 74 74 74 74 73 73 74 74 73 69 67 67 71 71 71 71 70 68 66 64 66 70 71 70 70 69 67 66 65 65 64 64 63
67 73 73 73 73 73 72 74 74 73 74 74 74 73 73 73 72 67 68 70 70 69 69 70 71 71 71 70 68 67 66 67 70 71 71 70 66 66 65 66 65 64 62
72 72 73 72 73 73 73 72 60 65 65 65 64 71 64 61 60 61 62 63 64 64 67 69 70 71 71 71 71 70 67 67 69 70 71 69 66 65 65 65 64 63 61
67 71 70 70 71 72 73 73 68 59 55 57 57 55 55 54 54 55 55 58 62 64 66 69 69 69 70 71 71 71 69 68 69 70 70 67 67 65 64 63 62 62 61
65 64 66 67 67 69 68 69 69 65 65 62 56 56 55 54 54 55 56 57 57 61 64 64 66 67 69 70 71 70 70 69 69 69 69 67 66 64 63 62 62 61 59
67 64 63 64 64 64 63 63 63 62 61 61 59 57 56 56 54 56 58 57 58 59 60 61 62 62 63 63 65 67 69 69 69 69 69 67 65 63 62 61 61 59 58
60 62 62 62 63 63 63 62 61 61 61 59 57 56 56 59 60 60 60 58 58 58 60 63 64 64 64 64 64 64 65 66 67 67 68 67 64 62 61 60 58 57 57
60 60 60 60 60 61 62 61 61 60 59 59 57 57 57 58 59 59 60 61 61 62 63 64 64 63 63 64 64 64 65 65 65 65 66 63 62 61 60 59 59 57 56
61 60 60 60 59 59 59 59 59 59 59 59 59 59 57 59 60 60 60 61 61 63 64 64 64 64 64 64 64 64 63 64 63 63 63 62 62 61 61 59 57 53 52
59 59 59 60 59 58 58 58 58 58 58 58 58 59 59 60 60 60 60 62 63 63 64 64 64 65 65 65 64 63 62 63 63 63 62 62 61 60 58 55 52 47 46
59 58 57 56 56 56 55 55 54 54 54 55 55 55 55 56 57 57 57 57 58 63 64 64 63 63 63 63 62 62 63 63 62 61 60 59 57 54 52 50 50 46 44
56 56 55 54 54 53 53 53 52 52 52 52 52 52 52 53 53 52 52 51 53 52 51 50 50 59 61 61 61 60 60 61 60 57 55 53 51 50 48 45 43 42 40
48 53 54 53 51 51 51 51 50 51 50 50 49 48 47 47 47 48 48 48 48 47 46 46 46 43 39 40 42 48 53 50 51 51 50 50 48 47 45 42 40 38 38

GFSGL_sfc_30mbdewp_042.txt.gz
Dewpoint
68 69 69 68 68 72 70 67 67 70 67 69 71 72 72 72 71 71 72 73 71 71 72 70 68 67 64 63 62 62 59 57 53 53 59 59 61 61 62 63 59 58 58
68 69 70 70 69 68 72 70 68 68 70 67 71 71 72 72 72 71 71 72 73 72 72 71 70 69 67 65 62 61 60 59 55 53 55 62 60 62 61 62 60 60 60
69 69 70 71 71 69 68 72 70 69 69 70 72 71 72 72 72 72 71 71 72 72 72 71 71 70 68 67 65 62 63 61 60 57 55 61 62 62 61 62 61 62 63
70 70 70 71 71 71 70 69 72 71 68 70 72 73 72 72 72 72 72 72 72 72 72 72 71 70 69 67 65 64 63 62 62 61 59 60 62 64 62 59 60 62 60
70 70 70 70 71 72 72 70 70 71 72 69 71 72 73 73 73 72 71 71 72 72 71 73 72 71 70 68 67 65 63 62 62 61 60 59 59 62 61 61 60 60 63
69 70 70 71 71 71 72 72 71 70 70 72 71 72 72 72 72 72 72 72 71 71 71 71 72 72 71 69 67 67 65 64 62 61 60 59 59 58 62 62 61 60 59
68 69 70 71 71 72 72 72 72 71 71 69 71 72 71 73 72 71 71 71 71 71 71 71 71 71 72 72 68 67 66 65 64 61 59 58 58 58 59 62 62 61 60
66 69 69 71 71 72 71 71 71 72 72 72 70 71 72 71 71 70 70 72 71 71 72 71 71 71 71 72 72 70 68 67 65 64 62 60 60 59 59 59 61 62 62
64 65 69 70 71 71 71 71 71 71 71 72 73 72 71 71 71 70 69 71 71 72 72 72 72 72 72 70 71 71 71 70 69 66 66 64 61 60 61 61 62 61 61
64 65 66 70 70 71 71 71 71 71 72 72 72 73 73 73 71 70 69 71 71 71 72 72 71 72 72 70 70 71 70 71 70 69 66 65 64 61 62 63 62 62 61
65 65 67 67 69 70 71 71 71 72 71 71 72 72 73 73 73 70 69 72 72 72 71 71 72 70 69 69 69 71 71 71 71 70 69 68 66 66 64 65 66 63 62
66 68 68 69 69 70 70 71 71 71 72 72 71 72 73 73 73 71 70 70 73 73 72 72 72 71 68 67 67 69 70 69 71 71 70 68 68 66 66 66 67 66 65
68 67 69 71 71 71 71 70 71 71 71 72 72 72 72 74 74 72 70 70 70 72 74 73 72 71 69 67 65 67 66 69 70 71 71 70 69 69 67 67 68 67 67
65 70 69 69 70 71 72 72 72 72 72 72 73 73 73 74 74 74 71 69 67 67 69 71 72 71 70 70 69 66 64 67 69 70 70 71 71 70 67 66 66 66 65
69 70 70 71 70 71 70 70 73 74 74 73 74 74 74 74 73 72 73 72 70 69 69 69 70 71 71 72 72 71 69 67 66 68 70 71 71 71 68 67 66 65 64
68 69 72 73 72 72 68 65 57 59 64 70 72 74 63 66 64 64 65 64 64 65 67 68 68 69 69 70 71 71 72 70 69 69 69 70 70 70 68 66 65 65 63
66 64 68 73 72 73 72 67 65 57 53 54 60 61 60 57 56 56 57 60 61 63 64 65 67 67 68 69 70 70 71 71 72 70 69 70 70 69 68 66 64 63 63
65 64 66 69 70 72 72 67 63 62 60 57 55 55 54 55 56 55 56 57 57 60 61 60 60 61 62 62 63 63 63 64 65 66 67 68 68 68 67 66 64 63 62
65 64 65 65 66 67 68 67 66 64 60 57 56 56 54 53 55 56 57 58 58 58 59 60 61 62 62 63 63 63 63 63 64 64 64 65 66 66 66 66 65 62 61
61 63 63 63 63 63 64 63 62 61 58 57 57 56 57 58 59 59 59 58 59 59 60 61 62 63 63 63 63 63 64 64 63 63 64 65 65 63 61 61 61 59 60
61 62 62 61 61 61 60 60 60 59 58 58 58 56 56 59 59 60 60 60 60 61 61 62 62 62 63 63 63 62 63 64 63 62 62 63 63 61 60 59 60 60 59
61 60 59 59 59 59 59 59 60 59 59 59 58 58 58 59 58 57 58 59 61 62 63 62 63 63 64 64 64 63 63 63 63 63 62 62 61 61 61 60 59 59 56
60 59 58 58 57 56 56 55 56 56 55 55 55 56 56 56 55 55 54 55 55 57 58 60 60 62 62 64 64 63 62 62 62 62 62 61 61 60 59 59 58 57 55
58 57 56 55 55 54 53 53 53 52 52 52 52 52 52 52 51 50 50 50 49 49 50 50 48 46 47 51 57 59 61 62 62 62 61 61 59 59 57 54 53 52 51
56 55 54 54 53 52 52 51 51 50 49 48 48 47 47 47 47 47 47 47 48 48 47 46 45 43 40 41 40 40 42 49 57 58 59 57 55 54 53 51 49 47 46
54 53 52 52 51 50 50 49 49 48 47 47 46 45 45 45 44 45 45 44 45 45 45 45 45 44 42 42 40 38 36 39 47 52 55 53 51 49 47 48 46 44 43

GFSGL_sfc_30mbdewp_045.txt.gz
Dewpoint
67 67 67 67 68 68 68 68 68 66 67 69 69 70 71 71 71 71 71 71 70 70 71 70 68 67 66 65 63 62 60 57 54 54 57 59 60 60 62 64 62 61 59
67 67 67 68 69 69 69 68 68 69 67 68 70 70 71 71 71 71 70 71 71 71 71 71 70 70 67 66 64 62 61 60 57 55 54 57 59 61 61 62 63 61 58
65 67 67 67 67 69 71 71 68 67 68 68 69 70 70 71 71 71 71 70 71 72 71 71 71 70 69 69 67 65 62 61 60 58 56 57 60 62 61 62 62 61 61
65 66 67 68 68 67 68 70 71 69 68 69 69 69 70 71 72 71 71 71 71 71 72 72 72 71 70 70 68 67 65 63 61 60 60 59 59 61 62 59 60 61 60
66 67 67 69 70 69 69 68 69 71 70 69 69 70 71 71 71 71 72 71 71 71 71 72 72 72 71 70 69 68 66 65 63 61 60 60 60 61 61 60 58 58 61
67 67 68 69 70 70 70 70 68 70 71 70 69 69 71 71 71 71 71 71 71 71 71 71 72 71 71 70 69 69 68 66 64 63 62 60 59 59 61 59 59 58 57
68 68 69 69 69 70 71 71 70 69 69 71 71 69 70 70 70 71 71 71 70 70 70 70 71 71 71 71 70 68 67 67 67 67 64 63 61 60 60 60 60 59 58
68 69 69 70 70 70 71 71 71 71 70 70 70 71 71 71 70 69 70 71 71 71 71 71 70 70 71 71 71 71 69 68 67 66 67 67 65 63 60 59 59 60 61
67 68 69 70 70 71 70 71 71 72 71 71 70 69 69 71 70 70 69 70 71 71 71 71 71 71 71 70 70 70 71 71 70 68 67 67 66 65 62 60 59 59 59
65 67 68 70 70 70 71 71 71 71 71 72 72 72 71 70 70 69 68 71 71 71 71 72 71 71 71 70 70 70 70 70 71 71 70 67 65 65 62 61 63 61 59
63 64 67 69 70 71 71 71 71 71 71 71 71 72 72 72 72 68 67 70 71 70 71 71 71 71 69 69 69 71 71 71 71 71 71 71 70 69 68 64 63 64 63
64 64 65 67 69 70 71 71 71 71 71 71 71 71 72 72 72 70 68 68 71 71 71 72 72 71 69 68 67 68 69 69 71 71 71 71 71 70 69 69 67 65 66
67 66 66 67 67 68 70 70 71 71 70 71 71 71 71 72 73 72 70 68 68 71 73 73 72 71 69 67 65 65 65 67 69 70 70 71 71 72 72 70 68 67 66
69 68 69 69 69 68 69 70 70 70 70 70 70 71 71 72 73 73 70 69 67 67 69 71 71 71 71 71 70 69 66 66 67 69 70 70 71 72 72 72 69 68 66
68 69 70 70 69 70 68 68 70 71 70 70 71 72 72 72 73 74 74 72 71 70 70 69 70 70 70 71 71 72 71 69 67 68 68 69 69 70 71 72 71 69 67
66 66 66 70 71 70 66 62 55 58 63 68 71 74 67 68 70 69 69 69 69 68 69 69 68 68 68 68 69 69 70 70 69 69 69 69 69 69 69 69 69 69 66
64 65 65 65 71 71 67 65 63 57 56 59 64 67 67 64 61 61 61 61 62 65 67 65 65 65 64 62 62 62 62 63 64 64 64 64 64 65 66 66 68 67 66
63 65 64 66 69 72 69 66 62 62 62 58 54 54 54 54 54 57 59 59 58 60 60 60 59 60 60 61 61 61 61 61 62 62 63 63 63 63 63 63 64 64 64
62 64 64 65 66 70 69 65 63 60 57 56 57 56 55 55 55 56 57 58 58 58 59 59 60 61 61 61 62 61 62 62 63 63 62 62 63 64 64 63 61 59 61
62 63 63 64 65 66 65 64 61 59 58 57 58 58 58 58 59 59 59 58 59 59 59 60 61 61 61 62 62 63 61 61 63 63 63 62 63 62 61 59 58 58 59
62 61 61 61 61 61 62 60 59 59 58 58 57 55 57 59 59 58 59 59 60 60 61 61 61 62 62 62 63 63 62 62 62 63 62 62 62 59 59 60 60 60 58
60 60 60 59 60 60 59 59 59 59 58 57 56 56 56 56 55 54 54 54 55 56 57 59 60 60 60 61 63 63 61 61 62 62 62 62 61 60 59 59 59 57 56
59 59 58 57 57 57 57 56 56 55 55 55 55 54 52 51 50 50 49 49 49 49 50 49 49 47 47 48 50 53 56 58 61 61 62 61 61 60 59 59 58 57 56
59 58 57 56 55 55 54 53 52 52 51 50 50 49 48 48 48 47 47 48 48 48 47 47 46 44 44 44 43 42 42 40 43 58 61 61 60 59 58 57 56 54 53
55 55 54 54 53 52 51 50 49 49 48 47 47 46 46 46 45 45 45 45 45 45 45 45 44 43 42 43 42 41 39 37 39 43 56 59 58 58 55 54 53 52 50
54 53 53 52 51 50 49 48 47 47 46 45 44 44 44 43 43 43 43 43 43 43 43 43 42 42 40 39 38 36 37 40 41 41 46 56 56 55 54 52 51 50 48

GFSGL_sfc_30mbdewp_048.txt.gz
Dewpoint
65 65 65 66 66 66 66 67 66 66 67 67 68 68 69 70 71 71 71 71 70 70 70 70 69 68 67 66 64 63 62 59 57 58 57 60 60 61 62 64 65 64 64
65 66 66 66 67 67 67 67 67 66 67 68 69 68 69 70 70 71 70 71 70 69 70 70 70 70 69 68 66 64 63 62 60 59 59 58 59 61 62 62 63 63 63
65 65 66 66 67 67 67 68 68 68 67 67 68 69 69 70 71 71 71 71 71 71 70 70 70 71 70 70 69 67 65 63 62 60 60 59 59 61 61 62 63 64 64
65 66 66 66 67 67 68 68 68 68 68 68 68 69 69 70 71 71 71 71 71 71 71 71 71 71 70 70 70 69 68 66 64 63 61 61 60 61 62 60 60 62 62
64 66 66 67 67 68 69 70 70 68 68 68 68 68 69 70 70 71 71 71 71 70 71 72 72 71 71 71 70 70 69 68 67 65 65 64 61 61 61 60 61 61 62
64 65 66 67 67 68 68 68 70 71 69 69 69 69 69 69 69 69 71 71 71 70 70 71 72 71 71 70 70 70 70 68 67 66 65 65 65 64 63 61 61 60 59
65 65 66 67 68 68 69 68 68 68 70 70 70 69 69 70 69 68 69 70 70 71 71 71 71 71 71 71 70 69 69 68 68 69 67 67 66 67 65 63 62 62 61
65 66 67 68 68 69 70 69 69 69 69 70 70 70 69 69 69 68 69 70 70 71 71 71 71 70 71 71 71 71 70 70 69 68 69 70 70 70 69 66 65 64 63
66 67 67 68 68 69 70 70 70 70 70 69 70 70 71 70 68 68 68 70 70 70 71 72 71 71 71 69 70 70 70 71 71 69 68 68 68 67 67 68 64 61 61
67 68 69 69 69 69 69 70 71 71 71 70 70 70 70 70 70 68 68 69 69 70 71 71 71 71 71 69 70 70 70 71 71 71 71 69 67 67 65 65 67 66 64
67 68 69 70 70 70 70 70 70 71 71 71 71 71 71 70 70 68 66 70 70 70 70 70 71 70 69 69 68 71 71 72 72 71 71 71 72 72 70 69 68 67 67
66 67 68 69 70 70 71 71 71 71 71 71 71 71 72 73 71 69 67 66 70 70 70 71 72 71 69 68 67 68 69 69 70 71 71 71 72 72 72 72 71 69 69
64 65 67 69 69 70 71 71 71 71 71 70 71 71 71 72 72 70 69 66 66 69 71 72 71 71 70 68 66 66 65 66 67 68 69 70 71 72 72 72 73 73 71
66 66 66 66 68 69 71 71 70 71 71 70 70 70 71 71 72 73 71 68 65 65 67 69 71 71 71 71 71 69 67 67 67 68 69 70 71 70 70 71 70 70 70
68 69 69 68 67 67 68 68 70 71 70 70 70 71 71 71 72 73 73 72 72 71 70 70 70 70 70 71 71 71 71 70 68 68 68 68 68 67 67 67 68 67 66
65 66 66 70 69 70 65 63 56 59 63 65 68 71 69 69 72 71 71 71 70 70 69 70 69 69 69 68 67 66 65 64 64 63 63 63 63 63 63 63 63 64 63
63 63 65 65 71 69 67 66 65 57 55 58 63 68 70 69 67 65 65 64 65 67 69 68 67 66 64 62 62 62 62 62 62 62 62 62 62 62 62 62 63 64 63
63 64 64 65 66 70 68 66 64 64 65 61 53 56 57 58 59 60 61 63 63 63 62 62 61 60 61 61 62 62 62 61 62 62 63 63 62 61 62 64 63 61 59
62 63 64 65 66 70 68 65 63 62 60 58 57 57 55 56 57 57 58 59 59 59 59 59 61 61 61 61 62 62 62 61 62 62 63 62 62 61 62 61 60 59 59
63 63 64 65 66 67 66 64 60 59 59 59 59 58 58 59 59 59 59 59 59 59 60 61 61 61 61 61 62 62 62 62 62 62 62 63 62 63 61 60 60 60 58
62 62 62 62 63 63 62 60 59 59 59 57 56 56 59 59 58 58 57 57 58 60 60 61 61 61 61 62 63 63 62 62 63 62 63 63 62 61 62 61 59 60 59
62 61 60 61 61 61 60 60 59 58 57 56 55 54 54 54 53 52 51 51 51 51 51 52 51 50 50 51 52 55 57 59 60 61 61 62 62 61 61 60 60 58 58
61 60 59 59 59 58 59 58 57 57 56 54 52 51 50 49 49 49 48 49 49 48 48 48 46 46 46 47 46 45 46 47 47 49 58 61 61 61 60 59 58 57 56
59 59 58 57 57 56 56 55 53 53 52 50 49 48 48 47 47 47 47 47 47 47 46 46 45 44 45 44 43 42 43 41 40 43 52 60 61 60 59 58 57 56 54
57 56 55 55 54 53 52 51 50 49 48 47 46 46 46 45 45 45 45 45 45 45 44 43 43 42 42 42 41 41 38 37 38 40 43 56 59 59 59 57 56 55 54
54 53 52 51 50 49 48 47 46 45 45 44 44 44 43 42 42 42 42 42 41 40 40 40 39 38 39 38 37 36 35 38 42 43 46 50 55 56 57 56 56 54 52

GFSGL_sfc_30mbdewp_051.txt.gz
Dewpoint
66 66 67 67 67 68 67 68 68 68 69 69 69 70 70 71 71 72 71 70 72 71 71 71 71 71 69 67 66 65 63 62 59 58 61 61 65 65 63 64 65 65 64
66 67 67 67 68 67 68 68 69 69 69 69 69 70 70 70 70 71 70 69 70 71 71 71 71 70 71 71 69 68 65 65 62 62 61 61 63 64 65 65 64 61 62
66 66 66 67 67 67 68 68 69 69 69 68 69 69 69 69 70 70 70 70 70 70 71 71 71 71 71 69 71 69 68 68 67 64 63 62 63 63 63 65 65 65 64
64 65 66 67 67 67 68 69 69 70 69 69 69 69 69 69 70 70 70 71 71 71 71 72 72 71 71 71 71 71 70 70 68 68 66 65 65 65 65 63 61 62 61
65 65 66 67 68 68 69 69 70 70 70 70 69 69 69 69 68 69 70 70 71 71 71 72 72 72 72 72 70 71 70 70 68 66 65 64 64 64 64 64 63 63 64
66 66 67 68 68 69 69 70 70 70 70 70 69 69 69 68 66 67 70 69 71 71 70 71 72 72 72 71 70 70 70 71 70 68 66 66 69 68 67 67 66 65 64
67 67 68 69 69 69 70 70 71 70 70 70 69 69 70 70 68 67 69 69 69 70 71 71 70 69 71 71 71 69 69 68 69 71 71 71 70 71 71 70 70 69 68
67 67 68 69 69 70 70 70 70 70 71 71 70 71 70 70 69 67 67 69 70 71 71 71 71 71 71 71 71 71 71 72 71 70 70 71 72 73 73 73 72 72 70
67 67 68 69 69 70 70 70 70 69 69 70 70 71 71 71 69 68 68 69 69 71 71 71 71 71 71 71 71 70 71 71 71 71 71 70 70 69 69 70 69 69 67
66 68 68 69 69 70 70 71 71 71 70 69 69 71 71 71 70 67 67 68 68 68 70 72 71 71 71 70 71 70 70 70 70 72 73 71 69 70 68 67 69 68 68
66 67 69 70 70 70 71 71 71 71 70 71 70 71 71 71 72 69 66 69 68 68 68 67 69 69 69 69 69 71 72 72 72 73 73 73 73 73 73 73 70 69 69
69 69 70 70 69 69 71 71 71 71 71 71 71 71 71 72 71 70 67 66 70 70 70 70 71 70 69 68 67 68 68 69 71 71 71 71 72 72 73 73 74 73 72
70 70 70 71 71 71 71 71 70 71 70 70 70 70 70 71 73 70 67 65 66 69 71 71 71 70 69 68 67 66 65 67 68 68 69 69 71 71 73 72 72 71 72
68 69 70 70 71 71 71 71 70 70 70 69 69 69 70 70 71 72 71 68 64 65 67 70 71 71 71 72 72 68 67 67 68 68 68 70 70 70 66 65 63 63 63
68 67 68 69 70 70 70 69 70 71 70 70 70 70 70 70 71 72 72 72 72 71 70 71 71 71 71 72 72 72 72 70 68 70 69 68 65 63 63 63 62 62 62
68 69 69 68 68 68 69 66 57 59 63 66 68 70 71 70 71 71 71 71 71 70 70 71 71 71 70 71 70 69 68 66 66 65 63 62 62 63 62 62 63 63 63
65 66 66 70 71 70 69 67 66 59 56 59 62 66 69 71 69 69 68 68 67 68 71 71 70 70 69 67 65 65 64 63 64 62 62 62 63 62 61 62 62 62 60
65 64 66 66 68 71 70 69 68 68 67 65 57 59 60 63 64 64 64 66 66 67 69 69 67 64 63 63 63 62 62 62 62 62 62 62 62 62 62 62 60 59 59
64 64 66 68 68 70 70 68 68 67 67 61 58 57 54 57 58 59 61 68 67 63 62 62 63 62 62 62 62 63 63 62 61 62 62 62 62 62 62 61 60 60 60
62 63 64 66 68 68 67 66 66 66 65 64 63 61 59 61 62 60 60 61 61 61 62 62 63 63 63 63 63 63 63 62 62 62 62 62 63 63 61 61 60 60 60
59 63 62 64 66 65 64 63 63 64 64 63 62 60 61 61 60 59 58 58 59 60 61 61 61 59 58 60 61 63 63 62 62 62 62 63 63 63 63 62 62 61 60
58 61 62 62 64 64 63 61 61 60 58 56 55 54 56 56 55 54 53 53 53 54 55 55 53 51 51 51 52 53 55 56 57 58 59 62 62 61 61 61 60 60 59
58 60 61 62 62 61 61 60 59 58 56 55 55 54 54 52 52 51 51 50 50 49 50 49 48 48 48 48 47 47 48 49 50 50 53 59 62 61 60 59 57 58 58
59 61 61 61 60 60 60 59 57 55 53 52 51 50 50 50 49 49 48 48 48 48 48 47 47 47 47 46 46 46 46 43 42 46 50 54 59 61 60 59 56 56 56
58 59 59 58 58 56 55 54 52 51 50 49 48 48 48 48 47 47 47 47 46 46 46 45 46 46 45 44 43 43 40 36 40 43 46 50 54 59 60 60 57 56 55
55 54 54 53 52 51 50 49 48 47 46 47 46 46 46 46 46 46 46 45 44 42 39 36 35 35 34 33 34 33 34 36 42 44 48 50 50 52 55 58 58 58 57

GFSGL_sfc_30mbdewp_054.txt.gz
Dewpoint
67 67 67 67 67 68 67 68 69 68 67 69 67 66 66 69 70 70 69 68 70 70 69 68 70 71 67 63 63 62 61 60 57 55 55 57 64 66 65 64 64 64 62
66 68 68 68 68 67 68 68 69 69 69 69 68 68 67 67 69 70 69 67 68 69 70 70 70 69 71 70 66 64 62 62 60 62 60 58 60 63 64 66 66 63 60
66 66 66 66 67 67 68 68 69 69 70 69 69 68 68 67 68 70 70 69 68 69 69 69 69 70 69 68 67 65 64 66 67 65 64 62 61 62 63 67 68 66 65
63 64 65 66 67 66 68 70 69 70 70 69 69 68 68 67 67 68 69 69 69 68 69 69 70 70 71 71 71 70 70 69 67 66 64 61 60 61 62 63 64 63 62
64 63 65 68 68 68 69 70 70 70 70 70 69 69 69 68 65 67 67 67 68 68 68 70 70 71 71 72 71 71 71 69 66 63 61 60 60 60 62 63 64 64 64
65 65 66 70 70 70 70 71 71 71 70 70 69 69 68 67 64 64 67 66 67 68 68 69 70 71 71 71 71 71 71 71 71 68 65 63 68 68 66 66 65 65 66
67 67 68 70 70 71 71 72 71 71 71 71 70 69 70 70 66 64 65 66 65 67 69 69 68 66 70 70 70 70 70 70 70 71 71 71 71 71 72 73 70 71 71
68 69 69 70 71 71 72 72 72 71 71 71 71 71 71 71 68 66 65 67 68 68 68 69 70 69 68 67 68 68 69 70 72 71 71 71 71 71 72 73 73 73 72
68 69 70 71 71 71 71 71 71 71 71 71 71 71 71 72 68 68 67 67 67 69 69 70 70 70 71 70 70 69 69 69 67 67 68 69 70 70 70 71 71 70 70
68 69 70 71 71 71 71 72 72 71 71 70 70 71 71 72 71 67 68 68 66 66 69 71 70 69 70 69 70 69 69 67 67 67 69 71 70 70 70 70 72 71 71
67 67 69 71 72 72 72 73 72 71 70 71 70 71 72 72 72 68 66 70 66 64 64 62 64 65 68 67 68 70 70 70 70 71 73 73 73 72 73 74 74 72 71
68 68 70 71 70 70 72 72 72 72 71 71 71 70 70 71 71 69 67 67 69 67 65 62 65 66 65 66 66 68 69 69 70 71 71 71 72 73 73 73 74 74 74
68 69 69 70 70 70 71 71 71 72 70 70 69 69 68 69 71 69 67 66 67 69 69 68 69 69 68 68 67 68 67 70 70 71 72 72 73 73 73 72 72 72 70
68 69 70 70 70 69 70 71 70 69 69 67 68 67 67 68 68 70 70 67 65 67 69 70 71 71 71 71 72 70 71 72 72 72 70 70 72 71 70 66 61 60 60
69 69 70 70 70 70 70 69 69 69 67 68 67 67 67 67 68 70 70 71 71 70 70 70 70 70 71 71 72 73 73 73 70 69 70 70 70 67 62 61 61 61 60
68 67 67 67 69 69 70 69 60 62 64 65 66 68 69 69 70 70 71 71 70 69 70 70 71 72 72 72 72 73 73 72 71 70 69 66 63 61 61 61 61 62 62
68 69 69 67 68 69 70 69 66 63 62 64 64 66 67 67 69 70 69 67 67 71 72 72 73 74 73 72 72 71 69 68 68 66 64 62 61 61 62 62 62 62 59
66 66 67 66 65 65 65 66 63 61 68 68 63 63 64 66 67 67 66 67 67 67 72 72 72 71 69 68 67 66 66 65 64 63 62 61 61 62 62 62 61 59 59
64 64 65 66 66 69 68 68 63 67 69 68 65 59 56 58 62 62 64 73 72 70 67 67 67 66 65 65 64 65 64 63 62 61 61 62 62 62 62 62 61 60 60
61 63 63 66 68 70 69 69 70 70 69 67 66 65 59 62 65 64 65 68 69 67 65 65 64 64 64 64 64 63 62 62 62 62 62 62 62 63 62 61 61 60 60
57 60 61 62 65 67 67 67 68 69 68 68 67 62 63 66 66 65 64 64 64 65 65 64 64 62 64 64 64 63 62 61 61 61 61 61 61 62 62 61 61 61 60
52 55 59 60 63 64 65 64 64 66 64 60 59 59 60 62 61 59 58 57 57 58 60 60 59 58 58 58 58 59 59 59 59 59 59 59 61 61 61 60 60 59 57
51 51 54 58 62 63 63 63 62 62 61 60 59 59 58 57 56 55 53 52 52 52 53 54 54 52 52 52 52 52 53 54 54 54 54 56 59 60 61 60 57 55 55
50 55 58 59 61 61 62 61 60 59 58 57 56 55 55 54 52 51 51 50 50 50 50 50 50 50 50 49 50 49 47 45 45 47 52 54 56 57 60 60 58 55 55
53 56 58 59 59 58 58 58 57 56 55 54 53 53 52 51 50 49 49 49 49 48 48 49 49 47 46 44 43 45 40 36 41 44 48 51 54 55 56 57 57 57 56
48 49 50 49 48 48 49 49 49 50 50 50 50 50 50 50 49 49 49 48 47 45 43 42 41 39 36 31 30 31 31 32 38 38 45 51 52 52 52 52 54 56 57

GFSGL_sfc_30mbdewp_060.txt.gz
Dewpoint
71 71 70 70 68 68 68 66 70 68 72 69 71 71 72 71 72 72 71 71 70 71 71 71 71 70 70 70 68 64 62 64 61 62 65 64 67 67 67 67 68 68 68
71 71 71 71 69 68 66 69 70 71 70 72 71 72 70 71 72 72 72 69 71 70 71 70 71 72 72 71 71 69 69 69 66 64 66 64 64 66 68 70 71 68 67
70 70 70 70 70 69 68 67 70 71 72 71 73 72 72 71 71 72 73 72 72 72 72 72 71 71 71 72 71 70 68 68 67 67 67 70 69 68 67 69 71 71 70
68 69 69 70 70 70 70 68 71 71 71 72 72 73 73 72 71 71 73 73 72 71 72 71 72 72 72 73 72 72 72 71 70 70 68 67 68 68 70 68 66 67 66
65 67 69 70 70 70 69 70 68 70 72 72 73 73 73 73 71 70 71 72 72 72 71 72 72 72 72 73 73 73 72 72 71 70 69 69 67 66 67 68 69 70 70
64 66 68 70 70 70 70 70 71 70 71 73 73 73 73 72 70 68 70 70 72 72 72 72 73 70 70 69 69 70 71 71 71 72 71 70 70 70 70 70 70 70 68
65 66 67 69 70 70 71 70 72 71 72 72 73 73 73 73 69 66 67 70 70 71 72 72 72 70 70 72 70 68 68 69 69 71 70 71 70 71 71 72 72 72 72
66 67 67 68 69 71 71 71 71 72 72 72 73 73 73 73 72 67 65 68 69 70 71 71 72 71 71 72 72 72 72 72 72 70 70 71 72 73 74 73 73 73 71
67 67 69 68 69 70 71 71 71 71 72 72 73 73 73 73 72 70 66 67 68 69 69 71 72 72 71 70 69 70 70 72 72 72 73 73 72 71 72 72 70 67 68
66 68 68 69 69 70 71 71 72 72 72 72 72 73 73 73 72 70 68 69 67 68 69 71 69 68 69 70 71 71 70 71 71 71 72 71 69 69 68 66 68 70 72
68 67 70 71 70 71 72 72 72 72 72 73 72 73 74 74 74 70 66 70 69 68 68 68 70 69 68 67 67 70 71 72 72 72 72 70 70 72 73 75 75 75 73
70 69 70 71 71 71 73 73 73 73 73 73 73 73 73 74 74 71 68 67 70 69 68 68 68 67 67 67 66 66 67 68 70 69 69 69 71 71 74 75 76 75 75
69 70 71 72 72 71 73 73 74 74 73 73 72 73 72 73 74 72 69 67 67 70 71 69 66 66 62 60 62 64 64 67 68 69 70 71 72 74 75 74 74 74 75
66 72 71 73 73 72 73 74 74 73 73 72 72 72 72 71 71 74 70 67 66 67 69 70 69 69 69 70 69 63 66 70 71 72 72 73 74 74 73 73 73 72 64
70 71 72 72 72 73 72 73 73 73 73 72 71 71 71 70 69 69 71 70 70 69 70 71 71 70 69 70 71 73 72 72 72 73 73 74 73 73 72 73 73 66 63
71 72 71 71 72 73 72 70 65 70 68 70 70 70 69 68 66 64 61 69 69 69 70 71 71 71 70 69 69 70 72 73 74 75 74 73 72 72 72 71 65 63 63
69 71 70 70 70 71 71 71 69 65 61 62 65 67 71 69 68 67 66 65 66 67 71 70 70 71 71 71 71 72 73 74 74 74 73 73 72 72 67 64 64 63 63
66 68 71 70 69 71 71 71 69 69 68 67 62 63 65 66 67 68 69 70 68 69 71 72 72 71 72 72 72 73 74 74 73 73 73 72 70 68 65 64 64 63 63
60 63 66 69 69 70 71 71 70 70 69 69 67 62 61 62 63 64 66 71 71 72 72 72 72 74 73 75 74 74 73 72 71 70 70 68 66 64 63 63 63 61 61
58 58 62 68 68 64 68 66 68 68 68 68 67 67 65 64 67 68 70 71 71 72 74 73 73 73 73 72 71 71 69 66 66 65 64 64 64 64 63 63 62 62 61
56 57 59 65 65 66 67 66 65 64 63 64 64 64 64 65 69 70 69 67 69 73 72 70 68 68 68 68 68 66 66 66 66 64 63 63 63 62 63 63 62 63 62
54 55 61 66 66 67 68 68 68 66 65 65 64 64 65 67 65 63 62 63 64 65 67 67 65 64 64 64 63 61 61 62 63 62 62 63 63 63 63 61 61 61 61
52 53 61 60 64 65 65 62 60 61 62 62 64 65 66 64 62 61 60 61 60 60 58 60 60 59 59 59 57 51 50 49 50 53 55 57 57 58 61 61 61 60 59
53 56 56 56 56 58 61 62 58 57 57 56 56 58 59 58 57 57 57 57 57 56 56 56 50 44 43 43 45 45 38 38 45 49 51 53 54 55 56 58 59 58 57
45 46 45 47 46 49 49 50 55 56 55 55 55 55 54 53 54 56 56 55 54 53 51 46 39 36 33 32 31 32 29 29 37 33 45 50 53 55 56 55 55 53 55
40 40 40 40 40 41 41 41 41 42 42 42 46 50 53 52 52 52 51 50 47 42 38 36 33 29 27 29 30 30 29 28 29 27 31 44 52 52 50 50 51 52 52

GFSGL_sfc_30mbdewp_063.txt.gz
Dewpoint
68 70 67 65 69 70 68 65 69 67 70 72 72 73 73 72 73 72 70 71 70 69 70 70 70 69 67 69 71 70 66 64 61 61 65 66 66 65 64 67 66 67 67
69 68 70 67 66 69 68 68 65 68 69 72 72 72 72 72 72 72 71 70 70 70 70 70 70 71 69 69 70 68 68 69 67 63 64 63 64 66 66 66 68 70 69
69 69 69 69 66 65 66 68 67 68 67 71 72 72 72 71 71 72 72 71 70 71 71 71 70 70 71 72 71 70 70 69 71 69 68 69 70 69 68 68 69 69 71
70 70 69 69 69 66 66 65 69 68 72 69 72 71 72 71 71 71 72 72 71 71 72 71 71 71 70 70 71 71 71 70 70 69 69 69 69 69 70 69 68 69 70
69 70 70 70 69 70 67 67 64 70 68 73 71 73 72 72 71 71 71 72 72 71 71 71 72 71 72 72 72 72 72 72 71 71 70 71 70 69 69 70 69 68 69
66 69 70 70 70 70 70 69 67 65 71 68 70 71 73 72 71 70 70 72 73 72 71 72 72 71 71 71 71 72 73 72 72 72 71 70 70 70 70 69 68 69 69
64 68 69 69 70 70 70 70 70 66 68 71 70 71 71 72 71 70 70 69 70 72 72 72 72 71 71 72 70 69 68 68 69 69 69 69 69 70 70 70 70 71 71
64 65 68 69 69 70 70 70 69 70 67 67 70 72 72 72 72 70 69 69 69 70 72 72 72 71 71 70 70 71 71 69 68 68 68 69 70 71 71 71 71 72 73
66 66 68 68 69 70 69 70 69 70 70 69 70 71 72 72 72 71 68 67 68 69 70 71 72 72 72 70 70 70 71 73 73 71 71 71 70 70 70 72 71 71 69
66 67 68 68 69 69 70 69 70 69 69 71 70 71 72 72 72 71 69 68 67 67 69 70 71 72 71 70 70 69 68 68 69 70 70 70 69 70 69 69 70 69 68
68 69 69 69 68 70 70 70 70 70 70 70 71 71 72 73 73 71 69 71 69 67 67 68 69 68 67 66 67 70 71 71 71 71 71 72 72 71 70 72 69 70 71
67 69 70 70 69 70 70 70 71 70 70 70 70 71 72 72 72 71 69 68 71 69 68 68 67 68 68 67 66 66 66 66 69 70 70 70 69 69 70 73 75 75 75
70 68 70 71 71 69 71 70 71 71 71 70 71 71 71 72 73 71 70 68 68 70 70 69 69 67 66 65 65 65 64 65 66 67 67 68 69 71 73 74 74 73 74
67 70 71 70 71 70 72 71 71 71 71 71 71 71 71 71 72 73 70 67 67 66 69 69 68 67 67 68 68 62 62 65 66 66 67 69 71 73 73 73 72 72 71
64 71 71 70 71 71 71 73 72 72 72 71 71 71 71 72 72 72 73 71 70 69 69 70 69 69 69 69 70 70 66 66 68 69 71 72 73 73 73 72 73 72 67
61 68 71 71 72 71 71 69 65 69 71 71 72 72 72 70 72 70 70 71 70 69 69 70 70 70 70 70 69 70 72 70 70 71 72 72 72 72 72 72 71 64 62
59 62 65 71 72 72 72 71 70 66 61 63 66 71 70 69 65 66 65 67 66 66 70 70 70 70 70 70 70 69 69 73 73 73 74 74 73 72 72 70 65 64 62
57 59 61 66 72 72 72 72 71 69 69 67 62 65 66 66 66 66 64 61 63 67 69 70 70 71 71 71 71 71 73 73 74 73 73 73 72 72 70 67 65 63 62
57 58 59 62 69 70 72 72 71 69 69 67 63 63 60 63 64 65 65 71 67 68 70 71 71 71 71 73 73 73 73 73 73 72 72 72 71 69 65 64 63 62 61
55 57 58 61 67 68 70 70 71 70 70 67 66 65 64 65 68 68 69 70 71 71 71 71 72 73 73 73 72 72 71 71 71 69 67 65 64 64 63 63 63 62 62
53 56 57 65 65 67 67 67 67 68 68 67 67 65 65 66 67 68 68 68 68 70 71 68 69 66 67 68 68 68 68 66 66 65 64 63 63 63 62 63 62 62 62
53 57 60 63 67 66 67 67 67 67 67 65 65 63 63 65 64 64 63 62 61 63 67 67 65 65 64 61 60 60 58 58 58 61 63 62 63 63 63 62 61 60 60
50 53 54 57 62 60 59 60 61 61 62 64 65 65 63 62 61 61 59 58 57 55 51 51 48 47 49 47 43 44 47 46 48 51 54 55 57 60 63 62 61 60 60
44 45 46 47 50 51 57 57 55 56 57 57 59 59 58 58 58 58 58 57 56 49 47 41 37 37 37 37 36 33 31 34 41 41 46 51 52 54 55 56 60 61 60
40 41 41 41 41 42 44 44 45 47 47 49 53 54 55 57 57 56 53 50 44 39 36 35 33 32 32 32 31 31 31 32 32 30 38 43 49 52 52 51 51 52 52
39 39 38 38 38 39 38 38 38 39 40 41 41 41 42 44 48 50 44 40 39 39 37 35 33 32 31 31 31 31 30 31 33 34 35 40 42 33 33 37 40 45 50

GFSGL_sfc_30mbdewp_066.txt.gz
Dewpoint
67 66 65 65 67 70 67 66 67 69 69 69 71 71 71 71 71 71 70 69 70 69 69 68 69 70 68 67 69 70 68 65 62 61 63 67 66 64 66 66 67 67 67
67 67 66 64 65 67 69 67 66 67 69 70 71 72 71 71 71 71 70 70 70 70 68 69 69 71 70 69 69 69 68 68 67 65 64 66 66 68 68 68 69 70 70
66 67 67 65 64 65 67 69 67 66 68 72 72 72 72 71 71 72 72 70 70 70 70 69 69 70 69 70 69 70 70 70 69 68 69 69 70 69 69 69 69 69 70
66 67 67 68 66 64 65 67 68 67 66 69 72 71 71 71 71 72 72 71 70 70 70 71 71 71 69 69 70 70 70 70 70 69 68 68 69 70 70 69 69 69 69
66 67 67 68 69 67 63 64 66 68 67 67 70 72 72 71 71 70 71 71 70 70 71 71 72 71 71 70 70 70 70 70 70 70 70 70 70 71 70 70 69 68 68
67 67 68 67 69 69 68 64 65 64 66 68 70 70 71 71 70 70 71 71 71 70 70 71 71 71 71 71 71 72 72 71 70 70 70 70 71 70 69 68 68 68 67
68 68 69 70 69 69 69 68 66 65 63 66 68 71 71 71 70 69 69 70 71 71 70 70 71 71 71 71 70 69 69 71 72 71 70 70 69 69 69 69 69 69 69
66 68 69 70 70 70 69 69 68 68 65 64 67 67 70 71 71 69 69 70 70 70 71 72 71 71 71 71 71 70 70 70 69 68 68 68 69 69 70 70 70 70 72
63 66 67 70 70 70 70 69 70 69 69 65 67 70 69 68 69 70 69 70 70 69 69 70 71 71 71 70 70 70 70 70 72 70 69 69 68 68 69 70 70 70 69
65 66 67 67 69 69 70 70 70 69 69 69 67 67 70 71 70 69 69 70 70 69 69 69 69 71 71 70 70 70 69 69 69 69 69 69 69 70 69 69 70 69 68
67 69 69 67 68 69 69 70 70 70 69 69 69 68 68 70 70 69 68 71 70 69 68 68 69 69 68 68 69 70 69 69 69 69 69 70 71 72 72 71 69 69 68
63 65 67 70 68 68 69 70 69 69 69 68 69 70 70 70 71 70 68 68 71 70 69 68 68 67 67 67 67 68 69 69 69 70 70 70 70 70 70 70 71 71 71
61 63 65 69 70 69 68 69 69 69 69 69 68 68 70 71 71 70 68 67 68 71 71 70 68 67 65 65 64 65 64 64 65 66 67 68 69 69 69 71 73 74 73
59 60 63 66 71 70 68 69 69 69 69 68 69 69 69 70 71 72 70 67 67 67 70 70 70 67 67 66 66 65 63 65 66 66 67 67 68 69 69 72 73 72 72
57 59 61 66 71 70 69 69 69 69 69 69 69 69 69 70 70 71 72 71 70 70 70 70 69 68 68 67 67 67 65 63 64 65 66 67 67 69 71 73 72 72 71
56 57 60 61 64 70 70 69 64 66 68 68 69 70 70 70 71 70 70 70 70 69 68 70 70 70 69 69 68 69 69 67 67 66 68 68 69 71 72 72 72 71 67
54 56 57 58 63 70 70 70 69 66 63 66 67 69 70 71 69 69 69 68 67 65 71 70 70 70 70 70 70 70 69 70 69 69 69 70 71 72 71 72 70 65 63
54 53 56 58 59 64 72 71 70 70 70 69 64 67 67 67 69 69 66 62 64 63 70 71 70 70 70 70 70 70 70 69 72 71 71 72 72 72 71 70 68 64 62
51 52 54 55 57 60 65 71 72 71 70 71 65 63 62 61 62 61 58 68 67 67 67 71 70 70 70 71 71 71 71 71 71 72 73 72 72 72 70 69 66 64 62
51 51 53 55 57 60 65 68 71 71 70 69 67 69 63 63 66 66 66 68 68 67 68 69 70 70 66 65 65 63 64 67 70 71 71 71 70 69 68 65 63 62 61
50 51 54 57 59 63 65 67 70 70 70 69 67 66 65 69 68 68 66 66 66 68 69 69 68 65 64 64 64 65 63 63 63 65 66 65 64 63 63 63 63 62 62
48 49 50 50 55 61 61 66 67 69 68 66 63 64 63 65 64 62 61 60 58 59 61 60 60 57 54 55 62 65 63 63 62 64 64 64 63 62 62 62 62 61 60
44 45 46 45 47 52 57 58 58 65 64 64 63 63 63 62 60 58 56 52 49 46 45 48 47 45 45 43 44 51 54 52 51 55 58 60 61 62 63 62 61 60 60
41 42 43 44 43 44 46 46 49 54 59 60 60 60 59 59 57 55 50 47 42 40 40 39 39 39 38 38 39 39 41 42 42 46 51 53 54 55 56 56 57 60 59
40 40 40 40 40 40 41 41 42 44 45 46 47 51 56 54 50 47 45 43 42 39 38 37 37 38 37 37 37 36 34 34 34 41 47 50 50 49 48 47 49 50 52
38 38 38 38 38 38 38 38 39 38 39 40 41 43 44 44 43 42 41 40 38 37 37 36 35 34 35 35 34 34 32 33 34 36 36 34 33 33 35 38 44 47 48

GFSGL_sfc_30mbdewp_069.txt.gz
Dewpoint
65 65 65 65 68 69 67 67 68 69 69 69 70 71 70 70 71 70 69 69 69 70 69 69 68 69 69 68 68 69 67 64 63 63 63 66 66 66 68 68 69 69 69
65 64 64 64 65 67 68 67 67 67 69 69 69 71 71 70 70 70 70 70 69 68 69 68 68 69 69 69 68 68 68 67 66 65 65 67 68 69 69 69 70 69 70
65 65 65 64 64 65 67 68 67 67 67 68 69 70 71 71 70 70 70 70 70 69 69 69 68 68 69 69 69 68 69 70 69 68 69 69 69 69 70 70 70 70 70
65 66 65 65 64 64 64 67 68 67 66 67 70 71 71 71 71 70 71 70 70 70 70 70 70 69 69 69 69 69 70 70 69 69 68 68 69 70 70 70 70 69 69
64 65 66 66 65 64 63 64 66 68 67 66 67 71 71 71 71 71 71 71 70 70 70 70 70 70 71 70 70 69 69 68 69 69 68 69 69 69 69 70 69 68 69
65 65 66 66 67 66 64 63 63 65 67 67 66 67 70 71 70 70 71 71 71 70 70 70 71 71 70 70 70 70 71 70 69 69 69 69 69 70 70 69 68 67 67
66 66 66 67 67 68 67 65 63 63 64 64 66 67 67 69 70 69 69 70 69 69 69 69 70 70 70 70 70 69 69 70 70 71 70 70 70 70 69 68 68 68 68
66 66 67 67 67 68 69 68 66 64 64 63 63 64 67 68 68 69 69 70 70 70 70 70 70 69 70 71 71 70 70 70 69 69 70 71 71 70 69 69 69 69 70
64 66 68 68 69 68 68 68 69 67 66 65 64 63 64 65 68 68 68 69 69 69 70 70 70 71 71 70 70 70 70 70 71 70 69 69 68 68 67 69 68 68 68
65 67 68 66 70 70 70 69 69 69 68 68 67 65 65 66 65 67 68 69 69 69 70 70 69 69 70 69 70 70 69 69 70 70 70 69 68 68 68 67 69 68 69
62 63 64 67 69 68 70 70 70 69 69 69 69 68 66 67 68 65 66 70 68 68 68 68 69 68 67 67 68 70 69 69 69 69 69 69 69 69 70 69 69 69 69
60 61 63 65 67 69 69 69 70 69 69 69 69 69 69 67 67 68 66 66 69 68 68 68 69 68 67 66 65 67 68 67 69 69 69 69 69 70 70 71 71 70 70
58 59 61 62 64 68 70 68 68 69 69 69 69 68 69 69 69 66 65 66 67 69 70 69 69 68 66 65 64 65 65 65 67 67 67 67 67 68 69 70 70 70 72
56 58 59 60 61 65 69 71 69 70 69 69 69 68 68 69 70 70 68 65 64 66 69 70 70 69 67 67 65 64 63 65 66 65 66 66 67 67 68 69 69 70 72
52 56 58 58 59 61 63 70 70 70 70 69 69 69 69 68 68 70 70 70 69 69 69 69 70 69 69 68 67 67 66 65 65 65 66 66 66 67 67 69 70 71 72
51 53 55 56 58 59 62 65 68 67 67 68 68 69 69 69 69 68 69 69 69 68 68 70 69 70 70 69 70 68 68 66 65 65 65 65 65 66 67 69 71 71 71
50 52 53 53 56 58 59 61 66 68 65 65 64 66 66 68 67 67 67 67 66 67 70 70 70 70 69 70 70 69 69 69 68 67 67 67 68 68 68 70 71 70 70
51 50 51 53 54 55 57 59 62 68 70 70 67 65 64 65 66 67 66 62 63 62 70 70 70 70 70 70 70 70 70 70 70 70 69 69 69 69 70 70 70 69 67
48 48 50 52 53 54 56 57 59 64 70 70 70 65 62 61 61 61 60 69 69 67 66 70 70 71 71 71 70 70 71 70 70 70 70 70 69 68 70 70 70 68 65
47 49 51 52 54 55 57 58 60 63 68 70 70 70 65 61 65 66 63 66 68 69 68 68 70 71 70 71 70 69 69 69 66 63 61 61 61 61 60 61 64 66 64
47 49 50 51 51 52 53 60 62 63 65 69 70 70 67 67 68 69 67 67 68 68 67 67 69 69 68 67 66 64 64 62 62 62 62 62 61 59 59 59 59 62 63
45 47 48 48 48 48 49 54 59 63 65 67 68 64 64 66 66 64 62 60 58 58 58 60 57 54 54 57 60 63 64 63 63 63 62 62 61 62 64 64 64 64 62
43 44 44 45 45 45 46 47 49 51 63 67 65 63 64 61 59 56 53 51 49 48 49 48 47 44 43 44 45 50 58 57 56 60 64 64 64 64 64 63 63 62 61
42 42 42 42 42 42 42 42 44 46 49 54 61 60 58 54 50 47 46 45 44 43 43 42 42 41 41 41 40 41 42 43 48 53 57 59 59 60 62 62 61 61 60
40 40 39 39 39 39 40 41 40 42 43 45 49 49 48 47 45 43 42 41 41 40 39 39 39 39 37 36 36 37 36 37 48 53 53 54 54 53 52 51 51 52 52
38 38 38 38 38 38 38 38 39 38 39 40 42 42 41 39 39 39 39 38 38 37 37 37 37 37 37 36 36 35 34 35 36 35 39 41 43 43 43 45 48 48 48

GFSGL_sfc_30mbdewp_075.txt.gz
Dewpoint
65 66 66 66 67 68 68 69 70 70 71 71 71 71 71 71 72 72 72 71 71 71 71 71 70 72 68 67 67 67 67 67 63 61 67 68 71 71 71 72 69 68 67
65 66 67 67 67 66 67 68 68 70 70 71 72 72 71 71 72 72 71 70 70 70 70 71 70 69 71 71 70 70 68 69 67 66 67 68 69 71 72 72 71 68 71
65 65 66 66 67 66 67 67 68 68 69 69 70 71 71 71 72 72 72 71 71 71 70 70 70 70 71 69 70 69 68 70 70 69 68 68 69 70 70 68 70 71 68
63 64 65 65 66 66 68 68 68 68 68 69 70 70 70 71 72 71 72 72 72 71 71 70 70 70 70 71 71 71 70 70 69 70 67 67 68 69 70 66 66 67 69
64 64 64 66 66 66 67 68 68 68 68 68 68 69 69 69 69 70 71 71 71 71 71 71 71 71 71 71 69 69 70 70 68 68 67 66 65 65 66 66 66 67 68
66 65 65 66 67 67 67 68 68 68 68 68 68 68 68 67 66 67 70 70 71 71 70 71 71 71 71 70 69 69 70 70 69 67 64 64 68 68 66 67 67 67 65
67 66 66 67 67 68 67 67 67 68 68 68 68 67 68 69 67 66 69 67 69 70 71 71 70 69 71 71 70 69 69 68 69 70 69 68 68 69 70 70 68 68 68
67 67 67 67 67 68 68 68 68 67 67 68 68 68 68 68 67 67 68 69 69 70 70 71 71 70 70 71 70 70 70 70 71 70 70 70 71 71 72 71 71 71 70
62 65 66 68 68 67 67 68 68 68 67 67 67 68 68 69 66 66 66 67 66 69 70 70 71 71 71 70 70 69 69 69 69 70 70 70 71 70 70 70 68 67 64
58 60 63 65 67 69 68 69 69 69 68 68 67 67 67 68 68 65 64 65 65 65 68 70 70 70 70 69 70 68 68 68 67 67 68 70 69 70 67 70 69 67 65
56 57 59 63 65 65 70 71 70 70 70 69 69 69 69 68 68 65 63 66 65 66 66 65 66 67 68 67 68 69 69 69 67 69 68 66 67 69 70 70 71 69 66
54 54 56 59 62 64 66 66 68 70 70 70 70 70 70 70 69 67 63 62 66 67 67 66 67 66 65 65 65 68 69 69 68 67 65 64 64 65 67 69 71 72 71
53 53 53 55 58 62 63 65 66 66 67 69 69 69 69 69 70 68 64 62 61 66 68 68 68 66 65 65 64 65 65 68 67 67 66 66 65 65 68 70 72 72 73
52 51 52 52 55 58 60 61 64 65 65 65 68 69 69 69 69 70 69 65 61 62 65 68 68 68 67 67 67 64 66 68 67 67 67 67 67 67 68 69 69 68 69
50 50 50 51 52 54 56 56 59 62 64 66 69 70 70 69 70 70 70 70 69 67 67 67 68 68 68 68 68 69 69 68 68 68 69 68 68 68 68 69 69 69 68
49 48 48 48 50 52 51 52 57 58 59 58 58 59 65 70 69 69 68 68 68 66 67 68 68 68 69 69 69 69 69 69 69 68 68 68 68 67 67 68 69 69 68
48 48 47 47 48 48 49 52 53 55 57 57 58 59 58 62 68 65 66 65 64 64 68 69 68 68 69 69 69 69 69 69 70 70 68 68 68 68 68 68 69 69 69
47 46 46 46 47 47 48 50 51 52 54 56 58 60 62 61 61 61 62 59 63 59 69 69 70 70 70 70 70 70 70 70 70 70 69 68 68 68 68 69 69 69 69
45 44 45 46 46 47 48 50 52 53 55 57 58 60 62 62 60 56 55 65 68 68 67 69 70 70 71 71 71 71 71 70 70 70 71 70 69 69 69 69 70 70 70
44 44 44 45 45 45 47 49 51 53 55 56 58 59 62 63 65 64 57 60 68 69 70 69 70 71 72 72 72 72 72 72 71 71 71 71 71 71 71 71 71 70 70
42 42 43 45 44 45 46 48 49 51 52 54 57 59 61 63 65 67 69 64 65 70 71 71 71 71 72 72 73 72 72 72 72 72 72 72 71 71 71 71 70 70 69
42 43 44 44 44 45 46 47 48 49 49 51 53 55 57 59 62 64 68 70 69 69 70 70 72 70 70 70 71 72 72 71 72 72 72 71 70 69 67 66 65 64 63
43 43 43 43 44 45 46 46 46 47 47 48 49 50 53 58 62 64 62 56 53 52 50 52 55 54 51 52 52 54 60 62 60 62 67 67 66 66 65 64 63 63 63
39 40 41 42 43 43 43 43 43 44 44 44 46 49 48 48 48 47 46 45 45 44 44 44 44 45 46 46 45 44 45 49 54 57 59 61 64 65 65 65 64 64 63
39 39 39 40 40 40 41 41 41 42 41 42 42 42 42 42 41 41 41 41 41 41 41 41 41 41 42 42 42 42 42 47 49 53 54 54 54 56 62 65 65 64 65
37 38 38 38 38 38 39 38 38 39 39 39 39 39 39 39 39 39 39 39 38 38 39 39 40 40 39 38 38 37 40 43 46 49 50 49 48 48 49 50 52 55 56

GFSGL_sfc_30mbdewp_078.txt.gz
Dewpoint
67 66 66 66 67 69 67 67 68 67 67 69 70 70 70 69 70 71 70 68 69 68 68 68 69 68 66 62 63 63 62 62 61 58 61 62 68 70 70 70 68 66 61
66 67 67 68 67 66 67 67 68 68 68 69 70 71 68 68 69 71 70 67 68 68 68 68 68 67 69 68 65 65 64 64 64 62 63 62 65 68 69 70 67 65 66
65 65 66 66 66 66 66 67 67 68 68 67 69 70 70 68 69 70 71 70 69 68 68 68 68 68 68 65 66 64 64 65 65 64 63 62 63 66 67 67 66 66 62
62 64 65 65 66 67 66 67 67 68 68 67 67 69 70 69 69 70 71 71 69 68 70 70 69 67 68 69 69 69 69 68 65 65 63 62 62 64 66 63 60 60 61
64 63 63 66 66 66 67 67 67 68 68 69 67 67 69 69 68 70 70 70 70 70 70 71 70 70 68 68 67 68 68 67 65 62 62 62 61 61 63 61 60 60 61
67 66 66 65 66 67 67 68 67 68 69 69 68 67 66 64 63 66 68 69 70 70 69 70 70 70 70 70 69 69 68 68 67 63 59 59 63 64 61 61 61 60 60
67 67 67 67 67 67 68 68 68 68 68 69 69 68 68 67 64 63 65 66 66 67 69 69 68 66 70 70 70 69 69 68 68 69 68 67 67 67 68 68 67 66 65
60 61 63 68 68 69 69 69 69 69 68 68 68 69 69 69 67 65 65 67 66 68 68 68 70 69 66 67 69 68 70 70 71 70 69 69 69 69 70 70 70 70 69
58 59 60 62 65 68 68 69 70 70 69 69 69 69 69 70 68 66 66 66 65 67 68 69 69 70 70 69 69 68 67 67 66 69 69 69 69 69 69 69 65 62 59
56 57 58 60 62 64 67 69 70 70 69 69 68 69 69 69 70 67 65 66 65 65 67 69 69 69 69 68 70 70 69 68 64 62 67 69 69 70 68 71 68 65 60
54 55 55 57 60 62 64 66 69 71 70 70 69 69 70 69 70 67 65 67 65 64 64 64 65 65 66 66 67 71 69 68 64 63 62 62 62 63 67 71 71 68 62
53 53 55 55 55 58 62 64 65 68 69 70 71 71 70 71 70 69 65 65 67 67 66 64 65 65 63 64 65 67 68 67 64 58 56 56 57 57 57 61 71 72 69
52 53 53 54 54 54 56 60 63 65 66 67 69 70 71 69 70 69 67 65 64 66 68 67 66 66 64 63 62 65 65 67 65 63 60 59 58 58 62 64 69 72 73
50 51 51 50 51 52 53 53 56 59 60 62 62 67 68 69 70 68 70 67 63 64 65 66 67 67 67 68 68 65 66 67 66 64 62 60 61 61 60 62 63 63 65
48 49 48 47 47 49 50 51 52 51 55 58 62 62 63 67 70 64 65 71 72 70 68 68 67 67 67 68 68 68 68 67 67 66 65 64 64 64 63 64 62 62 62
50 47 45 46 46 46 47 48 49 50 51 52 55 56 59 59 61 60 59 62 65 69 69 68 67 67 67 67 67 68 68 67 67 66 66 65 64 64 64 64 63 62 63
47 49 47 47 45 45 46 46 46 47 50 51 51 52 53 55 55 58 57 58 59 61 69 69 69 67 68 68 69 69 68 68 70 69 68 67 65 64 64 64 63 63 64
45 45 47 46 45 45 45 46 46 46 46 47 50 53 55 55 56 56 56 56 62 59 69 69 69 68 69 69 69 69 69 69 70 71 70 69 68 66 64 64 64 65 64
43 43 44 45 45 45 45 46 46 46 47 48 50 51 54 58 58 59 54 61 65 68 67 68 69 68 70 71 71 70 71 70 71 71 70 70 70 67 66 65 65 65 66
43 44 45 44 44 44 44 45 45 46 48 48 49 50 51 55 58 61 62 62 62 66 69 69 69 69 70 71 72 71 72 71 71 71 71 71 71 72 70 68 68 67 69
40 41 41 43 43 43 44 45 46 47 47 49 50 50 51 53 54 58 59 64 66 67 68 70 70 71 71 71 73 72 72 72 72 72 72 72 72 71 71 71 71 72 71
41 40 40 41 42 43 44 45 45 46 47 48 49 49 50 52 53 55 57 60 63 67 69 69 70 70 69 71 72 73 72 72 72 72 72 72 72 72 72 72 72 71 71
39 39 40 41 42 43 44 43 44 45 46 47 48 49 50 50 52 55 57 61 60 55 52 52 56 58 55 55 55 56 62 67 67 67 71 72 72 72 71 70 69 68 68
38 38 39 39 40 41 42 43 44 45 46 46 47 47 48 50 49 48 47 47 47 46 46 46 46 47 47 48 48 49 50 50 54 58 60 63 65 66 67 66 66 65 65
37 37 37 38 39 39 40 41 41 42 43 44 44 44 45 45 44 43 43 43 43 43 42 43 43 43 43 43 43 43 43 46 51 55 57 58 59 59 60 61 60 64 65
37 36 35 36 37 38 38 38 39 40 40 41 42 41 41 41 41 40 40 40 40 40 40 41 41 41 40 39 38 38 41 45 50 53 54 54 54 53 53 53 53 52 53

GFSGL_sfc_30mbdewp_081.txt.gz
Dewpoint
67 67 68 68 68 70 68 67 67 67 67 67 68 68 69 69 68 70 69 69 69 68 68 67 67 69 65 60 59 59 59 59 58 58 60 61 67 68 69 71 70 69 64
66 68 67 68 68 67 69 68 68 68 68 67 68 69 70 68 69 69 68 65 66 67 67 67 66 65 69 69 66 66 63 66 63 65 64 62 64 67 70 71 69 65 65
64 65 67 67 68 67 67 68 69 69 69 67 68 70 69 67 69 69 69 69 68 68 68 67 66 67 68 66 67 64 62 65 65 65 63 62 61 62 64 68 70 65 63
67 64 65 67 67 67 68 69 68 70 69 69 68 69 70 68 67 68 69 70 70 68 68 68 68 67 68 69 69 69 67 67 64 62 61 61 62 63 63 63 61 59 59
68 67 66 67 67 67 68 68 68 69 70 70 70 69 69 68 67 68 68 69 70 70 69 69 70 68 67 69 66 68 68 67 63 61 60 60 60 61 63 63 61 60 60
65 67 68 68 69 68 68 68 69 69 70 71 71 70 69 66 63 64 68 68 69 71 69 70 70 70 70 69 67 67 68 70 70 65 62 60 65 62 59 60 61 60 61
61 61 63 66 69 69 70 70 69 69 70 71 71 70 71 71 66 62 65 66 67 69 70 71 69 64 69 71 70 69 68 68 67 70 70 69 68 70 70 71 68 68 66
59 59 60 62 65 67 69 70 70 71 71 70 71 71 72 71 69 66 63 67 67 68 69 70 71 70 70 70 71 70 71 72 71 69 69 71 72 72 72 71 72 72 71
57 59 59 59 61 64 65 67 70 70 71 71 71 71 71 72 70 67 66 66 65 67 68 69 69 71 72 69 69 70 70 70 67 70 70 70 70 69 68 68 64 62 60
52 54 57 59 59 61 62 64 67 70 71 71 70 71 71 71 71 70 67 68 67 66 68 70 69 68 69 69 70 70 70 70 70 66 68 70 69 70 68 70 68 64 62
51 53 54 55 57 58 60 63 65 65 68 71 71 72 72 71 71 69 67 70 68 66 66 65 66 66 65 65 67 71 71 71 70 69 67 66 64 66 69 71 71 69 64
49 51 53 54 54 54 57 59 61 64 65 67 70 71 72 72 71 70 67 66 70 69 68 65 65 63 62 64 64 66 66 67 68 67 64 60 58 57 58 60 69 73 70
49 49 51 53 52 52 52 55 55 58 65 64 64 67 69 70 72 70 67 65 65 68 70 69 66 65 64 61 61 63 64 66 67 66 66 65 63 59 59 61 64 73 75
50 49 49 50 49 49 49 49 49 51 53 55 59 61 63 64 69 71 67 65 67 67 68 69 68 67 66 66 67 64 65 67 67 67 66 66 64 62 60 60 60 60 60
47 48 48 47 46 46 48 46 47 50 51 50 50 51 52 55 60 58 58 61 61 62 61 67 70 68 68 68 68 69 69 69 68 68 67 66 64 64 62 62 62 62 61
46 44 45 46 45 44 44 45 45 47 48 48 49 50 50 51 53 54 56 57 56 55 60 68 70 69 68 67 68 68 69 69 69 69 68 67 66 65 64 64 64 64 63
45 45 44 44 44 44 43 44 43 43 45 46 48 49 49 50 50 51 52 54 54 56 61 65 69 69 68 69 68 68 68 68 70 69 68 68 67 66 65 64 64 64 65
42 42 43 43 43 43 43 43 42 42 42 43 45 49 48 48 49 50 53 54 61 60 63 65 69 70 70 69 68 68 69 70 69 69 69 69 69 69 69 67 65 64 64
38 38 39 42 43 44 45 44 43 43 43 42 42 43 44 46 49 51 53 58 61 63 62 66 67 67 69 70 70 69 70 69 69 70 70 70 71 70 70 70 68 64 64
36 37 38 39 41 43 43 44 43 43 42 42 43 43 43 45 46 48 53 59 61 63 63 65 69 68 68 70 70 70 71 71 72 72 71 73 72 72 71 70 70 70 68
36 37 38 39 39 40 41 42 44 45 44 43 43 44 45 48 47 47 47 49 53 59 62 64 66 68 71 72 71 70 71 71 72 72 73 72 72 72 71 72 71 71 71
35 35 36 37 38 41 41 42 41 42 44 45 45 45 45 47 48 48 48 49 51 54 61 63 63 65 69 68 67 68 71 71 72 72 72 73 72 72 72 72 72 71 71
33 34 35 36 38 38 39 39 40 41 43 43 44 45 46 46 46 47 48 50 54 56 56 57 57 56 57 58 58 57 59 62 62 63 68 71 73 72 72 71 71 71 71
35 35 36 37 37 37 38 38 39 40 41 43 44 45 45 46 47 49 50 51 51 50 50 49 50 50 50 51 52 53 52 53 53 55 59 61 64 66 68 69 70 69 68
36 36 36 36 36 36 37 37 37 38 39 40 42 43 44 46 46 47 47 47 46 46 45 44 44 45 44 44 44 45 46 42 46 53 57 59 61 62 63 64 64 65 65
36 36 37 37 35 35 35 36 37 37 38 39 40 41 43 43 43 43 43 43 43 42 42 42 42 41 41 40 39 38 39 42 48 50 57 59 58 57 57 56 57 56 56

GFSGL_sfc_30mbdewp_084.txt.gz
Dewpoint
71 71 71 72 72 73 72 71 69 70 71 69 60 67 70 70 71 70 69 69 69 69 70 69 69 70 69 69 70 69 62 63 63 65 67 68 67 68 69 72 72 72 71
70 71 71 72 71 72 72 71 71 71 71 70 71 70 70 70 70 70 70 68 68 69 69 68 68 69 69 71 69 67 67 66 65 65 66 65 65 66 72 72 72 70 68
69 70 70 70 70 70 72 72 72 72 72 71 70 71 71 72 71 71 70 71 70 69 70 69 69 69 69 68 70 70 69 68 68 67 66 69 66 65 66 68 71 72 72
70 68 69 69 70 70 71 72 72 72 72 72 72 72 72 72 72 71 72 71 72 70 71 71 71 70 70 69 70 70 70 69 68 67 66 65 65 66 69 68 66 65 64
68 68 69 71 70 70 70 71 71 72 72 73 72 72 72 72 70 70 71 72 70 70 72 72 72 71 70 71 70 70 70 69 69 68 66 65 65 67 64 65 64 67 66
64 64 67 69 70 71 70 69 70 71 72 72 72 72 72 69 67 66 69 69 71 72 70 72 72 71 70 68 67 67 67 69 70 72 70 67 66 67 69 70 69 66 65
61 61 63 65 67 67 69 71 71 70 70 71 72 72 72 72 70 67 64 69 71 71 71 72 72 68 68 71 68 68 67 66 67 68 68 69 70 71 71 72 71 70 70
61 60 61 61 64 65 67 67 68 71 72 71 71 72 72 73 72 70 68 67 68 69 70 71 72 70 71 71 72 72 71 71 71 69 68 68 69 70 71 71 71 71 72
56 59 61 61 61 62 63 64 66 67 68 71 72 71 72 72 72 70 69 69 68 68 68 70 70 70 72 71 68 70 71 73 72 71 72 70 69 68 68 70 69 67 65
52 55 57 58 59 59 61 63 66 66 67 69 69 72 72 71 72 71 69 71 70 70 70 69 68 68 69 67 68 71 70 69 69 70 70 69 69 69 68 69 69 68 67
51 52 55 57 57 58 59 61 63 64 66 66 68 70 72 72 73 71 69 71 71 70 70 69 69 68 66 66 66 68 68 70 70 70 70 70 69 70 72 71 71 70 68
53 52 53 55 56 55 57 58 59 61 64 65 65 67 70 71 71 70 67 64 66 68 70 70 70 65 63 63 63 65 65 66 69 69 69 69 68 66 65 65 71 71 70
50 52 54 53 54 56 56 55 56 56 58 62 62 62 63 64 67 65 63 62 63 63 67 67 66 67 67 65 65 63 61 64 66 66 67 67 68 68 68 66 64 69 73
49 50 50 50 52 53 53 51 50 49 51 55 54 54 54 55 63 64 58 58 61 62 64 63 63 63 67 68 68 69 65 65 66 67 67 67 68 68 68 68 65 62 62
45 46 47 46 48 49 50 50 50 50 48 48 49 49 49 50 52 51 51 55 59 62 58 61 64 67 70 71 71 70 70 68 67 68 68 69 69 68 68 67 65 64 63
43 43 44 44 45 45 46 46 47 46 45 45 44 47 50 50 50 50 50 50 50 52 57 60 61 64 67 67 70 70 70 70 70 70 69 69 69 68 67 67 68 65 64
41 41 41 41 42 43 45 45 45 46 45 44 43 43 45 48 49 49 48 47 47 51 56 60 62 63 65 68 68 67 67 70 70 70 70 70 69 68 68 67 66 65 66
41 39 38 38 39 41 42 43 44 45 46 47 47 46 46 46 47 46 44 46 53 54 59 61 63 64 65 68 70 69 68 69 69 70 70 70 69 70 69 69 68 67 66
37 36 37 37 38 38 39 42 42 43 44 45 46 46 46 44 44 43 43 49 52 56 59 62 63 64 66 69 70 70 71 70 67 66 71 70 70 69 69 70 70 69 68
35 36 37 36 37 38 38 40 39 41 42 43 45 46 48 46 46 48 50 52 57 57 56 60 62 64 66 69 68 67 67 69 70 69 68 69 70 70 71 70 70 70 69
33 33 35 34 35 35 37 38 39 40 41 41 42 44 43 44 46 47 47 48 49 49 50 53 57 61 66 67 68 68 69 70 70 70 69 69 70 70 71 71 71 70 71
31 32 33 34 34 34 35 36 37 38 39 39 40 42 43 43 44 46 48 48 49 50 50 56 60 60 60 60 60 60 61 62 65 67 68 70 71 71 70 69 70 71 71
32 34 34 34 35 36 35 34 35 37 37 38 39 40 42 43 44 44 45 48 50 51 52 53 52 52 52 54 56 56 55 56 57 57 58 62 65 69 70 70 70 70 71
33 34 35 35 35 35 35 34 35 36 36 37 37 38 39 41 43 44 45 46 48 48 49 49 49 48 48 48 49 51 52 53 53 52 54 57 60 63 65 68 70 70 70
34 35 36 36 36 36 35 34 33 35 36 36 36 37 38 39 41 43 44 45 46 46 47 47 46 46 45 45 45 44 44 43 43 44 48 54 57 59 62 64 65 67 67
36 37 37 37 37 36 35 34 34 34 34 35 36 37 37 38 39 40 42 43 44 44 44 44 44 43 42 41 41 39 38 38 40 43 46 52 55 59 60 60 60 60 60

GFSGL_sfc_30mbdewp_087.txt.gz
Dewpoint
71 71 71 72 72 72 71 72 70 69 69 68 69 66 69 70 70 71 70 69 70 69 69 69 67 70 67 69 69 68 66 67 64 65 68 68 65 65 66 67 70 71 70
71 71 71 72 72 72 73 72 72 69 69 68 64 61 66 69 72 70 69 70 69 68 68 70 67 68 68 70 69 67 68 68 67 64 66 65 66 68 67 67 70 72 71
69 70 71 72 72 72 72 72 72 72 71 71 69 68 70 70 70 71 70 70 71 69 68 69 69 68 68 69 67 68 69 68 69 68 67 68 67 65 65 66 67 70 68
68 67 68 68 70 71 73 72 72 72 72 71 72 71 71 71 71 72 71 69 69 71 70 71 70 67 67 68 68 67 68 68 69 67 67 66 66 66 68 67 64 66 66
66 67 64 68 70 71 70 72 71 72 72 72 71 72 73 72 71 71 72 71 71 70 71 70 71 72 72 71 70 68 68 68 68 68 68 68 68 67 65 69 68 69 67
64 65 66 68 68 68 71 72 71 70 70 72 72 72 71 72 71 70 70 70 71 70 69 70 71 71 72 70 68 70 70 69 69 69 69 69 69 68 70 70 70 67 65
62 62 63 66 66 67 68 67 68 69 72 71 71 71 71 72 71 69 67 67 69 70 71 71 70 70 70 71 70 68 67 67 67 66 65 65 66 67 67 67 67 68 68
61 61 61 61 62 64 65 65 66 67 68 70 71 72 71 72 71 70 70 68 67 68 69 72 72 71 70 70 70 71 71 69 68 67 67 67 67 66 67 67 68 69 70
54 57 60 61 61 61 61 63 65 66 66 67 68 70 70 71 71 70 69 69 69 69 69 69 69 70 71 71 70 70 69 72 73 70 70 69 68 67 67 69 68 69 67
52 53 54 59 57 58 61 61 63 64 65 67 67 68 70 71 71 69 69 70 70 70 70 70 69 68 67 67 68 68 67 68 69 69 69 69 69 69 69 67 68 67 67
52 54 55 54 55 56 56 58 59 58 61 63 66 66 68 70 67 66 66 68 69 70 71 70 70 67 65 64 63 65 66 67 67 67 70 70 69 69 70 69 69 68 68
51 51 52 53 55 54 55 58 55 54 57 60 63 65 67 65 63 61 59 59 60 64 66 68 68 66 64 64 66 67 65 63 65 66 66 67 68 69 69 69 71 70 70
48 48 49 49 49 51 55 54 52 54 53 55 56 54 56 58 66 63 57 57 59 60 62 63 61 61 62 65 66 66 64 63 64 64 65 65 66 67 68 68 68 67 70
45 46 47 47 46 47 48 49 49 50 51 49 48 48 49 49 52 58 56 55 57 60 62 62 60 60 61 63 65 67 67 68 67 66 65 65 66 67 68 68 68 68 67
44 44 43 44 43 43 45 46 46 47 46 45 45 48 47 47 48 52 50 50 52 55 54 57 58 60 60 61 67 71 71 70 67 67 66 66 67 67 67 68 68 68 66
42 42 41 40 42 43 44 44 45 45 45 45 45 45 44 45 48 49 49 48 47 47 52 54 56 58 59 60 62 65 68 69 70 70 69 68 68 68 69 69 69 68 66
42 41 41 40 39 40 40 41 40 42 43 44 44 45 46 45 44 43 43 45 46 47 49 51 55 57 59 60 62 64 66 68 68 68 68 69 70 70 70 69 69 69 67
40 38 38 38 39 39 40 40 40 40 40 41 43 44 45 46 46 45 43 44 45 46 49 52 56 59 61 62 63 64 67 69 67 66 68 67 67 67 65 65 68 68 67
37 37 37 38 38 38 39 39 40 39 40 40 41 42 43 44 45 44 46 46 48 50 51 53 56 60 63 64 65 66 67 69 68 69 68 66 66 64 64 63 65 68 68
36 38 36 36 36 36 37 37 38 38 38 38 38 38 40 41 41 42 43 45 47 48 49 49 49 50 52 55 63 65 65 66 67 68 68 68 65 63 63 63 68 68 67
35 35 35 35 35 36 36 36 36 36 36 37 37 37 39 39 40 40 42 43 44 47 49 49 52 54 58 59 59 58 58 59 60 61 63 64 67 69 69 69 68 67 67
34 35 35 35 35 35 35 35 35 35 35 35 36 36 36 37 37 39 41 42 43 44 44 48 51 52 51 51 51 51 51 51 53 54 56 58 60 64 67 69 68 68 68
34 35 35 35 36 35 35 34 34 33 33 33 34 34 35 36 36 37 38 41 43 44 45 46 48 49 49 48 48 48 48 49 50 51 51 52 55 58 62 65 67 68 67
34 35 36 36 36 36 35 34 33 33 32 32 34 33 33 34 35 36 38 39 40 41 42 44 46 46 46 46 46 46 46 47 48 49 49 48 50 53 56 60 63 65 68
34 35 36 36 37 37 36 35 34 33 33 33 32 34 34 34 34 36 37 37 38 39 41 43 45 45 45 44 44 44 44 42 42 42 42 44 45 48 53 57 60 63 65
33 36 37 37 38 38 37 36 35 34 33 34 34 34 34 33 35 36 37 38 38 39 40 41 43 44 44 44 42 41 40 38 37 36 38 41 43 47 51 55 58 60 61

GFSGL_sfc_30mbdewp_090.txt.gz
Dewpoint
70 70 69 70 70 70 71 71 70 69 69 69 69 69 69 70 71 70 69 69 69 69 69 69 68 68 68 67 69 68 67 67 64 65 68 67 66 66 67 66 66 68 70
69 70 70 70 71 71 70 71 71 70 69 67 68 67 67 69 70 71 70 70 68 67 69 68 69 68 67 69 70 67 68 68 67 65 67 66 66 66 65 65 67 70 70
68 68 69 69 69 70 71 71 72 70 69 68 67 65 62 65 68 71 71 69 69 70 69 67 68 69 68 67 68 67 68 68 69 68 66 68 67 66 67 66 67 67 67
67 66 66 69 69 70 71 71 70 71 69 69 69 68 68 69 70 70 71 70 69 70 70 70 70 69 68 67 67 68 67 67 67 67 67 67 67 68 68 67 67 68 68
66 66 67 68 69 70 71 71 72 71 71 71 71 71 71 71 71 71 71 72 71 69 70 71 71 71 71 70 70 69 68 67 67 67 67 68 67 67 67 68 69 68 67
65 65 66 67 68 68 68 68 69 71 71 71 71 71 70 72 72 70 70 70 71 71 70 70 70 70 70 70 70 70 70 68 67 68 67 66 66 67 67 68 67 65 63
63 63 65 66 66 66 66 67 66 67 69 70 70 71 71 71 71 70 69 69 69 69 70 70 70 71 70 70 70 69 68 68 69 69 67 66 65 66 66 65 65 66 65
62 62 63 63 62 62 63 63 65 66 66 67 68 70 70 71 71 70 69 69 68 68 69 70 71 71 71 70 69 69 70 70 68 67 67 67 67 67 66 66 66 66 68
53 54 57 59 59 62 62 63 63 64 64 66 68 67 68 69 70 69 68 69 69 69 69 69 69 69 70 69 69 69 69 70 71 71 69 69 68 68 67 68 67 67 67
51 53 55 55 55 57 57 58 62 60 59 63 64 67 67 70 65 66 67 69 69 70 70 71 70 69 68 65 67 68 68 67 67 68 69 69 68 68 67 67 68 68 67
51 51 51 50 51 54 55 56 58 54 56 58 61 65 65 63 61 60 60 61 61 64 66 68 70 66 65 63 63 65 66 66 66 66 67 68 69 69 69 68 68 68 68
47 47 47 48 49 49 50 53 53 53 54 53 56 62 64 64 63 59 56 56 57 56 57 61 64 62 60 59 60 64 65 65 65 65 65 66 66 67 68 70 70 69 69
45 45 44 44 44 45 47 47 47 48 47 46 47 48 49 50 57 61 59 55 54 56 59 59 59 59 57 58 59 61 63 64 65 65 65 65 66 67 67 68 69 70 70
43 43 43 42 42 43 45 46 46 45 44 44 45 45 45 46 48 51 54 52 52 54 56 55 55 57 58 59 59 62 65 66 66 66 67 68 68 67 66 67 66 67 67
42 42 41 41 41 41 42 43 43 43 43 43 43 44 45 45 46 45 44 45 49 50 48 51 50 52 53 55 57 59 60 66 69 69 68 68 67 67 66 67 67 67 67
40 40 39 39 39 40 40 40 41 41 42 42 41 42 42 44 44 43 43 44 43 44 48 48 48 49 52 54 57 59 61 63 65 66 68 68 68 68 68 69 69 68 68
39 39 37 38 38 39 39 39 39 40 41 41 41 41 41 41 41 41 42 43 46 45 47 47 48 50 52 55 58 60 62 63 65 67 68 68 68 68 69 69 69 69 69
38 39 37 37 38 38 38 38 38 38 38 38 39 39 39 39 39 39 40 43 44 47 48 49 50 52 54 57 59 62 63 64 66 67 68 67 67 67 66 66 66 66 65
37 36 36 36 36 36 36 37 37 36 36 36 37 37 38 38 38 38 40 41 42 43 44 46 48 48 48 49 51 57 62 63 63 63 64 65 66 67 66 65 65 64 63
38 38 36 35 35 35 35 35 35 35 35 36 36 36 36 36 35 35 37 38 40 41 42 44 47 51 53 54 56 57 57 56 56 56 57 57 60 61 62 63 64 63 64
35 36 36 35 35 35 35 34 35 35 35 34 34 35 35 35 35 35 36 36 37 38 40 42 43 44 46 50 52 52 51 51 51 50 51 51 53 53 55 57 61 63 67
35 35 35 35 35 35 35 35 34 34 33 32 32 33 33 33 34 34 34 35 36 37 38 39 42 44 46 47 50 49 48 48 48 48 49 49 49 50 51 53 55 60 62
35 35 35 35 36 36 35 35 34 33 33 32 32 31 32 32 32 32 33 34 35 36 37 37 39 40 42 44 48 48 47 46 46 47 47 47 48 48 49 49 50 53 57
35 35 35 35 36 36 36 36 35 34 33 33 32 32 31 32 32 32 33 32 34 36 37 37 37 38 39 40 42 43 45 45 46 45 45 44 44 45 47 49 50 52 55
34 35 36 36 36 36 36 36 35 34 34 33 32 32 33 33 33 33 34 33 34 34 35 37 38 39 39 39 40 41 43 43 42 42 42 42 41 41 43 45 47 49 52
33 34 36 36 36 37 37 36 35 34 34 33 33 33 33 32 33 34 34 34 34 34 35 35 37 38 39 41 41 42 40 38 38 37 38 38 38 38 41 43 46 48 51

GFSGL_sfc_30mbdewp_093.txt.gz
Dewpoint
68 68 68 69 69 70 69 69 69 69 68 68 70 70 70 70 70 70 69 69 69 69 69 68 68 68 68 67 69 67 67 66 64 65 67 67 66 66 65 66 67 68 68
69 69 69 69 70 70 69 70 70 70 69 68 69 68 68 69 70 70 70 70 69 68 67 68 68 69 67 67 69 67 67 68 66 64 66 66 66 66 67 66 67 68 67
67 68 69 69 70 70 70 70 70 71 70 69 68 67 67 66 67 70 70 70 69 69 69 69 68 68 68 68 67 67 67 68 68 67 66 68 67 67 67 68 68 67 68
66 67 68 68 68 69 70 70 71 71 70 69 68 67 66 65 64 67 69 70 70 69 70 70 69 69 69 68 68 67 68 67 67 67 66 66 67 68 68 66 66 68 67
66 66 65 68 68 68 68 68 70 71 71 70 69 69 69 69 70 70 70 70 70 70 70 69 70 70 70 70 69 68 69 68 68 67 66 67 66 66 65 67 67 66 66
66 66 67 66 66 66 66 67 67 67 69 70 71 71 70 71 72 71 70 70 70 70 70 70 70 70 70 69 69 69 70 68 68 68 67 66 66 67 67 66 66 65 64
64 64 65 65 64 64 64 64 65 65 66 67 68 70 70 70 71 70 69 70 70 69 70 69 70 70 70 70 70 69 69 68 69 69 67 67 67 67 66 66 66 65 65
60 62 62 63 63 63 63 62 63 63 63 65 66 66 67 69 68 68 68 68 69 68 68 69 69 69 70 70 70 69 69 69 69 68 68 68 68 68 67 67 67 66 66
53 54 55 58 61 60 61 61 62 59 59 60 64 66 67 68 63 65 68 69 69 69 70 70 69 69 69 66 68 69 69 69 70 70 69 69 68 68 67 67 67 67 67
50 50 50 51 53 54 55 57 60 57 58 60 62 67 65 63 59 59 62 64 61 62 65 67 66 66 64 61 64 66 66 67 67 67 67 67 67 67 67 66 68 68 68
47 47 47 48 48 49 52 54 53 54 53 62 64 64 63 62 61 57 56 55 55 54 57 59 62 62 60 59 58 59 63 65 65 67 67 67 67 68 69 68 67 68 67
45 44 44 44 45 47 47 48 47 47 46 47 47 48 51 52 53 51 52 57 55 55 54 57 58 55 54 55 56 58 58 59 62 63 65 66 67 67 67 68 69 69 69
43 42 42 43 44 45 45 45 43 43 43 45 44 45 45 47 47 47 47 48 50 52 55 56 52 52 52 55 56 57 58 60 61 63 64 65 67 67 67 67 67 69 70
41 41 41 40 40 42 43 43 41 42 43 43 43 44 44 45 44 43 42 44 46 48 48 47 49 51 52 54 55 57 59 61 63 65 65 67 68 68 67 68 66 67 67
40 39 39 39 40 40 40 41 41 42 42 41 41 41 42 41 40 40 40 41 44 45 45 49 49 49 49 49 52 54 58 59 61 62 65 66 67 68 68 68 67 67 66
38 37 38 38 39 39 39 38 40 40 40 40 40 40 40 39 39 39 39 40 43 45 47 47 48 49 50 52 53 56 58 60 62 63 64 65 66 67 68 68 69 68 67
38 37 37 38 37 37 37 37 34 37 38 37 38 38 38 38 37 37 37 40 43 45 44 46 48 49 51 53 54 55 55 57 62 63 64 65 65 66 66 66 67 67 67
38 37 36 36 35 35 35 35 35 34 33 34 36 37 37 36 36 36 37 38 38 40 41 42 43 44 46 48 49 52 54 58 59 58 60 61 60 60 62 64 66 65 65
35 34 34 35 35 35 34 34 34 34 34 34 35 35 36 35 35 36 36 37 37 38 39 40 42 43 45 48 48 48 49 52 55 55 55 55 54 54 55 56 56 57 61
37 37 34 33 34 34 34 33 33 33 33 33 33 33 34 34 33 34 35 35 36 36 36 37 38 39 40 42 44 46 49 50 50 51 52 51 51 52 51 51 52 52 55
36 36 36 34 34 34 34 34 33 33 32 32 32 33 34 33 33 32 32 33 34 34 35 35 36 37 37 39 40 41 44 45 48 48 49 48 49 49 49 50 50 50 52
35 35 34 34 35 35 35 35 34 33 32 32 32 32 33 32 32 32 32 32 32 33 34 35 36 37 36 36 36 39 42 43 46 46 46 46 45 46 46 47 47 48 48
34 34 34 35 35 36 36 35 35 34 33 32 33 32 32 32 32 32 32 32 32 33 33 33 34 34 35 36 36 36 37 39 40 42 43 43 41 42 43 43 43 44 46
34 34 34 34 35 35 35 35 35 35 34 33 33 32 32 32 32 32 32 32 32 33 33 33 32 33 34 35 36 37 37 38 39 39 41 42 41 40 39 40 41 42 44
35 34 35 34 35 35 36 36 36 35 34 33 33 32 32 33 32 32 32 31 31 33 33 33 33 34 35 35 36 37 37 37 37 38 40 41 41 41 40 39 38 39 41
37 35 35 35 35 35 36 35 36 35 34 34 34 33 34 34 33 33 32 32 32 32 33 33 34 34 35 35 36 36 35 35 35 35 35 35 36 36 37 38 38 38 38

GFSGL_sfc_30mbdewp_096.txt.gz
Dewpoint
66 66 67 68 69 69 68 68 69 69 69 69 68 69 70 70 70 71 70 69 69 69 69 69 69 69 68 68 69 69 67 66 64 66 67 69 68 67 67 69 69 69 69
68 67 67 68 69 69 69 69 70 70 70 69 69 69 69 69 70 70 70 70 69 68 68 68 68 69 69 68 69 69 68 68 67 65 66 67 67 68 68 69 69 69 69
68 68 69 69 69 69 70 70 70 70 70 69 69 68 68 67 68 69 70 70 70 70 69 69 69 68 68 68 68 68 68 68 68 68 67 68 68 68 68 69 69 68 68
67 67 67 68 68 69 69 70 70 71 71 70 69 68 68 67 66 65 67 69 70 70 70 70 70 69 69 69 69 68 68 68 68 68 68 67 68 69 69 67 67 69 68
66 66 67 67 67 67 67 67 68 69 70 71 70 69 68 67 67 68 68 69 70 70 70 70 70 70 70 70 70 69 69 69 69 68 68 68 68 67 67 68 68 68 68
66 66 66 66 65 65 66 66 66 66 66 67 69 70 70 70 70 70 70 70 71 71 70 71 71 71 70 69 69 69 70 69 69 68 68 68 68 68 68 68 67 67 66
64 65 65 64 64 64 64 63 63 63 64 65 66 67 67 69 66 68 69 70 70 70 70 70 70 70 70 70 70 70 69 68 69 70 69 69 68 69 69 68 68 67 67
57 59 62 63 63 63 62 61 60 61 61 61 64 67 67 65 62 65 66 68 69 69 69 69 69 70 67 67 69 70 70 71 70 69 69 70 70 70 70 69 69 68 68
51 53 53 56 57 59 61 61 59 58 59 59 63 67 60 59 57 58 64 66 65 65 67 67 67 64 61 60 65 67 67 68 69 69 68 68 67 67 67 68 68 68 67
48 49 50 50 52 54 56 58 57 58 60 63 63 63 61 59 51 54 58 59 57 59 60 62 62 58 57 58 58 59 61 65 66 65 66 68 69 69 67 67 68 67 67
46 45 46 47 48 49 49 49 49 49 53 59 55 54 52 50 48 47 50 54 55 56 57 56 58 52 52 52 55 58 57 59 59 60 61 63 66 68 68 69 68 68 67
44 44 44 46 46 47 47 45 45 47 47 46 47 47 50 48 45 44 45 47 50 52 52 56 55 50 50 51 54 55 55 56 60 61 61 61 62 64 67 69 70 70 69
42 42 42 43 44 45 43 43 43 44 44 44 45 45 45 44 42 41 41 43 46 49 51 49 49 50 50 52 52 53 56 60 61 61 62 64 66 66 68 69 69 70 70
41 40 41 41 41 41 42 42 42 41 41 41 42 42 42 40 38 39 40 40 42 47 48 49 50 50 51 52 54 55 57 59 60 61 62 64 66 66 66 69 68 69 68
39 39 39 39 40 40 41 41 41 41 40 39 39 40 38 36 36 38 38 38 42 45 46 49 49 49 49 50 51 54 55 57 57 60 60 61 62 62 63 66 68 67 67
37 38 38 39 38 38 36 36 39 38 37 38 38 38 37 36 36 36 36 38 41 43 46 46 45 47 46 47 48 50 52 54 56 59 59 60 61 61 60 63 64 65 66
36 38 38 36 35 35 35 33 31 34 37 36 37 37 36 36 36 36 36 37 39 41 41 40 42 43 43 46 49 50 51 50 52 52 57 57 57 56 56 57 58 58 57
38 36 34 34 34 34 33 33 33 32 31 33 35 35 35 35 35 36 36 36 35 36 36 36 36 37 38 40 40 41 43 45 47 49 51 52 53 53 53 53 53 54 54
35 34 34 34 34 33 33 33 32 32 32 32 33 33 34 34 34 35 35 34 34 34 34 34 35 35 36 37 38 41 42 43 44 48 50 49 49 50 49 49 49 49 49
34 35 34 34 34 33 33 32 32 31 31 31 31 32 33 32 32 32 32 33 32 33 33 34 35 35 36 36 37 36 38 38 40 42 44 45 46 45 46 46 47 47 47
36 37 35 34 34 34 34 33 32 32 31 31 31 32 33 32 32 32 31 32 32 32 32 32 32 33 34 34 35 36 35 35 36 38 39 40 46 45 45 45 45 44 45
37 37 36 34 35 35 35 35 34 33 32 32 32 33 33 32 32 32 32 32 32 32 32 32 32 32 32 32 33 34 35 36 36 36 37 40 41 41 41 41 40 40 42
36 35 34 35 35 36 37 36 35 34 33 33 33 32 32 32 32 32 32 32 32 32 32 32 32 32 32 32 33 34 33 34 35 36 37 36 37 38 38 39 40 40 38
35 35 34 34 35 35 36 36 36 36 35 34 33 32 32 32 33 33 33 33 32 32 32 32 32 32 32 32 33 34 34 34 36 35 35 35 35 35 36 39 41 40 39
35 35 35 35 35 36 36 36 36 36 36 35 34 33 33 33 33 33 33 33 33 32 32 32 32 33 33 34 33 34 34 33 33 34 34 35 34 34 34 35 36 37 38
38 36 36 35 35 36 36 36 36 36 37 36 35 34 34 34 34 34 34 34 34 33 33 32 33 33 32 33 33 33 33 33 33 33 33 32 32 32 33 34 34 35 36

GFSGL_sfc_30mbdewp_102.txt.gz
Dewpoint
66 65 65 66 66 67 66 65 67 67 69 70 71 71 70 69 69 70 70 68 69 67 68 68 68 70 65 62 62 62 61 61 59 57 59 60 67 67 68 69 65 62 60
66 67 67 64 66 65 67 66 68 67 69 69 69 71 69 68 69 70 68 66 68 67 66 67 67 66 69 68 65 65 64 65 63 62 63 63 63 66 67 69 66 63 64
67 67 68 65 64 65 66 67 68 67 68 68 69 69 67 69 69 69 69 68 68 67 66 66 66 66 67 66 68 66 63 64 65 64 63 61 62 64 65 65 65 65 62
68 68 65 65 65 66 67 68 68 70 67 67 68 69 68 68 69 69 69 69 68 67 68 67 67 67 67 68 67 67 66 66 64 64 62 61 60 62 64 61 59 60 60
67 67 68 69 70 69 68 69 69 69 68 69 68 69 70 69 67 70 70 70 69 68 69 68 67 68 69 70 69 68 68 66 64 62 61 60 59 66 63 62 60 60 62
66 66 67 67 69 69 70 70 70 70 71 71 71 70 70 68 64 66 69 69 70 69 68 69 68 70 70 70 70 70 70 70 68 67 64 62 65 65 63 63 64 63 63
67 67 67 67 67 68 68 68 69 69 69 69 69 70 67 65 61 65 66 70 70 68 69 69 69 67 69 69 69 69 70 69 69 71 69 68 69 69 70 70 69 68 67
67 67 67 66 66 66 66 66 66 66 67 67 67 65 62 58 57 65 69 71 70 69 69 68 67 64 60 60 66 67 69 70 71 71 71 71 71 71 71 70 70 70 70
63 64 65 65 64 64 64 63 64 66 65 67 64 61 58 54 52 57 67 68 67 65 61 61 61 57 52 53 61 62 63 64 63 66 63 60 61 62 65 68 66 68 66
58 58 59 61 64 64 64 62 62 65 64 61 58 55 53 50 47 50 58 61 61 60 59 58 49 51 50 51 57 56 56 54 54 56 59 60 61 62 62 68 68 69 69
55 56 56 57 58 59 59 61 62 58 56 55 52 49 48 48 44 43 47 53 56 53 52 51 51 50 51 51 53 55 53 57 57 56 56 56 58 59 60 63 65 65 63
54 54 55 53 52 56 59 60 58 56 55 54 52 49 47 45 41 40 41 44 50 51 51 51 52 50 50 52 51 53 54 54 50 50 52 55 56 58 59 61 64 65 67
51 52 52 52 53 54 56 54 54 54 54 52 51 48 45 43 42 39 39 42 43 49 48 49 49 49 49 50 50 51 50 49 48 46 49 52 56 58 60 60 61 61 61
49 50 50 50 50 49 48 49 50 50 49 49 48 46 44 40 37 36 37 40 39 41 44 46 45 47 48 47 45 46 47 49 50 51 51 50 50 51 51 52 52 51 53
46 45 45 45 46 47 43 43 42 39 40 45 43 40 40 38 35 37 38 37 38 42 46 41 39 40 40 41 42 42 43 40 41 40 40 41 42 44 45 47 46 45 46
42 41 39 41 41 41 40 37 37 35 34 35 35 36 34 35 35 36 36 36 36 40 38 36 37 37 36 36 37 37 38 39 39 38 38 38 41 42 43 43 43 44 45
40 40 36 36 36 38 36 34 32 34 35 34 34 34 34 34 34 34 35 35 33 34 32 34 34 34 35 35 35 35 36 37 39 37 38 39 39 39 39 38 39 40 40
41 36 35 32 32 33 33 32 30 31 31 31 33 32 33 33 32 33 33 34 32 31 31 32 33 33 34 34 35 35 35 35 35 36 36 35 36 36 36 37 37 39 40
38 32 31 30 30 30 30 29 28 29 29 29 31 33 33 32 32 32 33 31 30 30 31 31 31 32 33 34 34 35 35 33 33 35 34 34 35 35 35 35 36 37 38
37 33 31 30 30 30 29 28 27 28 28 28 28 28 30 32 31 31 33 33 31 31 32 32 32 33 33 34 34 34 33 32 32 32 33 33 33 33 33 33 33 34 34
34 32 32 30 29 29 28 28 27 27 27 27 27 29 32 31 29 30 30 32 31 32 32 33 33 33 33 33 33 33 31 31 32 32 32 32 33 32 33 32 32 32 32
31 31 31 31 30 31 29 29 28 28 28 27 27 28 31 31 29 30 31 31 32 33 32 33 33 32 31 32 33 32 31 31 31 32 32 32 32 32 32 32 32 32 32
31 30 31 31 32 32 31 31 30 30 29 29 27 27 27 28 29 29 30 31 32 32 32 32 32 31 31 32 32 32 31 31 33 33 32 33 33 33 33 32 32 32 34
33 31 31 31 32 32 32 33 33 34 33 32 30 28 29 30 30 32 32 31 31 31 32 33 33 33 33 33 33 33 32 33 33 33 33 33 33 33 33 33 33 34 35
35 33 32 32 31 32 32 33 34 35 34 34 33 31 31 31 32 32 33 33 32 32 32 33 33 33 34 34 34 34 34 33 33 33 34 34 33 32 32 32 33 33 35
41 38 35 34 32 32 32 33 34 34 35 35 34 34 33 32 32 33 34 35 35 34 34 33 33 36 36 35 34 34 33 33 34 33 33 34 34 33 33 34 34 34 35

GFSGL_sfc_30mbdewp_105.txt.gz
Dewpoint
65 64 63 63 63 65 64 65 66 67 68 68 69 69 68 69 69 70 70 69 68 67 67 67 65 67 66 63 63 61 58 58 57 58 59 60 66 66 65 67 65 67 61
66 65 65 65 64 62 64 64 66 68 69 69 69 68 68 68 69 69 70 65 66 66 66 66 66 64 67 68 65 66 62 65 61 63 62 62 63 64 64 68 64 62 62
66 66 67 65 64 63 62 64 65 67 68 68 68 68 68 68 67 69 69 67 66 65 65 66 66 66 66 67 68 66 63 65 67 64 61 60 60 62 63 65 66 65 60
68 68 68 67 65 65 67 64 65 67 67 67 68 68 68 67 68 67 68 68 67 66 66 68 67 66 67 67 67 68 67 67 63 64 64 62 61 66 66 60 59 58 60
68 68 67 69 68 67 67 68 65 65 66 67 67 69 67 66 65 69 67 68 69 67 66 67 66 69 68 69 68 68 69 67 64 64 62 60 61 65 62 61 61 61 63
67 68 69 69 69 69 68 69 69 68 67 67 67 68 68 67 64 65 68 69 69 69 69 66 66 69 70 71 70 70 71 71 69 68 66 63 67 66 66 66 68 66 65
67 67 68 68 67 69 70 70 69 69 69 69 69 70 70 68 60 63 67 69 68 70 69 69 69 69 69 69 69 69 69 69 69 71 70 69 69 71 71 71 69 69 68
67 66 67 67 67 68 68 68 68 69 68 69 68 67 64 60 55 58 64 71 71 72 71 71 70 68 55 55 63 66 67 68 70 70 71 69 68 65 66 67 69 70 70
67 66 67 67 67 66 65 66 66 67 67 66 65 63 60 57 49 52 61 70 69 67 65 60 63 57 50 51 62 62 62 63 59 60 60 58 58 58 60 64 63 68 68
64 65 66 66 65 64 64 64 64 65 64 63 59 58 53 53 45 48 55 64 65 62 58 54 50 52 50 52 60 56 54 52 54 58 61 61 61 63 61 65 67 65 65
59 60 60 61 61 63 63 64 63 62 60 59 56 53 51 49 43 43 47 55 56 58 57 55 52 49 50 50 52 54 51 54 56 57 53 56 58 59 60 62 65 63 61
58 58 58 58 57 59 62 61 60 59 58 57 55 52 50 47 41 39 41 44 50 52 51 51 51 48 48 50 50 48 49 51 50 46 46 50 54 54 54 57 64 62 59
56 56 56 55 57 60 60 60 58 58 57 56 55 52 49 46 45 39 39 41 41 49 45 48 47 47 47 49 50 47 49 49 49 51 51 50 46 49 55 53 52 54 53
52 53 53 53 54 55 56 57 56 55 54 53 52 51 48 45 42 39 40 41 41 43 46 49 42 44 45 46 46 47 46 43 43 41 41 41 42 42 43 45 44 44 44
50 49 48 47 49 49 42 38 45 39 38 42 48 47 44 44 38 36 37 36 37 40 45 42 42 43 40 40 41 42 41 41 40 39 39 38 39 40 42 43 41 41 42
46 46 44 43 44 42 43 39 34 35 35 35 35 38 34 34 34 35 35 35 35 36 40 37 36 36 37 37 37 37 38 40 39 39 39 39 39 39 39 39 39 40 40
43 43 40 38 38 40 39 38 35 32 34 33 33 32 31 33 34 34 34 34 33 34 35 35 35 36 36 36 36 36 36 38 40 38 38 38 36 36 37 37 38 38 38
43 37 38 34 34 35 36 35 33 31 31 30 32 31 31 32 32 33 33 34 34 32 32 33 33 34 35 36 35 35 36 35 35 36 35 35 35 35 35 35 35 35 35
39 33 32 32 32 31 32 32 30 30 31 32 30 31 31 32 33 33 33 34 30 30 31 32 32 33 35 35 36 36 36 34 34 35 34 34 34 34 33 33 33 33 33
40 35 33 31 31 31 30 30 28 28 29 29 30 30 32 34 35 34 34 33 32 31 33 33 34 35 36 36 36 35 33 33 33 33 33 33 33 33 32 32 32 32 32
36 35 33 31 31 29 29 29 29 28 28 28 29 31 31 34 29 30 31 33 31 32 34 34 35 35 34 35 35 33 32 32 32 33 32 32 32 32 32 32 31 31 31
36 33 32 31 31 31 31 30 29 29 28 29 28 26 30 33 29 30 31 31 32 33 33 35 33 32 32 33 33 32 31 31 32 32 32 32 32 32 32 31 31 31 31
35 31 32 31 32 32 32 31 30 29 28 28 28 28 26 30 28 29 30 30 32 32 33 32 32 30 31 32 32 32 31 31 32 33 32 32 32 32 32 32 32 32 32
36 34 32 31 31 31 31 31 31 31 31 30 30 28 28 28 29 30 30 30 31 32 32 33 32 33 34 34 32 32 31 33 34 32 33 33 33 34 33 33 33 33 33
38 37 34 33 33 32 31 31 31 32 32 32 32 31 30 30 30 31 32 33 33 33 33 33 33 32 33 34 35 35 34 32 33 33 33 34 33 34 34 34 34 35 35
42 39 37 36 35 35 33 32 32 32 33 33 33 33 32 31 31 32 33 34 35 35 35 35 34 34 36 35 35 34 33 32 33 33 34 32 34 36 36 36 36 36 36

GFSGL_sfc_30mbdewp_108.txt.gz
Dewpoint
68 68 69 68 69 68 68 68 64 65 71 64 71 70 70 70 70 70 71 70 69 69 70 68 68 68 69 69 69 68 64 65 63 65 64 65 66 69 68 68 69 67 67
65 67 68 67 66 68 67 68 68 70 71 71 71 71 70 70 70 71 71 70 69 68 68 68 68 68 68 70 69 69 68 68 67 64 68 64 65 67 70 68 69 64 65
69 69 68 66 67 65 66 66 68 70 70 70 70 70 70 70 70 71 71 71 69 68 68 68 68 68 68 68 69 70 69 69 69 68 67 66 65 68 68 68 66 69 68
69 68 66 68 66 67 67 68 69 70 69 70 69 69 70 70 70 69 70 70 70 69 69 68 66 68 68 69 68 69 69 69 68 67 66 67 66 69 69 68 67 69 68
68 69 68 68 69 70 68 69 68 69 69 69 69 69 69 69 65 67 70 69 69 69 71 71 70 69 68 68 68 69 71 71 70 68 68 67 67 69 69 70 70 70 70
68 67 67 68 69 69 68 69 69 70 68 68 68 68 68 64 62 64 66 71 69 69 69 69 69 71 70 70 70 70 70 70 70 70 69 68 69 71 71 71 71 70 68
68 68 68 69 68 69 69 69 69 69 69 69 70 71 68 61 56 59 64 69 70 70 71 70 69 65 59 63 66 68 69 69 69 70 70 70 70 70 69 68 68 69 68
68 68 68 68 68 67 67 67 68 69 69 70 68 67 64 55 52 55 61 68 71 71 70 70 65 58 51 54 63 67 67 68 68 66 64 63 62 62 63 64 66 68 69
68 67 67 67 67 67 67 67 67 67 67 66 64 61 59 53 47 51 59 71 69 64 59 57 59 54 52 54 64 60 61 59 52 56 59 59 59 58 59 61 66 66 65
67 67 67 67 67 66 65 65 66 67 65 62 58 55 55 52 43 49 59 68 66 60 56 52 50 51 49 50 58 57 52 53 53 57 59 62 65 64 62 63 67 64 63
61 64 66 66 66 65 65 66 65 63 59 57 56 53 49 49 42 43 48 55 56 55 59 55 51 47 48 50 50 53 48 50 52 55 56 59 58 56 59 59 65 60 59
60 60 60 60 61 64 63 61 62 60 58 57 56 54 51 46 41 40 41 43 51 55 53 54 51 45 47 48 50 48 48 51 55 53 50 49 49 51 55 58 59 55 54
57 57 58 60 61 62 61 61 59 59 58 57 57 54 52 51 46 40 40 40 42 51 46 45 46 46 48 52 49 48 49 47 47 46 47 48 48 49 51 51 50 50 50
55 56 56 56 53 48 49 54 53 46 53 57 57 54 51 49 46 43 44 45 42 47 47 49 45 46 46 45 46 47 46 46 45 44 45 45 46 45 46 45 46 46 45
52 51 52 52 52 45 38 40 41 37 38 42 43 43 47 48 38 36 35 38 39 41 41 48 44 44 43 43 43 43 43 43 41 42 42 42 42 42 40 43 43 43 43
50 50 50 52 50 47 46 38 34 35 35 34 34 39 33 33 34 34 34 35 35 36 43 45 41 40 41 40 41 43 43 43 43 43 43 42 43 41 40 42 41 40 40
46 45 42 41 48 45 43 41 38 33 33 31 30 30 30 29 31 32 33 34 35 35 41 42 41 40 40 41 40 40 40 40 42 42 40 40 39 38 38 38 38 38 37
42 38 37 42 38 41 43 40 38 35 35 34 31 31 30 31 32 32 33 34 38 35 38 38 38 38 39 39 39 39 39 38 39 39 39 39 38 37 36 36 36 35 36
43 42 36 37 37 33 36 36 35 35 37 34 29 30 31 31 32 33 34 36 40 34 35 35 36 38 39 40 40 39 39 37 38 38 38 37 36 35 35 34 34 34 34
43 36 34 37 36 34 34 33 33 32 33 37 36 36 32 34 36 38 38 37 35 35 36 37 38 39 40 40 39 38 37 36 37 36 36 35 35 34 34 33 33 33 33
40 39 34 34 33 33 33 32 32 31 31 32 35 32 32 37 38 35 35 36 35 36 37 38 39 39 39 39 38 35 34 34 35 35 34 34 34 33 34 34 33 33 33
38 36 36 34 33 34 34 34 32 32 32 32 32 26 24 33 35 34 36 35 36 36 38 38 36 35 36 36 35 34 32 33 34 34 33 33 33 33 33 33 33 33 33
39 36 35 33 34 34 35 35 34 32 32 32 32 29 23 27 33 33 34 35 35 36 36 35 34 33 34 34 34 33 32 33 33 33 33 33 33 33 33 33 33 33 33
41 38 35 35 36 34 34 34 34 33 33 32 32 32 31 30 33 34 33 34 34 35 35 34 34 33 36 35 34 33 35 35 34 32 34 34 33 33 34 34 35 35 35
42 41 40 38 36 35 34 33 33 33 34 34 34 34 32 32 33 37 35 35 35 36 36 35 35 35 35 35 35 36 34 33 33 32 34 34 33 34 34 36 36 37 36
46 44 42 41 40 38 37 35 35 35 34 35 35 36 36 34 34 36 36 37 37 37 37 36 36 35 35 36 36 36 33 32 33 33 34 33 32 34 35 36 36 37 37

GFSGL_sfc_30mbdewp_111.txt.gz
Dewpoint
70 69 69 69 69 69 69 69 67 65 68 69 69 69 70 68 70 70 70 68 69 69 69 68 67 69 69 68 70 70 68 68 64 64 66 67 66 67 68 70 69 69 66
69 69 69 69 69 69 69 68 66 67 69 70 67 70 69 69 70 70 69 71 69 68 68 68 68 69 68 69 69 69 68 69 67 64 67 67 66 67 65 66 69 69 68
68 69 69 68 68 67 68 69 69 68 71 71 70 69 70 70 69 70 71 70 69 70 69 68 67 67 68 67 68 69 67 69 67 68 67 68 68 67 64 67 69 70 70
69 68 68 68 68 68 68 66 70 70 69 69 70 70 69 70 68 70 71 70 69 69 70 70 68 66 68 68 68 68 70 69 70 69 68 68 68 70 70 69 69 70 70
68 68 67 66 69 69 69 67 69 70 69 69 69 70 68 66 64 65 68 71 69 68 69 69 70 70 69 68 68 68 69 69 68 69 68 68 68 69 69 70 69 70 68
68 67 68 68 67 68 69 69 69 69 68 68 68 69 64 61 59 62 66 68 70 69 69 70 66 64 66 67 67 68 69 68 67 68 69 68 69 70 69 64 66 66 66
68 67 67 67 66 67 67 68 68 67 68 67 69 64 58 55 55 59 63 66 69 70 70 69 62 55 54 59 64 68 68 67 68 69 68 67 65 64 63 62 63 66 66
67 68 68 68 67 67 66 66 67 69 68 68 65 63 56 50 52 56 60 66 65 63 64 60 54 51 54 60 63 61 61 54 51 56 60 60 61 60 61 61 62 67 67
67 68 68 68 66 66 66 66 67 68 65 64 62 59 53 47 50 56 65 66 62 57 56 55 51 49 51 59 56 52 49 45 50 53 55 59 62 61 59 63 64 63 61
67 67 68 67 67 66 66 66 67 64 62 59 56 55 49 43 46 53 62 65 57 51 50 49 49 48 49 50 54 46 41 47 50 55 57 54 61 61 61 65 61 57 55
66 67 67 66 66 65 65 65 64 61 58 56 53 48 47 44 41 46 52 55 58 57 54 48 46 47 47 49 52 48 48 50 53 50 49 49 50 50 54 54 56 52 52
61 62 62 64 64 64 64 64 61 59 58 57 54 50 45 40 41 41 42 48 54 53 51 49 46 46 48 49 49 49 48 48 48 47 46 46 47 49 45 47 48 47 53
59 60 62 58 60 62 61 60 60 59 58 57 55 53 51 47 42 44 42 42 46 45 47 44 45 47 47 47 46 45 45 44 44 44 45 46 46 44 43 45 44 46 48
56 57 56 49 46 43 45 46 47 46 49 50 56 52 50 48 43 41 42 46 46 44 47 47 45 45 44 44 43 43 43 43 41 41 40 42 41 39 40 43 41 42 42
53 54 55 50 44 38 37 41 37 35 38 41 43 46 50 43 36 33 34 35 36 37 40 48 44 43 42 40 42 42 42 42 41 42 42 42 42 41 41 42 42 40 39
49 51 52 54 49 43 41 34 35 34 33 34 38 31 30 34 34 34 34 34 34 36 41 45 40 43 40 40 42 43 41 40 44 43 41 40 39 39 39 39 38 37 36
44 44 44 46 49 47 44 40 34 31 33 30 29 30 31 28 31 32 32 33 35 36 39 45 41 42 40 41 42 40 40 40 40 40 39 38 37 37 37 35 36 36 34
45 39 37 42 45 47 46 44 38 35 35 32 30 29 29 30 31 31 33 34 38 36 40 40 39 39 39 40 39 39 38 38 39 39 38 36 35 36 35 35 35 35 34
41 38 37 41 36 37 40 38 39 38 37 33 24 27 28 29 30 32 33 33 36 40 37 39 40 40 40 40 39 40 37 39 38 36 36 35 35 35 34 34 34 34 34
43 37 35 38 35 33 34 34 35 38 36 33 29 28 30 32 32 34 37 41 41 39 39 39 40 40 40 39 38 38 38 37 36 35 35 35 35 34 34 34 34 34 34
43 40 34 34 36 33 34 36 31 32 34 39 38 34 32 35 38 36 39 37 39 39 40 40 40 40 40 38 37 36 37 36 35 35 34 34 34 34 34 34 34 34 33
43 40 38 35 35 36 34 35 36 35 33 36 32 32 32 32 34 35 39 36 37 39 39 40 39 39 38 36 36 34 36 35 34 34 34 34 34 34 34 34 34 34 34
44 39 38 36 34 35 36 34 35 34 33 33 33 26 23 24 30 35 37 37 36 37 37 38 36 36 36 36 34 33 35 34 34 34 34 34 34 33 34 34 34 34 35
44 42 39 37 35 34 34 36 36 34 35 35 36 32 28 25 24 32 37 36 37 38 36 35 36 37 36 35 35 37 36 34 33 34 34 34 34 34 34 34 35 36 36
45 45 43 39 38 36 36 36 36 35 35 35 35 34 32 31 32 37 37 36 35 36 36 35 36 36 36 35 34 34 33 32 32 31 33 34 33 33 34 35 36 36 36
49 47 45 45 43 41 38 36 36 36 35 35 36 36 36 34 34 37 35 36 36 36 36 36 36 37 36 36 37 35 33 32 31 32 33 33 32 33 34 35 36 36 36

GFSGL_sfc_30mbdewp_114.txt.gz
Dewpoint
69 69 68 69 69 68 67 67 66 63 63 64 68 68 69 70 69 70 70 68 68 69 69 68 67 69 69 70 69 69 68 67 62 64 67 67 67 66 65 69 70 70 69
70 69 68 69 69 67 67 67 68 65 64 67 68 68 68 70 70 69 69 71 68 67 67 68 67 69 68 69 69 68 68 68 65 64 66 67 67 67 67 69 70 71 70
69 69 68 68 69 68 68 68 67 66 65 67 68 66 68 70 70 70 70 70 70 69 69 68 68 67 67 67 68 68 68 69 69 68 67 68 68 69 69 70 70 70 70
69 69 69 68 68 68 68 69 67 66 65 67 70 70 70 69 67 68 70 71 69 69 70 69 69 68 68 67 68 69 69 68 69 67 67 68 68 70 70 69 64 68 68
66 68 69 69 69 69 69 69 70 69 69 70 69 69 66 66 65 66 67 68 70 68 69 70 69 69 68 69 68 68 68 67 67 67 67 68 68 69 67 66 65 67 67
65 67 69 69 69 69 68 68 69 69 68 69 69 66 63 61 58 61 65 67 69 69 68 66 64 66 66 64 66 68 68 68 67 68 68 67 67 66 65 62 64 65 65
67 68 68 67 67 67 68 68 68 68 69 68 65 62 59 58 56 58 61 64 68 69 69 65 58 55 58 63 66 58 55 59 66 68 65 63 62 61 61 60 62 65 66
67 67 67 67 68 67 67 67 68 68 68 68 64 61 56 54 54 58 63 66 65 64 62 58 53 57 60 62 61 58 49 49 51 53 55 57 59 60 61 61 64 64 65
67 67 67 68 67 66 66 66 67 67 67 66 63 58 53 49 53 63 66 62 60 57 54 51 50 52 56 53 48 43 44 51 54 56 57 60 60 60 62 60 57 53 54
67 67 68 67 66 66 65 66 66 64 62 60 56 50 45 48 51 60 66 60 53 49 48 49 49 49 50 50 46 44 49 51 51 49 49 50 52 50 51 54 54 50 53
68 68 68 67 66 65 65 65 63 60 57 54 50 48 44 43 46 52 60 58 53 50 46 45 46 47 48 49 49 50 50 51 48 47 47 47 47 45 46 48 51 51 48
63 63 64 65 65 65 64 62 61 59 57 53 48 44 41 41 41 45 53 56 57 52 50 47 47 50 48 48 47 47 46 46 46 45 45 43 42 42 44 45 49 50 46
58 57 55 55 56 58 62 61 59 58 58 56 53 49 45 43 45 44 46 47 47 45 44 45 48 46 45 45 45 43 43 43 42 41 39 39 41 41 42 42 43 43 40
56 53 52 51 50 50 50 48 48 50 55 57 55 52 48 44 41 41 42 43 41 43 46 46 46 45 44 42 41 42 42 41 40 40 40 41 41 41 41 40 38 40 36
56 54 51 49 49 46 43 44 43 39 39 42 48 51 48 43 36 34 36 36 36 36 42 47 44 42 40 41 41 42 43 43 41 41 40 39 39 39 38 38 37 36 36
52 54 51 48 45 43 41 40 38 38 37 38 36 40 38 38 33 33 34 34 34 36 43 43 42 40 40 41 41 40 41 43 42 40 38 38 37 36 36 36 36 35 35
44 45 47 52 48 44 40 33 32 31 35 34 34 33 28 28 32 32 32 34 36 36 42 44 42 42 43 43 40 39 39 40 39 38 36 36 36 36 35 35 34 35 35
41 38 40 43 50 48 45 43 36 29 27 26 31 30 30 30 31 32 33 37 37 38 41 42 40 40 40 39 38 38 38 38 37 36 35 35 35 35 34 34 35 34 34
38 36 38 36 36 39 41 42 43 38 37 33 23 27 30 31 31 32 33 33 35 40 41 40 40 40 39 39 39 38 38 36 35 35 34 35 35 34 34 34 34 35 34
43 37 35 37 35 34 34 34 34 40 38 32 25 23 29 30 30 35 39 41 41 39 41 40 40 40 39 38 39 38 36 35 34 34 34 34 34 34 34 34 33 33 33
44 42 36 34 34 36 34 35 35 34 37 37 33 34 30 26 33 36 38 38 39 39 40 40 40 39 39 38 38 37 36 35 35 34 34 34 34 33 34 34 34 34 34
45 42 39 37 34 34 35 35 34 35 35 35 36 36 33 36 35 34 39 40 40 40 40 41 41 40 38 37 37 37 36 35 34 34 34 34 34 33 34 34 34 34 35
45 43 40 38 36 33 34 35 34 35 35 35 33 33 32 30 29 34 39 39 39 38 38 39 39 38 37 36 36 36 34 34 33 34 34 34 34 33 34 34 35 35 36
46 45 42 39 37 35 33 33 35 34 34 35 35 32 28 26 28 33 39 38 38 37 38 37 37 36 36 35 35 35 35 33 33 34 34 34 34 34 34 34 35 36 36
47 45 44 43 41 38 36 34 35 36 35 34 35 36 35 32 27 30 38 38 38 37 36 36 37 36 35 35 35 35 33 32 33 33 34 34 33 32 33 34 35 35 36
50 48 46 46 45 43 40 38 37 37 37 36 35 36 36 33 31 34 37 37 37 37 36 36 36 36 36 35 35 34 32 31 31 31 33 33 31 31 33 34 35 35 35

GFSGL_sfc_30mbdewp_117.txt.gz
Dewpoint
67 67 67 67 68 68 67 67 67 67 65 65 65 68 68 69 70 69 69 69 67 69 69 68 67 68 68 69 69 69 68 66 62 64 66 68 67 66 68 70 70 70 69
67 67 68 68 68 67 67 67 67 65 64 63 65 68 67 69 69 69 69 69 69 67 67 68 67 68 67 68 68 67 67 67 65 63 66 67 67 69 69 69 68 69 70
68 68 68 68 68 67 67 67 67 67 65 65 68 67 67 68 70 70 69 69 69 69 68 68 67 67 67 67 67 67 67 68 68 67 65 68 68 70 69 68 65 68 69
68 69 68 68 68 68 68 67 67 67 66 65 67 68 68 70 68 68 69 70 70 69 69 69 69 68 67 67 67 68 68 67 68 66 66 67 68 69 69 65 64 67 67
68 68 68 69 69 69 68 68 68 68 66 66 68 69 68 67 66 66 67 68 64 69 69 69 68 68 68 69 68 68 67 66 66 66 66 67 67 65 64 64 65 66 67
68 68 69 69 69 69 69 68 69 69 69 69 69 67 64 61 59 63 64 66 68 69 68 67 66 67 66 66 67 68 68 67 67 67 67 65 64 62 62 61 63 64 61
67 67 68 69 68 68 68 69 68 68 68 67 66 63 61 60 57 58 61 64 66 69 68 65 59 58 62 64 57 55 56 59 66 67 64 61 60 60 60 59 62 64 58
66 67 68 68 67 68 68 68 68 68 68 67 65 62 59 57 56 58 60 64 66 64 65 60 57 59 61 64 57 49 49 51 53 54 56 57 58 60 61 61 63 63 66
67 67 68 68 67 67 66 66 67 68 68 66 64 61 59 57 55 61 65 63 60 57 55 55 56 57 56 58 55 45 53 53 53 55 55 53 52 54 59 59 53 52 54
67 67 68 67 67 66 66 66 66 65 64 62 59 56 55 55 55 62 63 60 57 54 52 51 51 51 49 45 43 47 53 50 49 48 47 46 47 49 51 53 52 50 52
67 68 67 67 66 66 66 65 62 60 57 54 50 46 44 45 50 60 59 56 54 51 48 46 48 48 48 49 49 50 50 49 47 45 44 44 44 47 49 46 44 44 40
64 64 66 65 66 65 64 62 59 56 53 50 46 43 41 43 47 53 57 55 54 48 46 46 49 49 48 47 50 51 49 47 46 42 41 41 41 43 44 43 42 41 42
58 57 56 56 57 60 62 61 59 58 55 50 46 43 43 44 44 47 50 52 50 46 46 49 47 46 45 45 45 45 45 44 41 39 39 40 41 42 42 42 40 38 39
55 54 55 55 54 53 52 52 54 56 57 56 52 49 45 42 41 43 43 43 45 46 48 47 46 44 43 42 42 42 41 41 40 40 40 41 40 39 37 38 37 38 36
53 52 51 51 49 47 45 46 46 43 45 50 49 50 47 44 37 37 38 38 38 41 45 44 42 41 40 40 42 43 43 42 40 39 39 38 37 36 35 36 36 36 36
52 50 50 48 48 47 46 45 39 40 40 39 39 44 40 39 32 32 33 33 34 37 45 44 42 40 40 40 40 42 42 40 39 38 37 36 35 35 34 35 35 35 35
42 41 50 47 44 41 38 37 38 34 34 34 35 35 32 33 33 33 32 34 35 37 42 42 41 40 41 40 39 39 39 38 37 37 36 35 35 35 34 34 34 34 34
38 41 42 49 49 45 42 39 31 28 27 26 29 28 29 30 31 31 33 37 35 35 41 43 42 42 42 39 39 38 38 36 35 35 35 34 34 34 34 34 33 33 33
36 36 37 37 39 43 44 44 42 37 36 32 23 25 28 30 31 32 33 35 37 40 42 41 41 41 39 38 38 38 37 35 34 34 34 34 34 34 34 34 35 34 34
41 38 36 36 34 33 35 33 34 40 38 33 26 23 27 31 30 35 40 40 40 41 41 40 40 40 39 38 39 38 36 35 34 34 34 34 34 34 33 33 33 33 34
44 41 37 34 34 35 34 35 35 34 36 36 34 32 28 26 29 36 37 39 40 41 40 40 40 39 39 39 38 36 35 35 34 33 34 34 34 33 34 34 34 34 35
44 43 40 37 35 33 34 34 34 34 34 35 36 36 37 32 37 36 37 39 40 41 41 40 40 39 39 38 38 37 36 35 35 34 34 34 34 34 34 34 35 35 35
46 43 41 39 37 35 33 35 34 34 34 34 34 34 34 32 34 32 33 40 41 40 41 41 40 39 38 38 39 37 35 34 34 34 34 34 34 34 34 34 35 35 35
47 45 43 41 39 37 35 34 34 35 35 35 35 34 32 31 30 28 34 39 40 40 40 40 40 38 37 36 37 36 35 34 34 34 34 33 33 34 34 34 35 35 35
50 47 46 44 42 41 40 38 36 34 35 36 35 35 36 36 34 31 31 39 39 38 38 38 38 37 35 35 35 35 34 33 33 34 34 34 34 33 33 34 35 35 35
51 50 49 47 45 44 44 42 41 39 37 36 36 36 36 36 35 32 30 36 38 38 37 37 37 36 35 35 35 35 33 31 32 32 33 34 32 31 32 33 34 35 34

GFSGL_sfc_30mbdewp_120.txt.gz
Dewpoint
66 66 67 67 68 68 68 68 67 67 66 65 67 68 69 69 70 70 70 69 68 68 69 69 67 68 68 69 70 69 68 66 64 64 67 69 69 69 70 69 69 70 70
66 66 67 67 68 68 67 68 68 67 67 65 65 65 68 68 70 69 69 70 69 68 68 68 68 68 68 69 69 69 68 68 66 64 67 68 68 70 70 67 69 69 70
66 66 67 67 67 67 67 67 67 67 65 65 64 65 67 68 69 70 69 69 69 69 69 68 68 68 68 68 68 68 68 69 69 67 66 68 69 71 69 67 68 68 66
67 67 67 67 67 68 68 67 67 67 66 66 65 68 68 67 69 70 70 70 70 70 70 70 69 69 68 68 67 68 68 68 68 67 66 68 69 70 68 66 66 68 62
67 67 67 68 68 69 68 68 68 68 67 67 66 68 69 69 67 67 68 69 67 66 68 69 69 69 68 69 68 68 68 67 67 67 67 67 68 63 64 65 66 67 64
68 68 68 69 68 68 68 68 69 69 68 67 68 68 67 64 61 64 65 67 68 67 68 68 67 67 67 67 68 68 69 67 67 67 67 67 64 63 63 62 64 66 60
68 68 69 69 69 68 69 69 69 68 68 68 67 66 63 62 58 59 61 65 66 68 69 67 64 61 63 63 61 61 60 62 67 68 66 64 61 62 62 61 64 63 54
67 67 68 68 69 69 69 68 69 69 67 66 66 65 63 60 57 57 59 62 66 66 67 64 60 60 62 62 55 52 54 57 57 55 60 59 60 61 62 62 64 64 60
65 66 67 67 68 68 67 67 68 68 68 67 65 64 63 61 60 62 65 64 61 60 60 59 60 60 58 61 58 52 55 53 51 51 51 51 53 56 61 61 55 58 57
66 66 67 68 67 67 67 67 66 67 66 65 62 61 61 60 59 61 64 62 59 56 54 53 52 54 49 52 55 52 53 52 51 49 49 50 51 50 49 54 54 53 52
64 66 67 67 67 67 66 66 64 63 61 60 59 56 55 54 55 59 62 62 60 57 53 49 49 49 48 48 48 54 52 51 47 46 46 48 48 46 45 45 46 45 42
63 64 65 66 66 65 64 62 60 59 57 54 50 46 45 48 51 59 60 58 55 53 49 47 49 48 49 51 52 50 48 47 46 44 43 45 43 42 42 43 44 43 42
58 57 57 58 58 61 62 60 59 57 55 51 47 44 44 45 48 52 54 53 51 48 49 50 48 46 46 47 47 46 46 45 42 41 41 42 43 43 43 41 41 41 40
55 54 54 54 54 54 53 54 56 58 57 54 51 49 47 47 45 44 46 49 48 49 49 47 46 44 44 44 44 44 43 42 42 42 42 41 41 39 39 40 39 38 35
54 53 52 51 50 49 46 48 48 44 47 53 52 51 46 43 38 37 39 39 41 45 46 44 42 42 42 42 44 44 44 43 42 41 40 38 37 37 37 38 37 37 34
48 48 49 49 48 49 49 46 42 44 44 44 45 46 43 39 34 32 32 34 35 40 46 43 42 42 41 42 43 43 42 40 40 39 38 37 36 36 36 36 36 35 33
43 49 46 44 41 39 38 40 41 35 35 36 39 42 42 44 37 33 32 35 34 37 43 44 43 42 41 41 41 41 39 39 40 38 38 37 36 36 34 34 34 34 33
40 41 48 49 45 42 41 35 32 30 27 27 29 28 31 32 30 30 32 36 34 35 38 43 42 42 41 40 40 39 38 37 37 37 36 36 35 34 33 33 34 33 33
36 37 38 38 40 44 43 44 41 38 36 32 25 26 29 30 31 32 33 34 36 38 40 43 43 43 41 40 41 39 37 36 36 35 35 35 35 35 34 34 35 34 35
39 38 37 35 34 35 35 34 36 39 39 35 30 26 29 30 29 37 40 40 41 39 42 43 42 43 41 41 40 39 38 36 35 35 35 35 35 34 33 34 34 34 35
43 40 37 34 36 34 35 35 34 34 35 36 35 33 28 26 30 37 36 38 40 42 43 42 42 41 41 41 41 39 37 36 35 35 35 35 35 34 35 35 35 35 35
44 42 40 37 36 35 35 35 35 35 35 35 36 37 37 31 37 38 36 39 41 43 43 43 42 41 41 41 40 38 37 36 35 35 35 35 35 35 35 35 35 36 36
47 45 42 40 39 36 34 35 34 34 34 35 35 35 35 36 33 35 34 36 42 42 43 42 42 41 40 41 40 38 36 36 36 36 35 34 34 35 35 35 35 35 35
49 47 45 42 41 39 37 36 35 34 35 35 36 36 35 35 35 35 34 35 41 42 42 43 42 40 40 40 40 39 37 37 37 35 35 35 34 35 35 35 35 35 35
51 49 47 46 44 43 41 40 40 38 37 37 36 37 37 37 36 35 35 34 40 42 41 42 42 41 40 38 38 38 36 35 34 35 35 35 34 35 34 34 35 35 35
52 50 49 48 47 46 44 44 44 44 42 40 39 38 38 38 38 38 37 35 37 40 40 40 40 40 39 38 37 37 34 33 33 33 34 34 34 33 32 33 34 34 35

GFSGL_sfc_30mbdewp_123.txt.gz
Dewpoint
65 66 67 68 69 69 69 69 70 69 69 68 69 69 70 71 71 72 72 71 71 70 70 71 70 71 68 68 69 70 68 68 64 64 67 69 71 71 70 69 69 70 64
65 66 67 68 69 68 69 69 70 70 70 70 68 68 68 70 71 71 70 68 70 69 69 70 70 68 70 70 69 70 70 69 67 66 67 68 69 71 69 70 68 69 62
65 66 66 66 67 67 68 69 69 70 69 69 67 67 67 67 70 71 72 70 68 69 70 70 69 70 70 68 70 69 67 70 68 69 66 68 69 70 67 69 68 67 67
66 66 66 66 66 67 68 69 69 70 69 68 68 67 67 69 69 70 71 71 71 70 70 70 70 70 69 69 69 70 68 69 69 67 66 65 67 70 66 66 65 65 66
68 67 67 68 68 68 68 69 69 70 69 70 69 68 69 70 69 70 70 70 70 70 70 71 71 71 69 70 69 69 70 69 68 67 64 66 67 65 64 66 67 63 64
68 68 69 69 69 69 69 69 70 70 70 70 69 69 69 69 64 65 67 69 69 69 67 68 71 68 68 67 68 69 70 69 68 68 68 67 67 64 64 63 65 66 60
69 69 69 70 70 69 69 70 69 70 71 70 70 70 69 68 60 60 61 66 68 69 69 70 70 67 66 68 64 65 64 64 66 70 68 68 65 64 64 65 66 63 58
68 68 69 69 69 69 69 69 69 69 67 70 70 68 67 65 60 59 60 64 66 68 69 70 70 66 66 66 62 61 60 60 62 59 63 64 64 64 65 65 67 61 59
66 66 67 67 67 67 67 68 69 69 68 67 68 68 67 65 60 60 64 66 65 64 64 63 65 65 60 63 63 59 59 54 51 53 53 52 53 56 61 63 62 63 60
67 66 65 67 67 67 67 67 68 68 68 68 66 66 62 62 59 58 62 64 62 59 57 56 53 54 49 57 63 58 56 55 53 54 54 54 54 50 51 57 56 54 54
65 66 66 68 68 68 67 67 66 65 64 62 59 57 57 57 59 60 59 63 62 59 58 56 52 49 48 48 49 55 56 54 51 52 52 51 49 47 47 48 49 49 48
63 63 63 65 66 66 64 63 61 59 58 56 54 53 53 53 52 57 61 61 60 61 57 55 54 50 51 51 52 50 50 50 49 48 49 48 46 44 45 45 46 45 44
57 57 57 57 56 58 61 60 58 58 56 54 53 51 49 49 51 52 54 55 54 53 52 52 49 48 49 48 48 47 49 49 48 47 46 46 45 44 44 44 42 42 42
54 54 54 53 52 53 53 54 55 57 56 54 52 52 52 51 51 51 51 52 51 51 50 50 48 47 47 46 48 48 47 46 46 44 43 43 44 43 42 42 39 37 33
54 54 53 52 52 49 47 49 49 46 49 55 54 52 49 46 42 36 40 42 46 47 47 46 45 45 46 46 46 46 45 45 44 44 43 41 40 39 38 38 39 38 35
48 49 51 52 52 51 50 47 43 46 47 48 50 49 45 42 41 38 37 37 41 46 46 45 45 44 44 44 44 43 43 42 42 41 40 38 37 36 35 35 35 33 33
48 46 45 42 41 41 44 45 42 36 36 41 45 47 49 46 41 42 37 35 36 39 42 45 45 44 44 44 43 42 40 41 43 40 38 37 36 35 34 34 33 32 32
46 49 50 48 45 45 40 37 36 35 33 30 29 31 34 35 32 31 33 37 35 35 37 42 43 43 43 43 42 41 39 40 40 38 38 36 35 33 32 31 32 32 32
39 40 40 42 44 43 43 43 41 40 37 31 30 29 30 29 30 32 33 38 36 39 41 40 45 44 43 42 43 42 40 39 38 37 37 36 35 33 33 32 33 33 34
40 39 38 38 37 37 37 36 37 41 40 37 34 29 30 32 33 39 42 42 41 41 40 43 44 45 44 43 43 41 40 38 38 37 36 35 35 34 32 33 33 33 34
41 40 37 37 37 36 36 36 36 35 35 36 37 36 29 31 32 38 37 37 38 41 44 45 45 45 45 44 43 42 40 39 38 37 36 35 35 33 34 34 34 34 34
45 42 40 39 37 37 36 35 35 35 35 35 35 37 37 36 35 39 38 36 37 42 43 45 44 43 42 42 43 41 39 38 37 37 35 34 34 34 34 34 35 35 35
49 47 44 41 40 37 35 36 35 35 35 35 35 35 35 35 37 36 37 36 37 40 43 43 42 40 40 42 42 41 37 37 37 36 34 33 33 33 34 34 34 34 34
52 51 50 46 42 40 39 39 39 36 36 37 37 37 37 37 36 37 38 37 37 38 41 42 42 40 40 41 40 40 38 37 37 36 33 31 31 34 33 33 33 34 34
52 51 50 48 46 44 44 42 41 43 43 43 42 40 38 39 38 37 37 37 37 38 40 41 41 41 42 41 38 38 36 37 37 34 33 32 32 34 31 31 32 32 33
54 53 52 51 50 49 49 46 46 47 47 46 45 44 42 41 39 39 39 39 38 37 38 40 41 42 41 41 40 39 36 35 35 32 31 31 32 31 30 31 32 31 32

GFSGL_sfc_30mbdewp_126.txt.gz
Dewpoint
64 64 64 65 65 68 68 69 68 69 70 70 70 69 69 70 70 71 70 68 68 68 69 68 68 68 65 62 63 62 62 62 59 57 62 67 67 68 68 68 69 67 63
63 64 65 65 66 66 68 67 68 69 70 70 69 70 70 69 70 70 69 67 67 67 68 67 68 67 68 68 64 64 63 65 63 62 64 63 67 68 69 69 66 64 59
64 64 65 66 66 65 66 67 68 69 70 69 69 69 68 68 68 69 70 68 68 67 67 67 67 68 68 66 67 65 65 67 68 66 64 65 65 66 68 68 68 68 60
64 64 65 66 65 65 66 67 68 68 69 69 69 69 68 67 67 67 69 69 69 68 68 68 67 67 68 68 68 68 67 68 68 66 67 62 63 68 66 66 67 69 61
67 66 66 67 68 67 67 67 68 69 68 69 70 69 69 68 68 68 69 70 69 68 67 69 67 68 69 69 69 68 68 68 65 65 61 60 62 64 63 64 67 64 68
67 66 67 69 69 69 70 69 69 70 69 70 69 69 69 67 66 68 68 68 69 69 69 69 68 69 68 67 68 68 69 69 68 65 60 62 66 66 63 62 67 64 60
68 68 68 69 69 70 70 70 69 69 69 69 69 69 68 69 65 63 64 67 68 68 69 69 69 65 69 69 66 67 65 65 66 69 67 66 67 66 64 65 66 67 65
68 69 70 71 70 71 70 70 70 69 69 69 70 68 69 70 63 61 61 66 67 68 69 69 69 69 68 68 67 66 65 64 64 64 64 67 66 66 66 66 67 66 61
68 68 69 69 68 69 69 69 70 69 68 68 68 69 69 69 61 60 63 67 66 66 66 64 68 68 60 62 66 64 64 59 53 53 52 52 54 57 61 63 65 63 63
68 68 67 68 67 67 67 67 69 69 69 69 68 68 65 65 59 59 62 64 65 62 61 56 52 53 49 59 66 64 63 61 55 58 57 56 56 53 54 60 60 56 54
67 66 66 67 68 68 68 68 68 67 66 64 61 59 59 57 58 57 58 61 63 61 59 57 53 51 50 48 48 59 59 57 54 56 56 53 51 51 50 52 51 50 51
65 64 63 64 63 64 63 62 61 60 58 57 56 55 55 56 54 56 60 60 62 62 60 57 55 52 52 52 53 53 54 54 53 53 52 50 49 48 48 48 50 48 48
59 58 58 59 59 59 61 62 61 60 58 56 55 53 53 55 55 54 53 54 55 56 55 52 51 51 51 50 49 49 50 51 51 51 51 49 47 48 47 46 44 46 45
56 57 56 54 54 56 55 56 58 58 56 56 55 54 54 50 47 49 54 55 54 53 51 50 48 48 48 49 51 51 51 51 49 48 45 46 45 45 45 44 43 40 38
56 55 54 53 52 49 46 47 50 47 50 56 56 54 52 50 44 41 44 47 50 50 50 49 49 49 48 49 48 48 48 48 46 46 45 44 43 42 41 41 40 40 37
52 52 54 53 53 52 50 49 41 45 47 50 51 51 48 46 43 43 43 46 50 50 50 49 48 47 47 48 48 45 44 42 42 41 41 40 38 37 37 37 36 34 33
44 44 40 40 44 47 47 47 47 42 39 45 47 47 47 42 38 38 39 37 39 43 46 49 48 46 45 45 44 43 42 42 43 42 42 40 40 37 34 34 33 32 31
50 48 45 44 43 40 38 37 36 37 37 39 30 36 43 40 34 31 33 36 36 36 37 42 41 45 46 45 45 43 43 43 42 41 40 39 37 36 34 33 32 32 32
41 41 43 43 42 41 41 39 38 38 35 33 29 29 29 29 30 31 33 37 34 32 35 36 41 42 45 43 43 41 41 40 39 39 39 37 36 34 33 32 31 33 34
39 38 37 37 37 36 35 35 37 37 37 36 35 33 32 33 35 38 40 38 37 37 38 39 41 43 43 44 45 43 42 40 40 39 37 36 36 34 32 32 32 32 33
39 38 37 37 35 35 34 35 35 35 35 34 36 36 28 34 33 35 35 35 35 37 40 42 43 46 46 46 45 42 40 39 39 38 37 37 35 33 33 33 33 34 34
43 41 39 38 37 38 37 36 36 36 36 36 36 36 36 36 34 36 36 35 35 36 40 45 45 45 44 43 42 40 39 38 38 38 37 35 34 33 32 32 32 34 34
46 45 44 43 40 38 36 37 37 37 37 37 37 36 36 35 36 35 36 36 36 36 37 40 41 39 38 38 38 37 35 35 36 37 36 34 32 31 31 31 32 32 32
45 45 44 44 45 43 40 39 39 38 38 39 39 39 39 38 37 37 37 37 36 36 36 38 39 38 37 38 36 37 37 37 37 36 37 32 30 31 30 31 31 31 31
44 44 44 45 46 46 44 43 43 42 43 43 42 43 42 41 39 39 38 38 38 37 36 37 38 38 39 39 38 37 38 36 36 34 35 31 30 31 30 29 29 30 30
44 45 46 45 46 46 45 46 46 46 47 48 46 45 44 44 43 42 41 40 39 39 37 38 37 38 39 39 40 38 36 36 36 35 32 31 30 31 30 30 30 29 30